[[{"header":{"parameterUnit":"m.s-1","parameterCategory":1,"la1":30.6,"la2":28.766,"lo1":-90.7593,"lo2":-88.6598,"dy":0.0162,"dx":0.0183,"nx":116,"ny":114,"refTime":"2023-11-02T18:00:00:Z","depth":0,"parameterNumber":2,"parameterNumberName":"U-component_of_WINDS"},"data":[0.0,0.0,0.0,0.0,0.0,0.0,0.0,0.0,0.0,0.0,0.0,0.0,0.0,0.0,0.0,0.0,0.0,0.0,0.0,0.0,0.0,0.0,0.0,0.0,0.0,0.0,0.0,0.0,0.0,0.0,0.0,0.0,0.0,0.0,0.0,0.0,0.0,0.0,0.0,0.0,0.0,0.0,0.0,0.0,0.0,0.0,0.0,0.0,0.0,0.0,0.0,0.0,0.0,0.0,0.0,0.0,0.0,0.0,0.0,0.0,0.0,0.0,0.0,0.0,0.0,0.0,0.0,0.0,0.0,0.0,0.0,0.0,0.0,0.0,0.0,0.0,0.0,0.0,0.0,0.0,0.0,0.0,0.0,0.0,0.0,0.0,0.0,0.0,0.0,0.0,0.0,0.0,0.0,0.0,0.0,0.0,0.0,0.0,0.0,0.0,0.0,0.0,0.0,0.0,0.0,0.0,0.0,0.0,0.0,0.0,0.0,0.0,0.0,0.0,0.0,0.0,0.0,0.0,0.0,0.0,0.0,0.0,0.0,0.0,0.0,0.0,0.0,0.0,0.0,0.0,0.0,0.0,0.0,0.0,0.0,0.0,0.0,0.0,0.0,0.0,0.0,0.0,0.0,0.0,0.0,0.0,0.0,0.0,0.0,0.0,0.0,0.0,0.0,0.0,0.0,0.0,0.0,0.0,0.0,0.0,0.0,0.0,0.0,0.0,0.0,0.0,0.0,0.0,0.0,0.0,0.0,0.0,0.0,0.0,0.0,0.0,0.0,0.0,0.0,0.0,0.0,0.0,0.0,0.0,0.0,0.0,0.0,0.0,0.0,0.0,0.0,0.0,0.0,0.0,0.0,0.0,0.0,0.0,0.0,0.0,0.0,0.0,0.0,0.0,0.0,0.0,0.0,0.0,0.0,0.0,0.0,0.0,0.0,0.0,0.0,0.0,0.0,0.0,0.0,0.0,0.0,0.0,0.0,0.0,0.0,0.0,0.0,0.0,0.0,0.0,0.0,0.0,0.0,0.0,0.0,0.0,0.0,0.0,0.0,0.0,0.0,0.0,0.0,0.0,0.0,0.0,0.0,0.0,0.0,0.0,0.0,0.0,0.0,0.0,0.0,0.0,0.0,0.0,0.0,0.0,0.0,0.0,0.0,0.0,0.0,0.0,0.0,0.0,0.0,0.0,0.0,0.0,0.0,0.0,0.0,0.0,0.0,0.0,0.0,0.0,0.0,0.0,0.0,0.0,0.0,0.0,0.0,0.0,0.0,0.0,0.0,0.0,0.0,0.0,0.0,0.0,0.0,0.0,0.0,0.0,0.0,0.0,0.0,0.0,0.0,0.0,0.0,0.0,0.0,0.0,0.0,0.0,0.0,0.0,0.0,0.0,0.0,0.0,0.0,0.0,0.0,0.0,0.0,0.0,0.0,0.0,0.0,0.0,0.0,0.0,0.0,0.0,0.0,0.0,0.0,0.0,0.0,0.0,0.0,0.0,0.0,0.0,0.0,0.0,0.0,0.0,0.0,0.0,0.0,0.0,0.0,0.0,0.0,0.0,0.0,0.0,0.0,0.0,0.0,0.0,0.0,0.0,0.0,0.0,0.0,0.0,0.0,0.0,0.0,0.0,0.0,0.0,0.0,0.0,0.0,0.0,0.0,0.0,0.0,0.0,0.0,0.0,0.0,0.0,0.0,0.0,0.0,0.0,0.0,0.0,0.0,0.0,0.0,0.0,0.0,0.0,0.0,0.0,0.0,0.0,0.0,0.0,0.0,0.0,0.0,0.0,0.0,0.0,0.0,0.0,0.0,0.0,0.0,0.0,0.0,0.0,0.0,0.0,0.0,0.0,0.0,0.0,0.0,0.0,0.0,0.0,0.0,0.0,0.0,0.0,0.0,0.0,0.0,0.0,0.0,0.0,0.0,0.0,0.0,0.0,0.0,0.0,0.0,0.0,0.0,0.0,0.0,0.0,0.0,0.0,0.0,0.0,0.0,0.0,0.0,0.0,0.0,0.0,0.0,0.0,0.0,0.0,0.0,0.0,0.0,0.0,0.0,0.0,0.0,0.0,0.0,0.0,0.0,0.0,0.0,0.0,0.0,0.0,0.0,0.0,0.0,0.0,0.0,0.0,0.0,0.0,0.0,0.0,0.0,0.0,0.0,0.0,0.0,0.0,0.0,0.0,0.0,0.0,0.0,0.0,0.0,0.0,0.0,0.0,0.0,0.0,0.0,0.0,0.0,0.0,0.0,0.0,0.0,0.0,0.0,0.0,0.0,0.0,0.0,0.0,0.0,0.0,0.0,0.0,0.0,0.0,0.0,0.0,0.0,0.0,0.0,0.0,0.0,0.0,0.0,0.0,0.0,0.0,0.0,0.0,0.0,0.0,0.0,0.0,0.0,0.0,0.0,0.0,0.0,0.0,0.0,0.0,0.0,0.0,0.0,0.0,0.0,0.0,0.0,0.0,0.0,0.0,0.0,0.0,0.0,0.0,0.0,0.0,0.0,0.0,0.0,0.0,0.0,0.0,0.0,0.0,0.0,0.0,0.0,0.0,0.0,0.0,0.0,0.0,0.0,0.0,0.0,0.0,0.0,0.0,0.0,0.0,0.0,0.0,0.0,0.0,0.0,0.0,0.0,0.0,0.0,0.0,0.0,0.0,0.0,0.0,0.0,0.0,0.0,0.0,0.0,0.0,0.0,0.0,0.0,0.0,0.0,0.0,0.0,0.0,0.0,0.0,0.0,0.0,0.0,0.0,0.0,0.0,0.0,0.0,0.0,0.0,0.0,0.0,0.0,0.0,0.0,0.0,0.0,0.0,0.0,0.0,0.0,0.0,0.0,0.0,0.0,0.0,0.0,0.0,0.0,0.0,0.0,0.0,0.0,0.0,0.0,0.0,0.0,0.0,0.0,0.0,0.0,0.0,0.0,0.0,0.0,0.0,0.0,0.0,0.0,0.0,0.0,0.0,0.0,0.0,0.0,0.0,0.0,0.0,0.0,0.0,0.0,0.0,0.0,0.0,0.0,0.0,0.0,0.0,0.0,0.0,0.0,0.0,0.0,0.0,0.0,0.0,0.0,0.0,0.0,0.0,0.0,0.0,0.0,0.0,0.0,0.0,0.0,0.0,0.0,0.0,0.0,0.0,0.0,0.0,0.0,0.0,0.0,0.0,0.0,0.0,0.0,0.0,0.0,0.0,0.0,0.0,0.0,0.0,0.0,0.0,0.0,0.0,0.0,0.0,0.0,0.0,0.0,0.0,0.0,0.0,0.0,0.0,0.0,0.0,0.0,0.0,0.0,0.0,0.0,0.0,0.0,0.0,0.0,0.0,0.0,0.0,0.0,0.0,0.0,0.0,0.0,0.0,0.0,0.0,0.0,0.0,0.0,0.0,0.0,0.0,0.0,0.0,0.0,0.0,0.0,0.0,0.0,0.0,0.0,0.0,0.0,0.0,0.0,0.0,0.0,0.0,0.0,0.0,0.0,0.0,0.0,0.0,0.0,0.0,0.0,0.0,0.0,0.0,0.0,0.0,0.0,0.0,0.0,0.0,0.0,0.0,0.0,0.0,0.0,0.0,0.0,0.0,0.0,0.0,0.0,0.0,0.0,0.0,0.0,0.0,0.0,0.0,0.0,0.0,0.0,0.0,0.0,0.0,0.0,0.0,0.0,0.0,0.0,0.0,0.0,0.0,0.0,0.0,0.0,0.0,0.0,0.0,0.0,0.0,0.0,0.0,0.0,0.0,0.0,0.0,0.0,0.0,0.0,0.0,0.0,0.0,0.0,0.0,0.0,0.0,0.0,0.0,0.0,0.0,0.0,0.0,0.0,0.0,0.0,0.0,0.0,0.0,0.0,0.0,0.0,0.0,0.0,0.0,0.0,0.0,0.0,0.0,0.0,0.0,0.0,0.0,0.0,0.0,0.0,0.0,0.0,0.0,0.0,0.0,0.0,0.0,0.0,0.0,0.0,0.0,0.0,0.0,0.0,0.0,0.0,0.0,0.0,0.0,0.0,0.0,0.0,0.0,0.0,0.0,0.0,0.0,0.0,0.0,0.0,0.0,0.0,0.0,0.0,0.0,0.0,0.0,0.0,0.0,0.0,0.0,0.0,0.0,0.0,0.0,0.0,0.0,0.0,0.0,0.0,0.0,0.0,0.0,0.0,0.0,0.0,0.0,0.0,0.0,0.0,0.0,0.0,0.0,0.0,0.0,0.0,0.0,0.0,0.0,0.0,0.0,0.0,0.0,0.0,0.0,0.0,0.0,0.0,0.0,0.0,0.0,0.0,0.0,0.0,0.0,0.0,0.0,0.0,0.0,0.0,0.0,0.0,0.0,0.0,0.0,0.0,0.0,0.0,0.0,0.0,0.0,0.0,0.0,0.0,0.0,0.0,0.0,0.0,0.0,0.0,0.0,0.0,0.0,0.0,0.0,0.0,0.0,0.0,0.0,0.0,0.0,0.0,0.0,0.0,0.0,0.0,0.0,0.0,0.0,0.0,0.0,0.0,0.0,0.0,0.0,0.0,0.0,0.0,0.0,0.0,0.0,0.0,0.0,0.0,0.0,0.0,0.0,0.0,0.0,0.0,0.0,0.0,0.0,0.0,0.0,0.0,0.0,0.0,0.0,0.0,0.0,0.0,0.0,0.0,0.0,0.0,0.0,0.0,0.0,0.0,0.0,0.0,0.0,0.0,0.0,0.0,0.0,0.0,0.0,0.0,0.0,0.0,0.0,0.0,0.0,0.0,0.0,0.0,0.0,0.0,0.0,0.0,0.0,0.0,0.0,0.0,0.0,0.0,0.0,0.0,0.0,0.0,0.0,0.0,0.0,0.0,0.0,0.0,0.0,0.0,0.0,0.0,0.0,0.0,0.0,0.0,0.0,0.0,0.0,0.0,0.0,0.0,0.0,0.0,0.0,0.0,0.0,0.0,0.0,0.0,0.0,0.0,0.0,0.0,0.0,0.0,0.0,0.0,0.0,0.0,0.0,0.0,0.0,0.0,0.0,0.0,0.0,0.0,0.0,0.0,0.0,0.0,0.0,0.0,0.0,0.0,0.0,0.0,0.0,0.0,0.0,0.0,0.0,0.0,0.0,0.0,0.0,0.0,0.0,0.0,0.0,0.0,0.0,0.0,0.0,0.0,0.0,0.0,0.0,0.0,0.0,0.0,0.0,0.0,0.0,0.0,0.0,0.0,0.0,0.0,0.0,0.0,0.0,0.0,0.0,0.0,0.0,0.0,0.0,0.0,0.0,0.0,0.0,0.0,0.0,0.0,0.0,0.0,0.0,0.0,0.0,0.0,0.0,0.0,0.0,0.0,0.0,0.0,0.0,0.0,0.0,0.0,0.0,0.0,0.0,0.0,0.0,0.0,0.0,0.0,0.0,0.0,0.0,0.0,0.0,0.0,0.0,0.0,0.0,0.0,0.0,0.0,0.0,0.0,0.0,0.0,0.0,0.0,0.0,0.0,0.0,0.0,0.0,0.0,0.0,0.0,0.0,0.0,0.0,0.0,0.0,0.0,0.0,0.0,0.0,0.0,0.0,0.0,0.0,0.0,0.0,0.0,0.0,0.0,0.0,0.0,0.0,0.0,0.0,0.0,0.0,0.0,0.0,0.0,0.0,0.0,0.0,0.0,0.0,0.0,0.0,0.0,0.0,0.0,0.0,0.0,0.0,0.0,0.0,0.0,0.0,0.0,0.0,0.0,0.0,0.0,0.0,0.0,0.0,0.0,0.0,0.0,0.0,0.0,0.0,0.0,0.0,0.0,0.0,0.0,0.0,0.0,0.0,0.0,0.0,0.0,0.0,0.0,0.0,0.0,0.0,0.0,0.0,0.0,0.0,0.0,0.0,0.0,0.0,0.0,0.0,0.0,0.0,0.0,0.0,0.0,0.0,0.0,0.0,0.0,0.0,0.0,0.0,0.0,0.0,0.0,0.0,0.0,0.0,0.0,0.0,0.0,0.0,0.0,0.0,0.0,0.0,0.0,0.0,0.0,0.0,0.0,0.0,0.0,0.0,0.0,0.0,0.0,0.0,0.0,0.0,0.0,0.0,0.0,0.0,0.0,0.0,0.0,0.0,-1.1623,0.0,0.0,0.0,0.0,0.0,0.0,0.0,0.0,0.0,0.0,0.0,0.0,0.0,0.0,0.0,0.0,0.0,0.0,0.0,0.0,0.0,0.0,0.0,0.0,0.0,0.0,0.0,0.0,0.0,0.0,0.0,0.0,0.0,0.0,0.0,0.0,0.0,0.0,-1.4884,-1.516,-1.5969,-1.7303,-1.7578,-1.7277,-1.65,0.0,0.0,0.0,0.0,0.0,0.0,0.0,0.0,0.0,0.0,0.0,0.0,0.0,0.0,0.0,0.0,0.0,0.0,0.0,0.0,0.0,0.0,0.0,0.0,0.0,0.0,0.0,0.0,0.0,0.0,0.0,0.0,0.0,0.0,0.0,0.0,0.0,0.0,0.0,0.0,0.0,0.0,0.0,0.0,0.0,0.0,0.0,0.0,0.0,0.0,0.0,0.0,0.0,0.0,0.0,0.0,0.0,0.0,0.0,0.0,0.0,0.0,0.0,0.0,0.0,0.0,0.0,0.0,0.0,0.0,0.0,-1.1462,0.0,0.0,0.0,0.0,0.0,0.0,0.0,0.0,0.0,0.0,0.0,0.0,0.0,0.0,0.0,0.0,0.0,0.0,0.0,0.0,0.0,0.0,0.0,-1.2773,-1.2656,-1.234,-1.2184,-1.1953,0.0,0.0,0.0,0.0,0.0,0.0,0.0,-1.3611,-1.4262,-1.5185,-1.6095,-1.7325,-1.8781,-1.9309,-1.8832,-1.7478,-1.7002,0.0,0.0,0.0,0.0,0.0,0.0,0.0,0.0,0.0,0.0,0.0,0.0,0.0,0.0,0.0,0.0,0.0,0.0,0.0,0.0,0.0,0.0,0.0,0.0,0.0,0.0,0.0,0.0,0.0,0.0,0.0,0.0,0.0,0.0,0.0,0.0,0.0,0.0,0.0,0.0,0.0,0.0,0.0,0.0,0.0,0.0,0.0,0.0,0.0,0.0,0.0,0.0,0.0,0.0,0.0,0.0,0.0,0.0,0.0,0.0,0.0,0.0,0.0,-1.3491,-1.3672,-1.4113,-1.4458,-1.405,-1.2976,-1.2289,-1.1568,-1.0884,0.0,0.0,0.0,0.0,0.0,0.0,0.0,0.0,0.0,0.0,0.0,0.0,0.0,0.0,0.0,0.0,0.0,0.0,0.0,0.0,0.0,0.0,-1.2301,-1.2418,-1.2773,-1.2113,-1.1665,-1.1606,0.0,0.0,0.0,0.0,0.0,-1.3267,-1.2842,-1.3819,-1.6274,-1.8806,-2.039,-2.1066,-2.1619,-2.1769,-2.1415,-1.9058,-1.8781,-1.9987,0.0,0.0,0.0,0.0,0.0,0.0,0.0,0.0,0.0,0.0,0.0,0.0,0.0,0.0,0.0,0.0,0.0,0.0,0.0,0.0,0.0,0.0,0.0,0.0,0.0,0.0,0.0,0.0,0.0,0.0,0.0,0.0,0.0,0.0,0.0,0.0,0.0,0.0,0.0,0.0,0.0,-1.3281,-1.2954,0.0,0.0,0.0,0.0,0.0,0.0,0.0,0.0,0.0,0.0,0.0,0.0,0.0,-1.3553,-1.3866,-1.4,-1.3951,-1.377,-1.3915,-1.4339,-1.4922,-1.3715,-1.3854,-1.4941,-1.3765,0.0,-1.1431,-1.0631,0.0,0.0,0.0,0.0,0.0,0.0,0.0,0.0,0.0,0.0,0.0,0.0,0.0,0.0,0.0,0.0,0.0,0.0,0.0,0.0,0.0,-1.3061,-1.3457,-1.2954,-1.3639,-1.3404,-1.1724,-1.2141,0.0,0.0,0.0,-1.2335,-1.277,-1.3309,-1.4789,-1.73,-2.0256,-2.194,-2.2442,-2.3598,-2.433,-2.4588,-2.2723,-2.1267,-2.0087,-1.8581,0.0,0.0,0.0,0.0,0.0,0.0,0.0,0.0,0.0,0.0,0.0,0.0,0.0,0.0,0.0,0.0,0.0,0.0,0.0,0.0,0.0,0.0,0.0,0.0,0.0,0.0,0.0,0.0,0.0,0.0,0.0,0.0,0.0,0.0,0.0,0.0,0.0,0.0,0.0,-1.3437,-1.3588,-1.2969,-1.3457,-1.3588,0.0,0.0,0.0,0.0,0.0,0.0,0.0,0.0,0.0,-1.3682,-1.3818,-1.3837,-1.3663,-1.4154,-1.4352,-1.4324,-1.4572,-1.4998,-1.545,-1.4523,-1.4636,-1.5556,-1.4715,-1.4061,-1.3535,-1.2221,-1.1347,-1.08,0.0,0.0,0.0,0.0,-0.9406,-0.9526,0.0,0.0,0.0,0.0,0.0,0.0,0.0,0.0,0.0,0.0,0.0,0.0,-1.2632,-1.3945,-1.4531,-1.3926,-1.5048,-1.4754,-1.2387,-1.2675,-1.2329,-1.1018,-1.1533,-1.2023,-1.2423,-1.438,-1.6348,-1.827,-2.1365,-2.3108,-2.3584,-2.4941,-2.5836,-2.6248,-2.5551,-2.3853,-2.1418,-2.0037,-1.9058,-1.8353,0.0,0.0,0.0,0.0,0.0,0.0,0.0,0.0,0.0,0.0,0.0,0.0,0.0,0.0,0.0,0.0,0.0,0.0,0.0,0.0,0.0,0.0,0.0,0.0,0.0,0.0,0.0,0.0,0.0,0.0,0.0,0.0,0.0,0.0,0.0,0.0,0.0,-1.3789,-1.4036,-1.3032,-1.3977,-1.4266,0.0,0.0,0.0,0.0,0.0,0.0,-1.3884,-1.3948,-1.3967,-1.391,-1.4237,-1.424,-1.3881,-1.4522,-1.4897,-1.4977,-1.5212,-1.5505,-1.5771,-1.5378,-1.5418,-1.5758,-1.5378,-1.5177,-1.503,-1.3738,-1.2464,-1.1344,-1.1259,-1.101,-1.0635,-1.0314,-1.0314,-1.035,0.0,0.0,0.0,0.0,0.0,0.0,0.0,0.0,0.0,0.0,0.0,-1.1736,-1.3782,-1.4492,-1.5254,-1.6395,-1.5508,-1.4609,-1.4016,-1.2129,-1.1018,-1.0899,-1.0567,-1.1065,-1.2468,-1.6055,-1.8338,-1.9237,-2.2382,-2.4203,-2.4731,-2.534,-2.5627,-2.5666,-2.6177,-2.6348,-2.5921,-2.2175,-2.0893,-2.1041,-1.8429,0.0,0.0,0.0,0.0,0.0,0.0,0.0,0.0,0.0,0.0,0.0,0.0,0.0,0.0,0.0,0.0,0.0,0.0,0.0,0.0,0.0,0.0,0.0,0.0,0.0,0.0,0.0,0.0,0.0,0.0,0.0,0.0,0.0,0.0,0.0,0.0,0.0,0.0,-1.3091,-1.5078,0.0,0.0,0.0,0.0,-1.3523,-1.3939,-1.4453,-1.4904,-1.4432,-1.462,-1.5532,-1.518,-1.5182,-1.5638,-1.5691,-1.5718,-1.5718,-1.5744,-1.5758,-1.5784,-1.5758,-1.5758,-1.5784,-1.5744,-1.5484,-1.4968,-1.4298,-1.3333,-1.2198,-1.1832,-1.1864,-1.2144,-1.1757,-1.1503,-1.1223,0.0,0.0,0.0,0.0,0.0,0.0,0.0,0.0,-1.0831,-1.0452,-1.13,-1.2286,-1.3283,-1.4606,-1.5687,-1.633,-1.6727,-1.6351,-1.5041,-1.3685,-1.271,-1.2207,-1.1758,-1.2559,-1.4767,-1.6921,-1.8745,-2.0146,-2.2832,-2.4371,-2.4821,-2.5757,-2.6173,-2.6192,-2.6399,-2.6299,-2.5826,-2.4051,-2.2046,-1.9941,-1.8858,-1.7903,0.0,0.0,0.0,0.0,0.0,0.0,0.0,0.0,0.0,0.0,0.0,0.0,0.0,0.0,0.0,0.0,0.0,0.0,0.0,0.0,0.0,0.0,0.0,0.0,0.0,0.0,0.0,0.0,0.0,0.0,0.0,0.0,0.0,0.0,0.0,0.0,0.0,-1.5313,-1.6445,0.0,-1.508,-1.5453,-1.5253,-1.4029,-1.4326,-1.4754,-1.5248,-1.5251,-1.5554,-1.6313,-1.6163,-1.6099,-1.6112,-1.6112,-1.6019,-1.5784,-1.5784,-1.5784,-1.5784,-1.5784,-1.5784,-1.5784,-1.5784,-1.5712,-1.5511,-1.5297,-1.4509,-1.3293,-1.184,-1.1815,-1.2443,-1.0827,-1.0957,-1.1761,0.0,0.0,0.0,0.0,0.0,0.0,0.0,0.0,-1.0433,-1.0161,-1.1405,-1.2646,-1.3568,-1.516,-1.6343,-1.6713,-1.7439,-1.7153,-1.5418,-1.4407,-1.3529,-1.2695,-1.2769,-1.3977,-1.6476,-1.791,-1.9434,-2.1055,-2.2918,-2.3966,-2.4253,-2.502,-2.5358,-2.5358,-2.5755,-2.5411,-2.4583,-2.4922,-2.3299,-2.047,-1.9827,-1.9278,-1.868,0.0,0.0,0.0,0.0,0.0,0.0,0.0,0.0,0.0,0.0,0.0,0.0,0.0,0.0,0.0,0.0,0.0,0.0,0.0,0.0,0.0,0.0,0.0,0.0,0.0,0.0,0.0,0.0,0.0,0.0,0.0,0.0,0.0,0.0,0.0,-1.6245,-1.6496,-1.7479,-1.7471,-1.571,-1.6079,-1.5882,-1.471,-1.5063,-1.5497,-1.5839,-1.6019,-1.6259,-1.6553,-1.6567,-1.642,-1.6126,-1.6126,-1.6019,-1.5784,-1.5784,-1.5784,-1.5784,-1.5784,-1.5784,-1.5784,-1.5784,-1.5784,-1.5758,-1.5404,-1.5017,-1.4488,-1.2745,-1.189,-1.1563,-1.0573,-1.0728,-1.1286,0.0,0.0,0.0,0.0,0.0,0.0,0.0,-0.8792,-0.9426,-1.0092,-1.1192,-1.271,-1.4744,-1.6073,-1.7072,-1.7711,-1.7557,-1.6722,-1.5186,-1.4026,-1.3075,-1.2274,-1.3503,-1.5225,-1.7422,-1.9102,-2.0605,-2.1894,-2.2691,-2.3101,-2.3101,-2.3101,-2.3101,-2.3144,-2.4253,-2.3943,-2.2647,-2.465,-2.4619,-2.3008,-2.1369,-2.1032,-2.1209,0.0,0.0,0.0,0.0,0.0,0.0,0.0,0.0,0.0,0.0,0.0,0.0,0.0,0.0,0.0,0.0,0.0,0.0,0.0,0.0,0.0,0.0,0.0,0.0,0.0,0.0,0.0,0.0,0.0,0.0,0.0,0.0,0.0,-1.5273,-1.7212,-1.7937,-1.6439,-1.8089,-1.8006,-1.4658,-1.5849,-1.6447,-1.5523,-1.6219,-1.6714,-1.6727,-1.6714,-1.658,-1.6375,-1.6348,-1.6152,-1.5798,-1.5798,-1.5798,-1.5784,-1.5784,-1.5784,-1.5784,-1.5784,-1.5784,-1.5784,-1.5784,-1.5758,-1.5638,-1.4418,-1.4528,-1.5423,-1.4418,-1.2186,-0.9705,-1.1133,-1.0878,-0.9687,0.0,0.0,0.0,0.0,0.0,0.0,0.0,-0.8651,-0.9402,-0.9597,-1.1209,-1.2796,-1.4014,-1.4767,-1.5648,-1.6822,-1.5505,-1.4653,-1.4816,-1.2769,-1.2077,-1.3321,-1.5646,-1.7656,-1.918,-2.0274,-2.1307,-2.2344,-2.2828,-2.3101,-2.3101,-2.3101,-2.3101,-2.3101,-2.343,-2.3327,-2.2969,-2.3533,-2.3764,-2.3608,-2.2059,-2.1024,-2.0226,0.0,0.0,0.0,0.0,0.0,0.0,0.0,0.0,0.0,0.0,0.0,0.0,0.0,0.0,0.0,0.0,0.0,0.0,0.0,0.0,0.0,0.0,0.0,0.0,0.0,0.0,0.0,0.0,0.0,0.0,0.0,0.0,-1.4933,-1.6221,-1.6213,-1.6437,-1.7507,-1.7964,-1.7885,-1.7099,-1.7453,-1.7332,-1.6424,-1.6567,-1.6794,-1.7072,-1.682,-1.686,-1.7208,-1.6954,-1.662,-1.6259,-1.6259,-1.6112,-1.5784,-1.5784,-1.5784,-1.5784,-1.5784,-1.5784,-1.5784,-1.5784,-1.5351,-1.4274,-1.0576,-0.9217,-0.9633,-1.1285,-1.1253,-1.013,-0.8877,-0.8052,-0.7657,0.0,0.0,0.0,0.0,0.0,0.0,0.0,-0.7906,-0.8727,-0.9109,-1.0975,-1.253,-1.3308,-1.394,-1.4552,-1.5134,-1.419,-1.347,-1.3218,-1.2027,-1.2202,-1.4136,-1.6578,-1.8506,-1.9918,-2.1122,-2.2109,-2.273,-2.2984,-2.3101,-2.3101,-2.3101,-2.3101,-2.3101,-2.332,-2.3257,-2.3101,-2.3296,-2.3493,-2.3509,-2.2457,-2.2029,-2.1831,-2.0085,-1.955,-1.9538,-1.7904,-1.7722,-1.8013,-1.6741,0.0,0.0,0.0,0.0,0.0,0.0,0.0,0.0,0.0,0.0,0.0,0.0,0.0,0.0,0.0,0.0,0.0,0.0,0.0,0.0,0.0,0.0,0.0,0.0,-1.4669,-1.5272,-1.6676,-1.6619,-1.6845,-1.8018,-1.7979,-1.779,-1.7532,-1.7626,-1.7484,-1.6924,-1.7007,-1.7154,-1.738,-1.7168,-1.7168,-1.7395,-1.6981,-1.662,-1.6353,-1.6233,-1.6011,-1.5784,-1.5045,-1.4806,-1.4997,-1.5581,-1.5391,0.0,-1.5486,-1.5398,-1.4448,-0.9526,-0.7321,0.0,0.0,0.0,0.0,0.0,-0.6991,-0.6922,0.0,0.0,0.0,0.0,0.0,0.0,0.0,-0.6813,-0.7618,-0.8423,-1.033,-1.1823,-1.2417,-1.332,-1.3654,-1.32,-1.3289,-1.2711,-1.1177,-1.1811,-1.3028,-1.4768,-1.6733,-1.8447,-1.9809,-2.139,-2.2323,-2.2687,-2.2818,-2.2906,-2.2906,-2.3057,-2.312,-2.3179,-2.3613,-2.3594,-2.3257,-2.3652,-2.3574,-2.314,-2.2711,-2.335,-2.4325,-2.2251,-2.1768,-2.1934,-1.9909,-1.9062,-1.8738,-1.7759,0.0,0.0,0.0,0.0,0.0,0.0,0.0,0.0,0.0,0.0,0.0,0.0,0.0,0.0,0.0,0.0,0.0,0.0,0.0,0.0,0.0,0.0,0.0,0.0,-1.5183,-1.5245,-1.6651,-1.7457,-1.794,-1.7915,-1.789,-1.7601,-1.6827,-1.7045,-1.7219,-1.7246,-1.7487,-1.7582,-1.7582,0.0,0.0,0.0,0.0,-1.5986,-1.567,-1.5367,-1.5287,-1.5343,-1.3884,-1.344,-1.3824,-1.4555,-1.4411,-1.3536,-1.4507,-1.4902,-1.4555,-0.9852,-0.7577,-0.7098,-0.7098,-0.7098,-0.7098,-0.7098,-0.7098,-0.7045,0.0,0.0,0.0,0.0,0.0,0.0,0.0,-0.5932,-0.6415,-0.6802,-0.8681,-1.0106,-1.0427,-1.1582,-1.2476,-1.2851,-1.1859,-1.1168,-1.1016,-1.2321,-1.3696,-1.5148,-1.7056,-1.8386,-1.9012,-1.9737,-2.011,-2.0223,-2.1168,-2.1658,-2.1658,-2.2624,-2.3276,-2.3672,-2.375,-2.3926,-2.4141,-2.3906,-2.375,-2.3633,-2.3184,-2.2968,-2.2832,-2.171,-2.1331,-2.1212,-1.9796,-1.9899,-2.0452,-1.8709,-1.8156,-1.7968,-1.6618,-1.5341,0.0,0.0,0.0,0.0,0.0,0.0,0.0,0.0,0.0,0.0,0.0,0.0,0.0,0.0,0.0,0.0,0.0,0.0,0.0,-1.5039,-1.5063,-1.5205,-1.5912,-1.6154,-1.6358,-1.6607,-1.6662,-1.6769,-1.7058,-1.7166,-1.73,-1.7527,-1.7555,-1.7582,-1.7582,-1.7407,-1.6536,-1.4981,-1.4693,-1.3623,-1.1707,-1.1795,-1.2123,-1.2678,0.0,0.0,-1.3247,-1.0672,-1.1638,-1.5092,-1.1209,-0.9501,-0.9412,-0.788,-0.72,-0.7098,-0.7098,-0.7098,-0.7098,-0.7098,-0.7098,-0.7051,0.0,0.0,0.0,0.0,0.0,0.0,0.0,-0.5241,-0.576,-0.6329,-0.7761,-0.8831,-0.9009,-0.9884,-1.0487,-1.0586,-1.0159,-1.0327,-1.1369,-1.2436,-1.37,-1.5106,-1.6796,-1.7877,-1.8237,-1.9079,-1.9497,-1.9497,-2.0258,-2.0531,-2.0449,-2.2007,-2.2801,-2.293,-2.4009,-2.4316,-2.4121,-2.4336,-2.4062,-2.3457,-2.3457,-2.3203,-2.273,-2.2301,-2.2146,-2.2009,-2.0977,-2.0859,-2.0937,-1.9358,-1.8596,-1.81,-1.6917,-1.5592,-1.4348,0.0,0.0,0.0,0.0,0.0,0.0,0.0,0.0,0.0,0.0,0.0,0.0,0.0,0.0,-1.3146,0.0,0.0,-1.4061,-1.5279,-1.5418,-1.5551,-1.5992,-1.6046,-1.6166,-1.6446,-1.6486,-1.6714,-1.7353,-1.7515,-1.7595,-1.7582,-1.7729,-1.7423,-1.6564,-1.615,-1.5317,-1.389,-1.2967,-1.2191,-1.1623,-1.1456,-1.1549,-1.1901,-1.1891,-1.1881,-1.1784,-0.9213,-0.941,-1.1736,-0.9114,-0.7988,-0.7941,-0.7341,-0.7098,-0.7098,-0.7098,-0.7098,-0.7098,-0.7098,-0.7098,-0.7031,0.0,0.0,0.0,0.0,0.0,0.0,0.0,-0.4587,-0.5095,-0.5796,-0.6847,-0.754,-0.7607,-0.8143,-0.848,-0.8308,-0.8953,-1.0151,-1.1966,-1.269,-1.3682,-1.507,-1.6284,-1.7033,-1.7311,-1.8272,-1.8764,-1.8764,-1.9236,-1.9392,-1.929,-2.1053,-2.1872,-2.1888,-2.355,-2.3937,-2.3426,-2.4032,-2.3634,-2.2669,-2.3223,-2.3159,-2.2755,-2.2916,-2.2925,-2.275,-2.2031,-2.1367,-2.0644,-1.9551,-1.8594,-1.7754,-1.6941,-1.5898,-1.4805,-1.425,-1.3594,0.0,0.0,0.0,0.0,0.0,0.0,0.0,0.0,0.0,-1.2696,-1.3632,-1.3487,-1.3497,-1.4467,-1.4269,-1.4346,-1.5584,-1.5824,-1.5979,-1.6166,-1.6233,-1.6366,-1.6593,-1.6673,-1.6914,-1.7448,-1.7769,-1.7689,-1.7213,-1.7381,-1.675,-1.5102,-1.4609,-1.3944,-1.2881,-1.1594,-1.1178,-1.1769,-1.1387,-1.1159,-1.1121,-1.0435,-1.0092,-1.0043,-0.8627,-0.7988,-0.7988,-0.7988,-0.7988,-0.7955,-0.7469,-0.72,-0.7098,-0.7098,-0.7098,-0.7098,-0.7098,-0.7098,-0.6923,0.0,0.0,0.0,0.0,0.0,0.0,0.0,0.0,-0.3984,-0.4069,-0.5081,-0.5693,-0.547,-0.6303,-0.716,-0.7901,-0.9193,-1.0759,-1.2572,-1.3494,-1.4469,-1.5685,-1.5846,-1.5981,-1.6008,-1.615,-1.6197,-1.6197,-1.7387,-1.8052,-1.8261,-1.9587,-2.05,-2.1129,-2.136,-2.1643,-2.1912,-2.161,-2.124,-2.0945,-2.1717,-2.1817,-2.1577,-2.2308,-2.2363,-2.1973,-2.1444,-2.0527,-1.9434,-1.8851,-1.8144,-1.7363,-1.6863,-1.6063,-1.5176,-1.4348,0.0,-1.3359,-1.3013,-1.2576,0.0,-1.2747,-1.2677,-1.3043,0.0,0.0,-1.3851,-1.4721,-1.4598,-1.4354,-1.4475,-1.4888,-1.5337,-1.5718,-1.6046,-1.6139,-1.5912,-1.6112,-1.6335,-1.6313,-1.6553,-1.6834,-1.7219,-1.7514,-1.708,-1.5743,-1.566,-1.5072,-1.3588,-1.348,-1.2744,-1.1229,-1.1009,-1.0209,-0.8801,-0.8714,-0.8621,-0.8428,-0.8329,-0.828,-0.828,-0.8088,-0.7988,-0.7988,-0.7988,-0.7988,-0.7982,-0.7921,-0.7577,-0.7098,-0.7098,-0.7098,-0.7098,-0.7098,-0.7098,-0.648,0.0,0.0,0.0,0.0,0.0,0.0,0.0,0.0,0.0,-0.3792,-0.4294,-0.4542,-0.435,-0.504,-0.5834,-0.6708,-0.7878,-0.922,-1.0651,-1.1583,-1.2918,-1.4836,-1.4935,-1.5363,-1.629,-1.6339,-1.6339,-1.6339,-1.7043,-1.7344,-1.7302,-1.8984,-1.9794,-1.9987,-2.0979,-2.1378,-2.1279,-2.1395,-2.0917,-2.0256,-2.086,-2.068,-2.0007,-2.0018,-1.9372,-1.8608,-1.9717,-1.9434,0.0,-1.772,-1.7129,-1.6613,-1.6406,-1.5566,-1.4562,-1.4211,-1.3487,0.0,-1.1814,0.0,0.0,0.0,-1.2565,-1.3128,-1.4599,-1.4301,-1.3924,-1.4838,-1.5045,-1.5084,-1.5257,-1.5484,-1.5805,0.0,-1.6446,-1.6486,-1.6353,-1.6446,-1.6081,-1.4949,-1.507,-1.5457,-1.5892,-1.6178,-1.5743,-1.4288,-1.431,-1.3723,-1.2082,-1.2028,-1.1339,-0.9759,-0.9564,-0.9137,-0.8443,-0.8221,-0.8106,-0.7988,-0.7988,-0.7988,-0.7988,-0.7988,-0.7988,-0.7988,-0.7988,-0.7988,-0.7988,-0.7988,-0.784,-0.7617,-0.7617,-0.5727,-0.295,-0.295,-0.295,-0.267,0.0,0.0,0.0,0.0,0.0,0.0,0.0,0.0,0.0,0.0,-0.3731,-0.3853,-0.3744,-0.4145,-0.4766,-0.5688,-0.6651,-0.7755,-0.9075,-1.008,-1.1494,-1.3451,-1.3652,-1.4477,-1.6135,-1.6135,-1.6338,-1.6834,-1.7018,-1.7005,-1.6884,-1.8278,-1.8854,-1.8789,-2.002,-2.0335,-1.9987,-2.0382,-1.9943,-1.8972,-1.9702,-1.9394,-1.8414,-1.8021,-1.6985,-1.5922,-1.7632,-1.7547,-1.6581,-1.6138,-1.5723,-1.54,-1.5517,-1.4742,-1.3827,-1.3773,-1.2939,-1.1865,-1.1035,0.0,0.0,-1.2183,-1.2696,-1.3371,-1.4237,-1.4241,-1.4335,-1.5057,-1.5311,-1.5458,-1.5671,-1.5712,-1.5845,-1.6273,-1.6176,-1.5993,-1.5916,-1.5655,-1.49,-1.3344,-1.3374,-1.3554,-1.3591,-1.4283,-1.4113,-1.2744,-1.2836,-1.2229,-1.057,-1.0515,-1.0021,-0.894,-0.8682,-0.8526,-0.8479,-0.8228,-0.8029,-0.7988,-0.7988,-0.7988,-0.7988,-0.7988,-0.7185,-0.5777,-0.5777,-0.6631,-0.7988,-0.7988,-0.7135,-0.5777,-0.5777,-0.3403,0.0,0.0,0.0,0.0,0.0,0.0,0.0,0.0,0.0,0.0,0.0,0.0,0.0,0.0,0.0,0.0,0.0,-0.3633,-0.4039,-0.5036,-0.5946,-0.7117,-0.8703,-0.9951,-1.0897,-1.1548,-1.2017,-1.3079,-1.4838,-1.4749,-1.5503,-1.7192,-1.686,-1.686,-1.7192,-1.7257,-1.7405,-1.7674,-1.7674,-1.7578,-1.7322,-1.7605,-1.7228,-1.653,-1.7998,-1.7864,-1.6883,-1.7073,-1.6228,-1.5002,-1.5453,-1.4617,-1.3323,-1.3976,-1.3899,-1.3652,-1.4036,-1.3703,0.0,-1.2968,-1.217,-1.128,0.0,0.0,-1.2107,-1.2658,-1.3414,-1.4244,-1.4821,-1.5182,-1.5431,-1.5738,-1.5591,-1.5404,-1.5404,-1.5404,-1.5418,-1.5431,-1.4821,-1.4276,-1.4027,-1.3028,-1.2218,-1.1826,-1.1657,-1.1194,0.0,-1.182,-1.2356,-1.1079,-1.0999,-1.0385,-0.9037,-0.8995,-0.894,-0.8885,-0.8784,-0.8628,-0.8486,-0.8336,-0.8187,-0.7988,-0.7988,-0.7988,-0.7988,-0.7988,-0.5172,-0.0252,-0.0252,-0.3218,-0.7988,-0.7988,-0.4922,-0.0252,-0.0252,-0.0151,0.0,0.0,0.0,0.0,0.0,0.0,0.0,0.0,0.0,0.0,0.0,0.0,0.0,0.0,0.0,0.0,0.0,0.0,0.0,0.0,-0.5052,-0.5732,-0.6479,-0.7377,-0.853,-0.9979,-1.0573,-1.1657,-1.3279,-1.3391,-1.3674,-1.4265,-1.505,-1.5617,-1.589,-1.6781,-1.7353,-1.7569,-1.7434,-1.7393,-1.7474,-1.7128,-1.6714,-1.6295,-1.6415,-1.5868,-1.4895,-1.4012,-1.3082,-1.2303,0.0,-1.2053,-1.2015,-1.1956,-1.1833,-1.1719,-1.1868,-1.1766,-1.1565,-1.1467,-1.148,-1.1526,-1.161,0.0,-1.3204,-1.3762,-1.4442,-1.5057,-1.5444,-1.5618,-1.5605,-1.5311,-1.487,-1.4416,-1.4015,-1.3489,-1.32,-1.3481,-1.318,-1.2916,-1.2893,-1.2558,-1.1884,-1.061,-1.0485,0.0,0.0,0.0,0.0,-0.9526,-0.9448,-0.9258,-0.8933,-0.8885,-0.8885,-0.8885,-0.8791,-0.8682,-0.8635,-0.8486,-0.8336,-0.8194,-0.6871,-0.688,-0.7988,-0.7988,-0.703,-0.5122,-0.1561,-0.1008,-0.2716,-0.2716,-0.1611,0.0,0.0,0.0,0.0,0.0,0.0,0.0,0.0,0.0,0.0,0.0,0.0,0.0,0.0,0.0,0.0,0.0,0.0,0.0,0.0,0.0,0.0,0.0,0.0,-0.4513,-0.5101,-0.5754,-0.6672,-0.7984,-0.8584,-0.9653,-1.1295,-1.1397,-1.1697,-1.2342,-1.3205,-1.3713,-1.3967,-1.5357,-1.616,-1.6381,-1.6603,-1.6727,-1.678,-1.6393,-1.5885,-1.5297,-1.4923,-1.4108,-1.3013,-1.1873,-1.1069,0.0,-0.9953,-1.0108,-1.0567,-1.0742,-1.0788,-1.0788,-1.0788,-1.0788,-1.0739,-1.0523,-1.0977,-1.1657,-1.2222,-1.3053,-1.3961,-1.4656,-1.519,-1.5578,-1.5658,-1.5591,-1.5324,-1.4629,-1.4015,-1.3494,-1.2973,-1.2151,-1.1716,-1.2152,-1.1538,-1.1101,-1.1327,-1.0947,-1.0276,-0.93,-0.9241,0.0,0.0,0.0,0.0,-0.8579,-0.8601,-0.8696,-0.8797,-0.8851,-0.8885,-0.8885,-0.879,-0.8764,-0.871,-0.8075,-0.7457,-0.6765,-0.6486,-0.6426,-0.6526,-0.5572,-0.5122,-0.4972,-0.1512,0.0,0.0,0.0,0.0,0.0,0.0,0.0,0.0,0.0,0.0,0.0,0.0,0.0,0.0,0.0,0.0,0.0,0.0,0.0,0.0,0.0,0.0,0.0,0.0,0.0,0.0,0.0,0.0,0.0,-0.456,-0.5069,-0.5474,-0.5752,-0.6207,-0.7236,-0.8896,-0.8824,-0.957,-1.1216,-1.1292,-1.1392,-1.1585,-1.3053,-1.38,-1.4017,-1.5106,-1.5478,-1.5238,-1.5244,-1.4589,-1.3533,-1.3507,-1.2641,-1.1309,-1.0774,-1.0198,-0.9606,-0.9018,-0.8804,-0.8989,-1.0285,-1.0752,-1.0801,-1.0801,-1.0767,-1.0683,-1.0309,-1.0816,-1.1762,-1.2959,-1.3721,-1.4376,-1.5204,-1.5618,-1.5725,-1.5444,-1.5124,-1.4599,-1.3665,-1.2988,-1.2457,0.0,0.0,-1.0891,-1.1239,-0.9897,-0.8983,-0.941,-0.8432,-0.7753,0.0,0.0,0.0,0.0,0.0,0.0,-0.8166,0.0,-0.856,-0.8716,-0.8756,-0.8781,-0.8774,-0.8712,-0.8591,-0.8507,-0.7078,-0.5563,-0.4037,-0.6502,-0.6387,-0.3867,-0.121,0.0,0.0,0.0,0.0,0.0,0.0,0.0,0.0,0.0,0.0,0.0,0.0,0.0,0.0,0.0,0.0,0.0,0.0,0.0,0.0,0.0,0.0,0.0,0.0,0.0,0.0,0.0,0.0,0.0,0.0,0.0,0.0,-0.3688,-0.4136,-0.4634,-0.5265,-0.584,-0.6349,-0.6767,-0.6893,-0.7171,-0.7644,-0.8575,-0.918,-0.943,-1.0806,-1.1569,-1.1798,-1.2453,-1.2811,-1.2953,-1.3028,-1.2919,-1.2612,-1.2135,-1.1637,-1.1009,-1.0238,-0.9849,-0.9606,-0.9018,-0.8804,-0.8897,-0.9423,0.0,0.0,0.0,-1.0909,-1.1308,-1.1631,-1.2371,-1.32,-1.3946,-1.4776,-1.5431,-1.5658,-1.5618,-1.5431,-1.5137,-1.4104,-1.2965,-1.2003,-1.0587,-0.9342,0.0,0.0,0.0,-0.8322,-0.8225,0.0,-0.8686,-0.8459,0.0,0.0,0.0,-0.8411,-0.8526,-0.8438,0.0,0.0,-0.7977,-0.8716,-0.8817,-0.7941,-0.7348,-0.726,-0.62,-0.5631,-0.555,-0.5041,-0.4554,-0.4136,-0.3748,-0.3357,-0.2967,-0.0907,0.0,0.0,0.0,0.0,0.0,0.0,0.0,0.0,0.0,0.0,0.0,0.0,0.0,0.0,0.0,0.0,0.0,0.0,0.0,0.0,0.0,0.0,0.0,0.0,0.0,0.0,0.0,0.0,0.0,0.0,0.0,0.0,0.0,-0.3058,-0.3565,-0.4321,-0.4676,-0.4875,-0.4875,-0.5292,-0.5332,-0.4993,-0.6176,-0.6855,-0.7105,-0.851,-0.9261,-0.9504,-1.0289,-1.0896,-1.1353,-1.1295,-1.1292,0.0,0.0,-1.0408,-0.998,-0.9486,-0.9299,-0.9259,-0.8925,-0.9058,-0.9446,0.0,0.0,-1.0827,-1.1082,-1.1564,-1.2118,-1.2719,0.0,-1.3979,-1.4015,-1.4494,-1.4806,-1.422,-1.3896,-1.3568,-1.3161,-1.2183,-1.1055,-1.002,-0.8843,0.0,0.0,0.0,0.0,0.0,0.0,0.0,-0.8099,-0.8303,-0.8526,0.0,-0.8845,0.0,-0.7871,-0.7696,-0.7048,0.0,-0.6899,-0.7485,-0.6843,-0.6228,-0.5803,-0.5755,-0.4916,-0.4191,-0.3519,-0.3377,-0.3019,-0.2346,-0.1509,-0.1266,-0.1485,-0.0456,0.0,0.0,0.0,0.0,0.0,0.0,0.0,0.0,0.0,0.0,0.0049,0.0669,0.0896,0.0932,0.0,0.0,0.0,0.0,0.0,0.0,0.0,0.0,0.0,0.0,0.0,0.0,0.0,0.0,0.0,0.0,0.0,0.0,0.0,0.0,-0.2397,-0.3206,-0.3234,-0.3234,-0.3234,-0.3876,-0.3904,-0.3289,-0.4253,-0.4796,-0.5047,-0.6343,-0.6974,-0.7138,-0.8293,-0.9141,-0.9736,-0.9545,-0.9549,-0.9616,-0.9369,-0.8981,-0.8513,0.0,-0.8566,-0.8672,-0.8752,-0.9269,-0.9949,0.0,-1.1022,-1.1396,-1.202,-1.261,-1.3199,-1.372,-1.4124,-1.4269,-1.3695,-1.3588,-1.3389,-1.2234,-1.1701,-1.1275,-1.0689,-0.9951,-0.9062,-0.7995,0.0,-0.7041,-0.6796,0.0,-0.6254,-0.6876,0.0,-0.6878,-0.7801,-0.816,-0.8447,-0.8634,-0.8758,-0.8251,-0.6583,-0.6308,-0.5672,-0.43,-0.5288,-0.546,-0.4317,-0.4221,-0.4145,-0.3913,-0.3913,-0.3243,-0.19,-0.19,-0.1278,0.0,0.0,0.0,0.0,0.0,0.0,0.0,0.0,0.0,0.0,0.0,0.0,0.0,0.0202,0.0249,0.044,0.1761,0.2272,0.2372,0.0,0.0,0.0,0.0,0.0,0.0,0.0,0.0,0.0,0.0,0.2445,0.0,0.0,0.0,0.0,0.0,0.0,0.0,0.0,0.0,0.0,-0.2369,-0.2397,-0.2397,-0.2397,-0.2536,-0.2841,-0.3289,-0.3554,-0.3981,-0.4607,-0.4855,-0.5013,-0.5071,-0.5834,-0.6226,-0.6397,-0.6936,-0.7193,-0.7202,-0.7159,-0.7068,-0.6993,-0.6993,0.0,0.0,-0.8593,-0.8677,-0.8684,-0.9606,-1.1203,-1.2933,-1.352,-1.4151,-1.474,-1.5271,-1.4659,-1.3897,-1.4208,-1.3424,-1.2461,-1.2213,-1.1643,-1.1004,-1.0409,-0.8948,0.0,0.0,0.0,-0.5007,-0.4949,-0.5142,0.0,-0.6327,0.0,0.0,0.0,0.0,-0.8346,0.0,0.0,0.0,0.0,0.0,0.0,0.0,0.0,-0.3392,-0.4394,-0.3449,-0.2213,-0.084,-0.0784,-0.0672,-0.0392,-0.0392,-0.028,0.0,0.0,0.0,0.0,0.0,0.0,0.0,0.0,0.0,0.0,0.0,0.0,0.0101,0.121,0.1657,0.1797,0.3147,0.3572,0.3512,0.0,0.0,0.0,0.0,0.0,0.0,0.0,0.0,0.0,0.0,0.4071,0.3386,0.0,0.0,0.0,0.0,0.0,0.0,0.0,0.0,0.0,0.0,-0.1618,-0.1618,-0.1618,-0.2007,-0.2174,-0.2147,0.0,-0.3539,-0.3932,-0.4325,-0.4491,-0.4519,-0.4842,-0.5164,-0.5511,-0.5873,-0.6253,-0.6588,-0.6588,-0.6588,-0.6588,0.0,0.0,0.0,0.0,0.0,-0.7966,-0.8744,-1.0018,-1.1441,-1.2258,-1.2946,-1.3426,-1.367,-1.3397,-1.2826,-1.2455,-1.1802,-1.1096,-1.0348,-0.9591,-0.8887,-0.8313,0.0,0.0,0.0,-0.4924,-0.4491,-0.4491,0.0,0.0,0.0,0.0,0.0,0.0,0.0,0.0,0.0,0.0,0.0,0.0,0.0,0.0,0.0,0.0,-0.1399,-0.2125,-0.1523,-0.0847,0.0,0.0,0.0,0.0,0.0,0.0,0.0,0.0,0.0,0.0,0.0,0.0,0.0,0.0,0.0,0.1058,0.1058,0.146,0.2163,0.2814,0.3065,0.3213,0.4525,0.4978,0.5028,0.0,0.0,0.0,0.0,0.0,0.0,0.0,0.4545,0.4857,0.515,0.5332,0.4899,0.3444,0.2306,0.1588,0.0,0.0,0.0,0.0,0.0,0.0,0.0,0.0,0.0,0.0,0.0,0.0,-0.109,-0.2258,0.0,0.0,0.0,0.0,0.0,-0.4491,-0.4787,-0.53,-0.53,-0.5628,0.0,0.0,-0.6154,0.0,0.0,0.0,0.0,0.0,0.0,-0.717,0.0,-0.8236,-0.8765,-0.9679,-1.0815,-1.1786,-1.1833,-1.1825,-1.1636,-1.0759,-1.0322,-0.9743,-0.865,-0.7773,-0.7027,-0.6443,-0.5698,0.0,0.0,-0.4491,-0.4491,-0.4491,0.0,0.0,0.0,0.0,0.0,0.0,0.0,0.0,0.0,0.0,0.0,0.0,0.0,0.0,0.0,0.0,0.0,0.0,0.0,0.0,0.0,0.0,0.0,0.0,0.0,0.0,0.0,0.0,0.0164,0.0435,0.0423,0.0571,0.0876,0.0863,0.0,0.0,0.2414,0.3065,0.4017,0.4318,0.4418,0.4568,0.5927,0.6415,0.6531,0.0,0.0,0.0,0.0,0.0,0.0,0.0,0.4701,0.5053,0.5494,0.5562,0.5467,0.5186,0.4196,0.3155,0.0,0.0,0.0,0.0,0.0,0.0,0.0,0.0,0.0,0.0,0.0,0.0,-0.109,-0.1229,0.0,0.0,0.0,0.0,0.0,0.0,-0.4546,-0.4601,-0.4601,0.0,0.0,0.0,0.0,0.0,0.0,0.0,0.0,0.0,0.0,0.0,0.0,0.0,-0.5853,-0.6187,-0.8608,-1.1365,-1.1489,0.0,0.0,-1.0957,-0.9969,-0.8843,-0.8676,-0.8004,-0.7207,-0.6463,0.0,0.0,-0.4614,-0.4491,-0.4491,-0.4491,-0.4641,-0.4918,0.0,0.0,-0.5915,0.0,0.0,0.0,0.0,0.0,0.0,0.0,0.0,0.0,0.0,0.0,0.0,0.0,0.0,0.0,0.0,0.0,0.0,0.0,0.0,0.0,0.0,0.0,0.066,0.1812,0.1806,0.2498,0.3626,0.3616,0.0,0.0,0.3817,0.3867,0.4117,0.5322,0.5827,0.5977,0.7335,0.7753,0.7654,0.0,0.0,0.0,0.0,0.0,0.0,0.0,0.4782,0.5114,0.565,0.5718,0.5691,0.563,0.5126,0.4269,0.0,0.0,0.0,0.0,0.0,0.0,0.0,0.0,0.0,0.0,0.0,0.0,-0.0433,-0.0882,0.0,0.0,0.0,0.0,0.0,0.0,-0.4491,-0.4491,-0.4491,0.0,0.0,0.0,0.0,0.0,0.0,0.0,0.0,0.0,0.0,0.0,0.0,0.0,0.0,-0.5016,-0.6348,0.0,0.0,-0.8839,-0.8931,-0.9511,-0.9254,-0.8804,-0.8621,-0.7834,-0.6959,-0.6429,0.0,-0.4894,-0.4559,-0.4491,-0.4518,-0.4614,-0.4721,-0.4748,-0.4534,-0.4591,0.0,0.0,0.0,0.0,0.0,0.0,0.0,0.0,0.0,0.0,0.0,0.0,0.0,0.0,0.0,0.0,0.0,0.0,0.0,0.0,0.0896,0.1343,0.1343,0.2237,0.2927,0.3342,0.3308,0.3558,0.398,0.3984,0.0,0.0,0.5222,0.5672,0.6476,0.698,0.7185,0.7285,0.7789,0.7948,0.7907,0.0,0.0,0.0,0.0,0.0,0.0,0.4646,0.4823,0.5101,0.5603,0.5671,0.5691,0.5732,0.5433,0.4866,0.3938,0.0,0.0,0.0,0.0,0.0,0.0,0.0,0.0,0.0,0.0,0.0,0.0,-0.0523,-0.0896,0.0,0.0,-0.2951,-0.3424,0.0,0.0,0.0,0.0,0.0,0.0,0.0,0.0,0.0,0.0,0.0,0.0,0.0,0.0,0.0,0.0,0.0,0.0,0.0,-0.4887,-0.5501,0.0,-0.7156,-0.7794,-0.8303,-0.8621,-0.8743,-0.8486,-0.7665,-0.6713,0.0,0.0,-0.4316,-0.3912,-0.3821,-0.3856,-0.3932,-0.4088,-0.403,-0.3512,-0.3473,-0.3019,-0.1508,0.0,0.0,0.0,0.0,0.0,0.0,0.0,0.0,0.0,0.0,0.0,0.0,0.0672,0.0672,0.0672,0.0672,0.0838,0.1222,0.2342,0.2834,0.2751,0.3947,0.4574,0.4717,0.4786,0.497,0.5167,0.5199,0.0,0.0,0.6581,0.7135,0.7988,0.7988,0.7988,0.7988,0.7988,0.7988,0.7988,0.0,0.0,0.0,0.0,0.0,0.0,0.0,0.4823,0.5026,0.5358,0.5399,0.5453,0.5576,0.5196,0.4887,0.4887,0.0,0.0,0.0,0.0,0.0,0.0,0.0,0.0,0.0,0.0,0.0,0.0,0.0,-0.0387,-0.1092,-0.1123,-0.1935,-0.3392,0.0,0.0,0.0,0.0,0.0,0.0,0.0,0.0,0.0,0.0,0.0,0.0,0.0,0.0,0.0,0.0,0.0,0.0,0.0,-0.46,-0.4816,-0.5426,-0.6444,-0.7441,-0.774,-0.8147,-0.8452,-0.8361,-0.7597,-0.656,0.0,-0.4326,-0.35,-0.243,-0.223,-0.2226,-0.2213,-0.2377,-0.2513,-0.2528,-0.273,-0.2548,-0.1434,0.0,0.0,0.0,0.0,0.0,0.0,0.0,0.0,0.0,0.0,0.0,0.0,0.218,0.218,0.218,0.218,0.2826,0.414,0.4377,0.4286,0.3981,0.4344,0.5005,0.5999,0.6203,0.6912,0.0,0.0,0.0,0.0,0.7988,0.7988,0.7988,0.7988,0.7988,0.7988,0.7988,0.7988,0.7988,0.0,0.0,0.0,0.0,0.0,0.0,0.0,0.4607,0.4743,0.502,0.506,0.5155,0.544,0.5128,0.4705,0.418,0.0,0.0,0.0,0.0,0.0,0.0,0.0,0.0,0.0,0.0,0.0,0.0,0.0,-0.0104,-0.0376,-0.088,-0.1349,-0.1875,-0.2867,0.0,0.0,0.0,0.0,0.0,0.0,0.0,0.0,0.0,0.0,0.0,0.0,0.0,0.0,0.0,0.0,0.0,0.0,0.0,0.0,-0.3388,-0.4897,-0.6398,-0.622,-0.639,-0.6481,-0.5681,-0.5011,-0.4377,-0.3806,-0.3168,-0.2605,-0.2268,-0.2202,-0.2242,-0.237,-0.2441,-0.2312,-0.1773,-0.1768,-0.1484,0.0,0.0,0.0,0.0,0.0,0.0,0.0,0.0,0.0,0.0,0.0,0.0,0.0,0.3474,0.3545,0.3739,0.3798,0.3956,0.4381,0.5397,0.5873,0.5877,0.6781,0.7428,0.7728,0.7678,0.7763,0.0,0.0,0.0,0.0,0.7988,0.7988,0.7988,0.7988,0.7988,0.7988,0.7988,0.7988,0.7988,0.0,0.0,0.0,0.0,0.0,0.0,0.0,0.4491,0.458,0.4802,0.4782,0.4884,0.5237,0.4958,0.4631,0.4331,0.0,0.0,0.0,0.0,0.0,0.0,0.0,0.0,0.0,0.0,0.0,0.0,0.0,0.0,0.0,0.0,0.0,-0.1125,-0.2071,0.0,0.0,0.0,0.0,0.0,0.0,0.0,-0.3622,0.0,0.0,0.0,0.0,0.0,0.0,0.0,0.0,0.0,0.0,0.0,0.0,0.0,-0.3465,-0.4665,-0.463,-0.4838,-0.4961,-0.4218,-0.365,0.0,0.0,-0.2185,-0.1701,-0.1425,-0.1369,-0.142,-0.1527,-0.1557,-0.1407,-0.0886,-0.0797,-0.0614,0.0,0.0,0.0,0.0,0.0,0.0,0.0,0.0,0.0,0.0,0.0,0.0,0.0,0.4908,0.5194,0.5968,0.5477,0.5406,0.5917,0.6808,0.7214,0.7197,0.8091,0.8425,0.8316,0.8282,0.8187,0.0,0.0,0.0,0.0,0.7988,0.7988,0.7988,0.7988,0.7988,0.7988,0.7988,0.7988,0.7988,0.0,0.0,0.0,0.0,0.0,0.0,0.0,0.0,0.0,0.0,0.458,0.4648,0.5009,0.4721,0.4675,0.0,0.0,0.0,0.0,0.0,0.0,0.0,0.0,0.0,0.0,0.0,0.0,0.0,0.0,0.0,0.0,0.0,0.0,0.0,-0.107,0.0,0.0,0.0,0.0,0.0,0.0,0.0,0.0,0.0,0.0,0.0,0.0,0.0,0.0,0.0,0.0,0.0,0.0,0.0,0.0,0.0,0.0,0.0,0.0,-0.3419,0.0,0.0,0.0,0.0,-0.1857,-0.1342,0.0,-0.014,0.0,0.0,0.0,0.0,0.0,0.0,0.0,0.0,0.0,0.0,0.0,0.0,0.0,0.0,0.0,0.0,0.0,0.0,0.0,0.0,0.0,0.6443,0.7072,0.8399,0.7124,0.7032,0.8289,0.8404,0.8336,0.8022,0.833,0.8309,0.8008,0.8194,0.8174,0.0,0.0,0.0,0.0,0.7988,0.7988,0.7988,0.7988,0.7988,0.7988,0.7988,0.7988,0.7988,0.0,0.0,0.0,0.0,0.0,0.0,0.0,0.0,0.0,0.0,0.0,0.4532,0.4634,0.4655,0.0,0.0,0.0,0.0,0.0,0.0,0.0,0.0,0.0,0.0,0.0,0.0,0.0,0.0,0.0,0.0,0.0,0.0,0.0,0.0,0.0,0.0,0.0,0.0,0.0,0.0,0.0,0.0,0.0,0.0,0.0,0.0,-0.2202,-0.2202,0.0,0.0,0.0,0.0,0.0,0.0,0.0,0.0,-0.0563,-0.0627,-0.0735,0.0,-0.176,-0.1068,-0.0804,-0.0672,0.0,-0.0342,-0.0196,-0.0028,0.0,0.0,0.0,0.0,0.0,0.0,0.0,0.0,0.0,0.0,0.0,0.0,0.0,0.0,0.0,0.0,0.0,0.0,0.0,0.0,0.7801,0.7693,0.7737,0.8096,0.7787,0.7871,0.8431,0.8357,0.8336,0.8377,0.8221,0.8167,0.8214,0.8133,0.8022,0.0,0.0,0.0,0.7988,0.7988,0.7988,0.7988,0.7988,0.7988,0.7988,0.7988,0.7988,0.7988,0.0,0.0,0.0,0.0,0.0,0.0,0.0,0.0,0.0,0.0,0.0,0.0,0.0,0.0,0.0,0.0,0.0,0.0,0.0,0.0,0.0,0.0,0.0,0.0,0.0,0.0,0.0,0.0,0.0,0.0,0.0,0.0,0.0,0.0,0.0,0.0,0.0,0.0,0.0,0.0,-0.1188,0.0,0.0,0.0,0.0,0.0,-0.1202,-0.1202,0.0,-0.1188,-0.0927,-0.0603,0.0,0.0,0.0,0.0,0.0,0.0,0.0,-0.0345,-0.0585,-0.0115,0.0,0.0,0.0,0.0,0.0,0.0,0.0,0.0115,0.052,0.0587,0.0759,0.1256,0.1378,0.0,0.0,0.0,0.0,0.0,0.0,0.0,0.0,0.0,0.0,0.0,0.0,0.8241,0.8167,0.8035,0.7988,0.7988,0.7988,0.8069,0.8275,0.8201,0.8201,0.8275,0.8062,0.8035,0.816,0.8029,0.7988,0.0,0.0,0.0,0.7988,0.7988,0.8386,0.8874,0.8237,0.8726,0.9706,0.9114,0.9312,0.9797,0.0,0.0,0.0,0.0,0.0,0.0,0.0,0.0,0.0,0.0,0.0,0.0,0.0,0.0,0.0,0.0,0.0,0.0,0.0,0.0,0.0,0.0,0.0,0.0,0.0,0.0,0.0,0.0,0.0,0.0,0.0,0.0,0.0,0.0,0.0,0.0,0.0,0.0,0.0,0.0,0.0,0.0,0.0,0.0,0.0,0.0,0.0,0.0,0.0,0.0,0.0,0.0,0.0,0.0,0.0,0.0,0.0,0.0,0.0,0.0116,0.0208,0.0029,0.0,0.0,0.0,0.0,0.0,0.0,0.0,0.0,0.0,0.1529,0.0,0.0,0.0,0.0,0.0,0.0,0.0,0.0,0.0,0.0,0.0,0.0,0.0,0.0,0.0,0.818,0.7995,0.7988,0.7988,0.7988,0.7988,0.7988,0.7988,0.7988,0.7988,0.7988,0.7988,0.7988,0.7988,0.7988,0.7988,0.7988,0.0,0.0,0.7988,0.7988,0.8676,0.9608,0.8676,0.9657,1.1512,1.0632,1.0974,1.195,0.0,0.0,0.0,0.0,0.0,0.0,0.0,0.0,0.0,0.0,0.0,0.0,0.0,0.0,0.0,0.0,0.0,0.0,0.0,0.0,0.0,0.0,0.0,0.0,0.0,0.0,0.0,0.0,0.0,0.0,0.0,0.0,0.0,0.0,0.0,0.0,0.0,0.0,0.0,0.0,0.0,0.0,0.0,0.0,0.0,0.0,0.0,0.0,0.0,0.0,0.0,0.0,0.0,0.0,0.0,0.0,0.0,0.0,0.0,0.0656,0.1121,0.023,0.0,0.0,0.0,0.0,0.0,0.0,0.0,0.0,0.0,0.0,0.0,0.0,0.0,0.0,0.0,0.0,0.0,0.0,0.0,0.0,0.0,0.0,0.0,0.0,0.0,0.0,0.7988,0.7988,0.7988,0.7988,0.7988,0.7988,0.7988,0.7988,0.7988,0.7988,0.7988,0.7988,0.7988,0.7988,0.7988,0.7988,0.0,0.7988,0.7988,0.7988,0.8137,0.8379,0.9312,0.9953,1.0386,1.1268,1.1755,1.2047,0.0,0.0,0.0,0.0,0.0,0.0,0.0,0.0,0.0,0.0,0.0,0.0,0.0,0.0,0.0,0.0,0.0,0.0,0.0,0.0,0.0,0.0,0.0,0.0,0.0,0.0,0.0,0.0,0.0,0.0,0.0,0.0,0.0,0.0,0.0,0.0,0.0,0.0,0.0,0.0,0.0,0.0,0.0,0.0,0.0,0.0,0.0,0.0,0.0,0.0,0.0,0.0058,0.046,0.0,0.0,0.0,0.0,0.0,0.0588,0.1334,0.1986,0.158,0.1577,0.1631,0.1496,0.0,0.0,0.0,0.0,0.0,0.0,0.0,0.0,0.0,0.0,0.0,0.0,0.0,0.0,0.0,0.0,0.0,0.0,0.0,0.0,0.0,0.0,0.0,0.7988,0.7988,0.7988,0.7988,0.7988,0.7988,0.7988,0.7988,0.7988,0.7988,0.7988,0.7988,0.7988,0.7988,0.7988,0.8038,0.0,0.9072,0.9122,0.9797,1.0525,1.1161,1.1072,1.1891,1.3199,1.3788,1.4028,1.4076,0.0,0.0,0.0,0.0,0.0,0.0,0.0,0.0,0.0,0.0,0.0,0.0,0.0,0.0,0.0,0.0,0.0,0.0,0.0,0.0,0.0,0.0,0.0,0.0,0.0,0.0,0.0,0.0,0.0,0.0,0.0,0.0,0.0,0.0,0.0,0.0,0.0,0.0,0.0,0.0,0.0,0.0,0.0,0.0,0.0,0.0,0.0,0.0,0.0,0.0,0.0,0.0,0.0,0.0,0.0,0.1183,0.1369,0.1369,0.1369,0.2079,0.2822,0.2893,0.2927,0.2939,0.0,0.0,0.0,0.0,0.0,0.0,0.0,0.0,0.0,0.0,0.0,0.0,0.0,0.0,0.0,0.0,0.0,0.0,0.0,0.0,0.0,0.0,0.0,0.0,0.7988,0.7988,0.7988,0.7988,0.7988,0.8137,0.8478,0.8393,0.8252,0.7988,0.8336,0.8478,0.8478,0.8775,0.8924,0.8966,0.9993,1.0435,1.0534,1.1512,1.2522,1.3343,1.2668,1.3788,1.5784,1.5784,1.5784,1.5784,0.0,0.0,0.0,0.0,0.0,0.0,0.0,0.0,0.0,0.0,0.0,0.0,0.0,0.0,0.0,0.0,0.0,0.0,0.0,0.0,0.0,0.0,0.0,0.0,0.0,0.0,0.0,0.0,0.0,0.0,0.0,0.0,0.0,0.0,0.0,0.0,0.0,0.0,0.0,0.0,0.0,0.0,0.0,0.0,0.0,0.0,0.0,0.0,0.0,0.0,0.0,0.0,0.0,0.0,0.2041,0.2094,0.2119,0.2119,0.2119,0.2897,0.3691,0.3554,0.3024,0.2713,0.3381,0.3841,0.0,0.4801,0.0,0.0,0.0,0.0,0.0,0.0,0.0,0.0,0.0,0.0,0.0,0.0,0.0,0.0,0.0,0.0,0.0,0.0,0.0,0.0,0.7988,0.7988,0.7988,0.7988,0.7988,0.8577,0.9854,0.9542,0.8911,0.8038,0.9262,0.9854,0.9903,1.1072,1.1609,1.1609,1.1707,1.1755,1.1755,1.1853,1.195,1.2134,1.3295,1.4603,1.5784,1.5784,1.5784,1.5784,0.0,0.0,0.0,0.0,0.0,0.0,0.0,0.0,0.0,0.0,0.0,0.0,0.0,0.0,0.0,0.0,0.0,0.0,0.0,0.0,0.0,0.0,0.0,0.0,0.0,0.0,0.0,0.0,0.0,0.0,0.0,0.0,0.0,0.0,0.0,0.0,0.0,0.0,0.0,0.0,0.0,0.0,0.0,0.0,0.0,0.0,0.0,0.0,0.0,0.0,0.2202,0.2286,0.2785,0.2591,0.2286,0.2758,0.2929,0.2956,0.2956,0.3771,0.4597,0.4541,0.4472,0.4535,0.0,0.5237,0.5575,0.5784,0.6277,0.0,0.0,0.0,0.0,0.0,0.0,0.0,0.0,0.0,0.0,0.0,0.0,0.0,0.0,0.0,0.0,0.0,0.0,0.0,0.0,0.9719,1.0092,0.9931,1.0084,1.0332,1.0679,1.0726,1.0489,0.9931,1.0619,1.0914,1.0972,1.1589,1.1901,1.195,1.2764,1.3151,1.3199,1.398,1.4328,1.4376,1.4902,1.5391,1.5784,1.5784,1.5784,1.5784,0.0,0.0,0.0,0.0,0.0,0.0,0.0,0.0,0.0,0.0,0.0,0.0,0.0,0.0,0.0,0.0,0.0,0.0,0.0,0.0,0.0,0.0,0.0,0.0,0.0,0.0,0.0,0.0,0.0,0.0,0.0,0.0,0.0,0.0,0.0,0.0,0.0,0.0,0.0,0.0,0.1742,0.2053,0.0,0.0,0.0,0.0,0.0,0.0,0.0,0.0,0.2929,0.3012,0.3566,0.3372,0.304,0.3539,0.3705,0.3738,0.3738,0.4335,0.4975,0.5022,0.5359,0.5732,0.6017,0.6247,0.6532,0.6866,0.6987,0.0,0.0,0.0,0.0,0.0,0.0,0.0,0.0,0.0,0.0,0.0,0.0,0.0,0.0,0.0,0.0,0.0,0.0,0.0,0.0,1.0886,1.1285,1.1089,1.1275,1.1471,1.1685,1.1815,1.1957,1.2169,1.2457,1.2425,1.2125,1.28,1.3113,1.3162,1.4124,1.4507,1.4555,1.5439,1.5784,1.5784,1.5784,1.5784,1.5784,1.5784,1.5784,1.5784,0.0,0.0,0.0,0.0,0.0,0.0,0.0,0.0,0.0,0.0,0.0,0.0,0.0,0.0,0.0,0.0,0.0,0.0,0.0,0.0408,0.0,0.0,0.0,0.0,0.0,0.0,0.0,0.0,0.0,0.0,0.0,0.0043,0.0,0.0,0.0,0.0,0.0,0.0,0.0,0.0,0.2759,0.2649,0.0,0.0,0.0,0.0,0.0,0.0,0.0,0.0,0.4491,0.4491,0.4491,0.4491,0.4491,0.4491,0.4491,0.4491,0.4491,0.4607,0.4728,0.4884,0.0,0.0,0.6566,0.6702,0.7,0.8052,0.7835,0.7419,0.7419,0.0,0.0,0.0,0.0,0.0,0.0,0.0,0.0,0.0,0.0,0.0,0.0,0.0,0.0,0.0,0.0,0.0,0.0,1.1125,1.1125,1.1125,1.1125,1.172,1.3006,1.2761,1.3261,1.4522,1.4861,1.4449,1.3496,1.5059,1.5784,1.5784,1.5784,1.5784,1.5784,1.5784,1.5784,1.5784,1.5784,1.5784,1.5784,1.5784,1.5784,1.5784,0.0,0.0,0.0,0.0,0.0,0.0,0.0,0.0,0.0,0.0,0.0,0.0,0.0,0.0,0.0,0.0,0.0,0.0,0.0,0.0396,0.0,0.0,0.0,0.0,0.0,0.0732,0.0775,0.0,0.0744,0.1195,0.0,0.0,0.0,0.2792,0.0,0.0,0.0,0.0,0.0,0.0,0.3735,0.3972,0.0,0.0,0.0,0.0,0.0,0.0,0.0,0.0,0.0,0.0,0.4491,0.4566,0.4627,0.4525,0.4566,0.4648,0.4648,0.4735,0.0,0.5298,0.0,0.0,0.0,0.6889,0.0,0.0,0.757,0.7453,0.0,0.0,0.0,0.0,0.0,0.0,0.0,0.0,0.0,0.0,0.0,0.0,0.0,0.0,0.0,0.0,0.0,0.0,0.0,1.3016,1.3429,1.32,1.3373,1.3561,1.3775,1.3878,1.4013,1.4215,1.4509,1.4625,1.454,1.5193,1.5631,1.5771,1.5618,1.5645,1.5784,1.5784,1.5784,1.5784,1.5784,1.5784,1.5784,1.5784,1.5784,1.5784,0.0,0.0,0.0,0.0,0.0,0.0,0.0,0.0,0.0,0.0,0.376,0.3594,0.0,0.0,0.0,0.0,0.0,0.0,0.0,0.0,0.0202,0.063,0.065,0.0818,0.1226,0.1848,0.1842,0.0,0.0,0.0,0.0,0.0,0.0,0.4033,0.0,0.429,0.0,0.0,0.4364,0.4704,0.4729,0.4898,0.5096,0.0,0.0,0.0,0.0,0.0,0.0,0.0,0.0,0.0,0.4491,0.4552,0.4607,0.4518,0.4552,0.4641,0.4674,0.4891,0.0,0.565,0.6193,0.6736,0.721,0.0,0.0,0.0,0.0,0.0,0.0,0.0,0.0,0.0,0.0,0.0,0.0,0.0,0.0,0.0,0.0,0.0,0.0,0.0,0.0,0.0,0.0,0.0,0.0,1.3698,1.4028,1.4082,1.4148,1.4148,1.4082,1.4255,1.4255,1.4095,1.4389,1.4616,1.4803,1.5097,1.5324,1.5484,1.5418,1.5565,1.5784,1.5784,1.5784,1.5784,1.5784,1.5784,1.5784,1.5784,1.5784,1.5784,0.0,0.0,0.0,0.0,0.0,0.0,0.0,0.0,0.0,0.0,0.2619,0.2202,0.0,0.0,0.0,0.0,0.0,0.0,0.0,0.0,0.056,0.1562,0.1691,0.2234,0.3246,0.0,0.0,0.0,0.0,0.0,0.0,0.0,0.4316,0.5507,0.0,0.5932,0.0,0.6146,0.5874,0.5711,0.5596,0.5372,0.5076,0.5076,0.0,0.0,0.0,0.0,0.0,0.0,0.0,0.0,0.4491,0.4498,0.4505,0.4491,0.4498,0.4545,0.4687,0.5071,0.5515,0.5969,0.6606,0.0,0.771,0.8146,0.8353,0.0,0.0,0.0,0.0,0.0,0.0,0.0,0.0,0.0,0.0,0.0,0.0,0.0,0.0,0.0,0.0,0.0,0.0,0.0,0.0,0.0,0.0,1.3494,1.3467,1.4028,1.3746,1.3746,1.4082,1.4055,1.4041,1.4055,1.4282,1.4402,1.4416,1.4763,1.4968,1.4981,1.5257,1.5551,1.5792,1.5771,1.5784,1.5784,1.5784,1.5784,1.5784,1.5784,1.5784,1.5784,0.0,0.0,0.0,0.0,0.0,0.0,0.0,0.0,0.0,0.0,0.0,0.0,0.0,0.0,0.0,0.0,0.0,0.0,0.0,0.0,0.1181,0.1585,0.2502,0.3482,0.0,0.0,0.0,0.0,0.0,0.0,0.0,0.0,0.0,0.6295,0.0,0.6303,0.5813,0.5631,0.5352,0.5083,0.5164,0.509,0.4935,0.4935,0.483,0.0,0.0,0.0,0.0,0.0,0.0,0.0,0.4491,0.4573,0.4648,0.4525,0.4573,0.4701,0.4965,0.5196,0.0,0.0,0.7115,0.7951,0.9203,0.9583,0.9288,0.0,0.0,0.0,0.0,0.0,0.0,0.0,0.0,0.0,0.0,0.0,0.0,0.0,0.0,0.0,0.0,0.0,0.0,0.0,0.0,0.0,1.34,1.328,1.3373,1.3693,1.364,1.3746,1.4082,1.3854,1.3693,0.0,1.3574,1.3494,1.352,1.4269,1.4616,1.4643,1.5164,1.5431,1.5511,1.5691,1.5784,1.5784,1.5784,1.5784,1.5784,1.5784,1.5784,1.5784,0.0,0.0,0.0,0.0,0.0,0.0,0.0,0.0,0.0,0.0,0.0,0.0,0.0,0.0,0.0,0.0,0.0,0.0,0.0,0.0,0.0,0.0,0.4142,0.4988,0.0,0.0,0.0,0.0,0.0,0.0,0.0,0.0,0.0,0.6518,0.0,0.6329,0.5677,0.5487,0.523,0.4995,0.5069,0.5015,0.4887,0.4887,0.4775,0.46,0.4518,0.0,0.0,0.0,0.0,0.0,0.0,0.0,0.4593,0.4511,0.46,0.4741,0.4935,0.5345,0.0,0.7635,0.0,0.9202,1.0605,1.0925,1.0639,0.0,0.0,0.0,0.0,0.0,0.0,0.0,0.0,0.0,0.0,0.0,0.0,0.0,0.0,0.0,0.0,0.0,0.0,0.0,0.0,1.3053,1.32,1.2933,1.2973,1.3387,1.34,1.3467,1.3667,1.3613,1.3533,1.34,1.328,1.328,1.34,1.3853,1.4213,1.4536,1.4843,1.5057,1.5204,1.5351,1.5498,1.5618,1.5618,1.5712,1.5784,1.5784,1.5784,1.5784,0.0,0.0,0.0,0.0,0.0,0.0,0.0,0.0,0.0,0.0,0.0,0.0,0.0,0.0,0.0,0.0,0.0,0.0,0.0,0.0,0.0,0.0,0.0,0.6146,0.0,0.0,0.0,0.0,0.0,0.0,0.0,0.0,0.0,0.6477,0.0,0.6186,0.5745,0.5481,0.5216,0.5022,0.5022,0.4935,0.4843,0.0,0.0,0.4491,0.4491,0.4491,0.4491,0.4491,0.0,0.0,0.0,0.0,0.4677,0.4677,0.4748,0.4861,0.5051,0.58,0.7032,0.8991,0.9854,0.0,1.193,1.2211,0.0,0.0,0.0,0.0,0.0,0.0,0.0,0.0,0.0,0.0,0.0,0.0,0.0,0.0,0.0,0.0,0.0,0.0,0.0,0.0,0.0,1.2824,1.3039,1.2572,1.2559,1.312,1.3133,1.316,1.3213,1.336,1.336,1.3133,1.308,1.324,1.3533,1.3533,1.3853,1.4442,1.4496,1.4656,1.4941,1.4981,1.5156,1.5324,1.5378,1.5551,1.5765,1.5758,1.5784,1.5784,0.0,0.0,0.0,0.0,0.0,0.0,0.0,0.0,0.0,0.0,0.0056,0.0028,0.0,0.0,0.0,0.0,0.0,0.0,0.0,0.0,0.0,0.0,0.0,0.0,0.0,0.0,0.0,0.0,0.0,0.0,0.0,0.0,0.0,0.6327,0.0,0.0,0.5596,0.5291,0.4999,0.4748,0.4748,0.466,0.4552,0.0,0.0,0.0,0.0,0.4491,0.4491,0.4491,0.4897,0.0,0.0,0.0,0.5382,0.5382,0.5371,0.5461,0.5783,0.0,0.8929,0.0,1.0306,1.1697,0.0,0.0,0.0,0.0,0.0,0.0,0.0,0.0,0.0,0.0,0.0,0.0,0.0,0.0,0.0,0.0,0.0,0.0,0.0,0.0,0.0,0.0,1.2569,1.2385,1.2425,1.2345,1.2452,1.2837,1.2851,1.2971,1.3213,1.3025,1.2891,1.2851,1.2545,1.2719,1.3267,1.3267,1.3587,1.4162,1.4416,1.4549,1.4603,1.4901,1.5035,1.5089,1.5297,1.5418,1.5484,1.5691,1.5784,1.5784,0.0,0.0,0.0,0.0,0.0,0.0,0.0,0.0,0.0,0.0,0.0,0.0168,0.0,0.0,0.0,0.0,0.0,0.0,0.0,0.0,0.0,0.0,0.0,0.0,0.0,0.0,0.0,0.0,0.0,0.0,0.0,0.6259,0.6436,0.0,0.0,0.0,0.0,0.0,0.4809,0.468,0.4627,0.4552,0.0,0.0,0.0,0.0,0.0,0.0,0.0,0.0,0.4704,0.4999,0.5382,0.0,0.0,0.0,0.6202,0.6454,0.7145,0.8106,0.9261,0.0,1.1677,1.2777,1.4365,0.0,0.0,0.0,0.0,0.0,0.0,0.0,0.0,0.0,0.0,0.0,0.0,0.0,0.0,0.0,0.0,0.0,0.0,0.0,0.0,0.0,1.2371,1.2305,1.2305,1.2305,1.2358,1.2529,1.269,1.277,1.2705,1.277,1.2703,1.2529,1.2705,1.2946,1.3227,1.3547,1.3841,1.4095,1.4215,1.4282,1.4295,1.4416,1.4713,1.5022,1.5156,1.5351,1.5658,1.5778,1.5784,1.5784,0.0,0.0,0.0,0.0,0.0,0.0,0.0,0.0,0.0,0.0,0.0,0.0,0.0,0.0,0.0,0.0,0.0,0.0,0.0,0.0,0.0,0.0,0.0,0.0,0.0,0.0,0.0,0.0,0.0,0.0,0.6146,0.6259,0.6539,0.0,0.6295,0.0,0.0,0.0,0.0,0.0,0.0,0.0,0.0,0.0,0.0,0.0,0.0,0.0,0.0,0.0,0.0,0.0,0.0,0.0,0.0,0.0,0.0,0.7279,0.0,0.0,0.9543,1.1306,1.2409,1.339,0.0,0.0,0.0,0.0,0.0,0.0,0.0,0.0,0.0,0.0,0.0,0.0,0.0,0.0,0.0,0.0,0.0,0.0,0.0,0.0,0.0,0.0,1.2345,1.2305,1.2305,1.2305,1.2305,1.2305,1.2556,1.2569,1.2305,1.2556,1.2556,1.2305,1.2759,1.3013,1.3106,1.3627,1.3908,1.3975,1.4055,1.4082,1.4082,1.4082,1.4392,1.4794,1.4874,1.5164,1.5618,1.5698,1.5718,1.5784,0.0,0.0,0.0,0.0,0.0,0.0,0.0,0.0,0.0,0.0,0.0,0.0,0.0,0.0,0.0,0.109,0.0,0.0,0.0,0.0,0.0,0.0,0.0,0.0,0.0,0.0,0.0,0.0,0.0,0.0,0.6484,0.6361,0.6689,0.7364,0.675,0.6163,0.5596,0.0,0.0,0.0,0.0,0.0,0.0,0.0,0.0,0.0,0.0,0.0,0.0,0.0,0.0,0.0,0.0,0.0,0.0,0.0,0.0,0.0,0.0,0.9174,0.0,1.0262,1.1715,0.0,0.0,0.0,0.0,0.0,0.0,0.0,0.0,0.0,0.0,0.0,0.0,0.0,0.0,0.0,0.0,0.0,0.0,0.0,0.0,0.0,0.0,0.0,1.2502,1.2305,1.2305,1.2305,1.2305,1.2305,1.2318,1.2318,1.2305,1.2318,1.2318,1.2305,1.2331,1.2492,1.2824,1.3106,1.34,1.364,1.3961,1.4082,1.4082,1.4082,1.4108,1.4162,1.4429,1.4736,1.5089,1.5324,1.5591,1.5784,0.0,0.0,0.0,0.0,0.0,0.0,0.0,0.0,0.0,0.0,0.0,0.0,0.0,0.0969,0.1499,0.124,0.2466,0.0,0.0,0.0,0.0,0.0,0.0,0.0,0.0,0.0,0.0,0.0,0.0,0.5631,0.6044,0.6091,0.62,0.6363,0.6381,0.6259,0.6027,0.5501,0.0,0.0,0.0,0.0,0.0,0.0,0.0,0.0,0.0,0.0,0.0,0.0,0.0,0.0,0.0,0.0,0.0,0.0,0.0,0.0,0.0,0.0,0.0,1.0779,1.1772,1.2732,1.3172,0.0,0.0,0.0,0.0,0.0,0.0,0.0,0.0,0.0,0.0,0.0,0.0,0.0,0.0,0.0,0.0,0.0,0.0,0.0,0.0,0.0,0.0,1.2305,1.2305,1.2305,1.2305,1.2305,1.2305,1.2305,1.2305,1.2305,1.2305,1.2305,1.2529,1.2677,1.2797,1.3267,1.3507,1.3613,1.3961,1.4082,1.4082,1.4082,1.4202,1.4376,1.4482,1.4816,1.5257,1.5351,1.5578,1.5784,0.0,0.0,0.0,0.0,0.0,0.0,0.0,0.0,0.0,0.0,0.0,0.0,0.0,0.0,0.2443,0.2175,0.3157,0.3922,0.4207,0.4708,0.0,0.0,0.0,0.0,0.0,0.0,0.0,0.0,0.0,0.0,0.0,0.5908,0.5956,0.5962,0.6102,0.6115,0.0,0.0,0.0,0.5751,0.0,0.0,0.7032,0.0,0.0,0.0,0.0,0.0,0.0,0.0,0.0,0.0,0.0,0.0,0.0,0.0,0.0,0.0,0.9285,0.0,0.0,0.0,1.1356,1.1824,1.2248,0.0,0.0,0.0,0.0,0.0,0.0,0.0,0.0,0.0,0.0,0.0,0.0,0.0,0.0,0.0,0.0,0.0,0.0,0.0,0.0,0.0,0.0,0.0,1.2305,1.2305,1.2305,1.2305,1.2305,1.2305,1.2305,1.2305,1.2305,1.2305,1.2543,1.2636,1.265,1.312,1.34,1.3467,1.3814,1.4001,1.4082,1.4082,1.4202,1.4376,1.4376,1.4736,1.5257,1.5257,1.5498,1.5784,0.0,0.0,0.0,0.0,0.0,0.0,0.0,0.0,0.0,0.0,0.0,0.0,0.0,0.0,0.0,0.3794,0.3855,0.4213,0.5065,0.5103,0.0,0.0,0.0,0.0,0.0,0.5284,0.0,0.0,0.0,0.0,0.0,0.0,0.5986,0.6297,0.5965,0.5782,0.5693,0.0,0.6261,0.6916,0.0,0.7428,0.8495,0.0,0.0,0.0,1.003,1.014,0.0,0.0,0.0,0.0,0.0,0.0,0.0,0.0,0.0,0.0,0.0,0.0,0.0,0.0,0.0,0.0,1.1249,0.0,0.0,0.0,0.0,0.0,0.0,0.0,0.0,0.0,0.0,0.0,0.0,0.0,0.0,0.0,0.0,0.0,0.0,0.0,0.0,0.0,1.2502,1.2305,1.2305,1.2305,1.2305,1.2305,1.2305,1.2305,1.2305,1.2305,1.2305,1.2305,1.2305,1.2305,1.2318,1.2663,1.2958,1.3227,1.3493,1.3773,1.4082,1.4082,1.4082,1.4082,1.4082,1.4486,1.5008,1.5008,1.5337,1.5784,0.0,0.0,0.0,0.0,0.0,0.0,0.0,0.0,0.0,0.0,0.0,0.0,0.0,0.0,0.0,0.5025,0.5098,0.5173,0.5304,0.533,0.5351,0.5392,0.5392,0.5378,0.533,0.5371,0.5371,0.533,0.5371,0.544,0.5515,0.5515,0.0,0.0,0.6587,0.6882,0.7301,0.6689,0.0,0.0,0.8418,0.8887,0.0,0.0,0.0,0.0,0.0,1.0755,0.0,0.0,1.0114,0.9764,0.0,0.0,0.0,0.0,0.0,0.0,0.9379,0.0,0.0,0.0,0.0,0.0,1.0394,1.1089,1.1575,0.0,0.0,0.0,0.0,0.0,0.0,0.0,0.0,0.0,0.0,0.0,0.0,0.0,0.0,0.0,0.0,0.0,0.0,0.0,1.2502,1.2305,1.2305,1.2305,1.2305,1.2305,1.2305,1.2305,1.2305,1.2305,1.2305,1.2305,1.2305,1.2305,1.2318,1.2839,1.3133,1.324,1.3748,1.4015,1.4082,1.4082,1.4082,1.4082,1.4082,1.4486,1.5008,1.5008,1.5337,1.5784,0.0,0.0,0.0,0.0,0.0,0.0,0.0,0.0,0.0,0.0,0.0,0.0,0.0,0.0,0.0,0.5636,0.5623,0.5549,0.5494,0.5433,0.5392,0.5392,0.5392,0.5392,0.5392,0.5392,0.5392,0.5392,0.5392,0.5591,0.5947,0.5947,0.0,0.0,0.0,0.0,0.0,0.0,0.0,0.0,0.9165,0.0,0.0,1.0784,1.1182,0.0,0.0,0.0,1.1463,1.0948,1.0461,0.0,0.0,0.0,0.0,0.0,0.0,0.0,0.0,0.0,0.0,0.0,0.0,0.0,1.0234,1.0795,1.1169,0.0,0.0,0.0,0.0,0.0,0.0,0.0,0.0,0.0,0.0,0.0,0.0,0.0,0.0,0.0,0.0,1.3066,1.3026,1.2636,1.2398,1.2305,1.2305,1.2305,1.2305,1.2305,1.2305,1.2305,1.2305,1.2305,1.2489,1.2879,1.2489,1.2732,1.3499,1.3168,1.3314,1.3805,1.3858,1.3975,1.4082,1.4082,1.4082,1.4095,1.4215,1.4549,1.5022,1.5142,1.5431,1.5784,0.0,0.0,0.0,0.0,0.0,0.0,0.0,0.0,0.0,0.0,0.0,0.0,0.0,0.0,0.0,0.0,0.5705,0.561,0.5596,0.5481,0.0,0.0,0.5392,0.5392,0.5392,0.5392,0.5458,0.5557,0.5557,0.598,0.685,0.685,0.7307,0.0,0.0,0.0,0.0,0.0,0.0,0.9476,0.9476,1.0271,0.0,0.0,1.177,0.0,1.1931,1.2024,1.2171,1.1329,1.0648,0.0,0.0,0.0,0.0,0.0,0.9726,0.0,0.0,0.0,0.0,0.0,0.0,0.0,1.0479,1.0774,1.0908,1.064,0.0,0.0,0.0,0.0,0.0,0.0,0.0,0.0,0.0,0.0,0.0,0.0,0.0,0.0,1.2398,1.2839,1.2933,1.2398,1.2318,1.2305,1.2305,1.2305,1.2342,1.2439,1.2452,1.2512,1.2622,1.2512,1.2879,1.3702,1.2732,1.3193,1.4816,1.3523,1.3509,1.4443,1.4099,1.409,1.4292,1.4419,1.4306,1.4162,1.4416,1.4723,1.5089,1.5297,1.5578,1.5784,0.0,0.0,0.0,0.0,0.0,0.0,0.0,0.0,0.0,0.0,0.0,0.0,0.0,0.0,0.0,0.0,0.0,0.5725,0.0,0.0,0.5392,0.5392,0.5392,0.5392,0.5392,0.5392,0.5749,0.6465,0.6465,0.6883,0.773,0.773,0.8226,0.9043,0.0,0.0,0.0,0.0,0.0,1.0673,1.0673,0.0,1.1389,1.1389,1.165,1.1953,1.1623,1.185,1.2198,0.0,1.0955,1.0452,0.0,0.0,0.0,0.0,0.0,0.0,0.0,0.0,0.0,0.0,0.0,0.0,1.0194,1.0466,1.0667,0.0,0.0,0.0,0.0,0.0,0.0,0.0,0.0,0.0,0.0,0.0,0.0,0.0,0.0,0.0,1.2703,1.2811,1.2824,1.2703,1.2438,1.2305,1.2305,1.2305,1.2659,1.339,1.3426,1.381,1.4621,1.3846,1.3535,1.3702,1.2732,1.2512,1.2893,1.3612,1.3753,1.3569,1.5345,1.5827,1.5462,1.6314,1.5792,1.4442,1.4496,1.4843,1.5324,1.5378,1.5578,1.5784,0.0,0.0,0.0,0.0,0.0,0.0,0.0,0.0,0.0,0.0,0.0,0.0,0.0,0.0,0.0,0.0,0.0,0.0,0.0,0.0,0.0,0.5617,0.5617,0.5817,0.6325,0.6214,0.6597,0.7555,0.7419,0.7795,0.8646,0.8646,0.9107,0.9951,0.0,0.0,0.0,0.0,1.076,1.0995,1.0995,0.0,1.165,1.165,1.1824,1.2064,1.1917,1.1864,1.1837,1.1703,1.1189,0.0,0.0,1.0265,1.0184,0.0,1.0341,1.0399,0.0,0.0,0.0,1.0341,0.0,0.0,0.0,1.0479,1.0626,1.0774,1.0693,0.0,0.0,0.0,0.0,0.0,0.0,0.0,0.0,0.0,0.0,0.0,0.0,0.0,1.2556,1.269,1.2717,1.2569,1.2815,1.2989,1.2989,1.3484,1.3738,1.3702,1.4207,1.4458,1.4458,1.4458,1.4692,1.5155,1.4398,1.4434,1.5136,1.5429,1.5519,1.5489,1.6546,1.679,1.6576,1.7327,1.7159,1.6443,1.6443,1.6786,1.7251,1.7401,1.752,1.7669,0.0,0.0,0.0,0.0,0.0,0.0,0.0,0.0,0.0,0.0,0.0,0.0,0.0,0.0,0.0,0.0,0.0,0.0,0.0,0.0,0.0,0.0,0.5986,0.6472,0.7283,0.7268,0.7719,0.8661,0.8438,0.8754,0.9556,0.9556,0.9919,0.0,0.0,0.0,0.0,0.0,0.0,1.1156,0.0,1.1484,1.1913,1.1966,1.2091,1.2305,1.2305,1.1957,1.1543,1.1819,0.0,1.0841,1.0774,1.072,0.0,0.0,0.0,0.0,0.0,0.0,0.0,0.0,0.0,1.0747,0.0,0.0,0.0,1.0875,0.0,0.0,0.0,0.0,0.0,0.0,0.0,0.0,0.0,0.0,0.0,0.0,0.0,0.0,0.0,1.2706,1.2934,1.2856,1.3557,1.3991,1.3991,1.478,1.4906,1.4279,1.5048,1.5188,1.466,1.527,1.5981,1.6719,1.6163,1.6488,1.7559,1.7226,1.7252,1.7552,1.7721,1.7711,1.7691,1.835,1.881,1.9025,1.8662,1.8781,1.919,1.9426,1.9497,1.9497,0.0,0.0,0.0,0.0,0.0,0.0,0.0,0.0,0.0,0.0,0.0,0.0,0.0,0.0,0.0,0.0,0.0,0.0,0.6272,0.0,0.0,0.0,0.0,0.0,0.7283,0.8138,0.8896,0.9544,0.952,0.9819,1.046,1.046,1.0491,0.0,1.0586,0.0,0.0,0.0,1.1263,0.0,1.1806,1.1846,0.0,1.2158,1.2278,1.2305,1.2305,1.2091,1.1859,0.0,1.1832,1.1712,0.0,1.1156,0.0,0.0,0.0,0.0,0.0,0.0,0.0,0.0,1.1295,0.0,0.0,0.0,1.0908,1.068,0.0,0.0,0.0,0.0,0.0,0.0,0.0,0.0,0.0,0.0,0.0,0.0,0.0,0.0,0.0,1.309,1.3964,1.4816,1.4994,1.5029,1.5029,1.5136,1.5544,1.6245,1.6384,1.6948,1.8043,1.7332,1.7045,1.7117,1.6593,1.6241,1.6088,1.7271,1.7509,1.7113,1.884,1.9293,1.8913,2.0276,2.1118,2.1355,1.9661,1.9206,1.9476,1.948,1.9497,1.9497,0.0794,0.0918,0.0,0.0,0.0,0.0,0.0,0.0,0.0,0.0,0.0,0.0,0.0,0.0,0.0,0.0,0.0,0.7075,0.0,0.0,0.0,0.0,0.0,0.0,0.0,0.9674,1.0161,1.0972,1.0619,1.0568,1.0841,1.0667,1.068,0.0,1.0841,0.0,1.1249,0.0,0.0,0.0,0.0,0.0,0.0,1.2251,1.2305,1.2305,1.2305,1.2118,1.1899,0.0,1.1757,0.0,0.0,0.0,0.0,0.0,0.0,0.0,0.0,0.0,0.0,0.0,0.0,0.0,0.0,0.0,1.2288,0.0,0.0,0.0,0.0,0.0,0.0,0.0,1.3538,0.0,0.0,0.0,0.0,0.0,0.0,0.0,0.0,0.0,0.0,0.0,1.5685,1.6,1.6,1.6541,1.6749,1.6593,1.7372,1.7772,1.7799,1.8222,1.8427,1.8427,1.8434,1.8229,1.7862,1.8977,1.9164,1.8725,2.0062,2.0391,2.0038,2.1378,2.1934,2.187,2.1547,2.1485,2.1587,2.1587,2.1587,2.1587,0.0,0.0,0.0,0.0,0.0,0.0,0.0,0.0,0.0,0.0,0.0,0.0,0.8143,0.8251,0.0,0.0,0.0,0.7828,0.0,0.0,0.745,0.0,0.0,0.0,0.0,0.0,1.1324,1.1899,1.1471,1.1196,1.1102,1.0854,1.0835,1.1116,0.0,1.1276,1.1557,0.0,0.0,1.202,1.202,1.2118,1.2305,1.2305,1.2305,1.2305,1.2305,1.2171,1.202,1.202,1.185,0.0,1.1663,0.0,0.0,0.0,0.0,0.0,1.1263,0.0,0.0,0.0,0.0,0.0,0.0,0.0,0.0,0.0,0.0,0.0,0.0,0.0,0.0,0.0,0.0,0.0,0.0,0.0,0.0,0.0,0.0,0.0,0.0,0.0,0.0,0.0,0.0,1.688,1.6991,1.7647,1.7739,1.7158,1.8107,1.8395,1.7953,1.8968,1.9453,1.9473,1.9883,1.9863,1.9473,2.0273,2.0391,2.0137,2.0781,2.0859,2.0703,2.1855,2.2168,2.1973,2.2812,2.3101,2.3101,2.3101,2.3101,2.3101,0.2652,0.2267,0.0,0.0,0.0,0.0,0.0,0.0,0.0,0.0,0.0,0.0,0.0,0.0,0.0,0.0,0.0,0.8299,0.8272,0.0,0.823,0.0,0.0,0.0,0.0,0.0,0.0,0.0,1.1886,1.169,1.1375,1.1116,1.1129,1.1375,1.1375,1.1583,1.1913,1.2158,1.2278,1.2291,1.2291,1.2291,1.2305,0.0,1.2305,1.2305,1.2305,0.0,0.0,1.2291,1.2278,0.0,0.0,0.0,0.0,0.0,0.0,0.0,0.0,0.0,0.0,1.2211,0.0,0.0,0.0,0.0,1.3362,0.0,0.0,0.0,0.0,0.0,0.0,0.0,0.0,0.0,0.0,0.0,0.0,0.0,0.0,0.0,0.0,0.0,0.0,0.0,0.0,0.0,1.792,1.7974,1.8149,1.8523,1.8598,1.8987,1.9826,1.9845,1.9883,1.9902,2.0332,2.0312,1.9902,2.039,2.0605,2.0586,2.0625,2.0625,2.0664,2.1543,2.1894,2.1973,2.2812,2.3101,2.3101,2.3101,2.3101,2.3101,0.0,0.0,0.0,0.0,0.0,0.0,0.0,0.7122,0.0,0.0,0.0,0.0,0.0,0.0,1.0032,0.0,0.0,0.8899,0.8438,0.9055,0.0,0.0,0.0,1.2416,0.0,0.0,0.0,0.0,0.0,1.1859,1.1717,1.1423,1.1436,1.1717,0.0,1.1877,0.0,0.0,0.0,0.0,0.0,1.2545,1.2852,0.0,0.0,1.2305,1.2305,1.2305,0.0,1.2305,1.2305,1.2305,1.2305,1.2238,1.2118,1.1966,1.1931,0.0,0.0,0.0,1.2516,1.261,0.0,0.0,0.0,0.0,0.0,0.0,0.0,0.0,0.0,0.0,0.0,0.0,0.0,0.0,0.0,0.0,0.0,0.0,0.0,0.0,0.0,0.0,0.0,0.0,1.7461,0.0,1.7988,1.8008,1.8169,1.8598,1.8906,1.9336,1.9902,2.0195,2.0352,2.039,2.0527,2.0527,2.0352,2.0546,2.0762,2.1016,2.1309,2.1486,2.1504,2.2363,2.2559,2.2363,2.2867,2.3101,2.3101,2.3101,2.3101,2.314,0.2817,0.0,0.0,0.0,0.0,0.0,0.0,0.0,0.0,0.0,0.8662,0.0,0.9849,0.0,1.0561,0.0,1.0347,1.0324,0.9433,1.0983,0.0,1.1957,1.3019,0.0,0.0,0.0,0.0,0.0,0.0,1.2238,1.206,1.1717,1.1744,1.2024,0.0,1.2131,1.2305,0.0,1.2398,0.0,0.0,1.2759,0.0,0.0,1.2625,1.2612,0.0,1.2502,1.2478,1.2585,1.2545,1.2502,1.2502,1.2502,1.2462,1.2275,1.2398,1.2625,1.2625,1.2772,0.0,1.2945,1.3881,0.0,1.5025,0.0,0.0,0.0,0.0,0.0,0.0,0.0,0.0,0.0,0.0,0.0,0.0,1.6843,0.0,0.0,0.0,0.0,0.0,0.0,0.0,1.7578,1.7324,1.7402,0.0,0.0,1.8281,1.8812,1.9141,1.957,2.0137,2.0468,2.0605,2.0605,2.0605,2.0605,2.0605,2.0605,2.082,2.121,2.1523,2.1738,2.1934,2.2637,2.2711,2.2559,2.2925,2.3101,2.3101,2.3101,2.3198,2.3418,0.0,0.0,0.0,0.0,0.5958,0.0,0.0,0.0,0.8357,0.0,0.9422,1.0317,1.0195,1.0736,1.0946,1.0472,1.2043,0.0,1.1181,1.3802,0.0,0.0,1.4667,1.5057,1.4188,0.0,0.0,0.0,0.0,0.0,1.2318,1.206,1.2074,1.2305,1.2305,0.0,1.2318,1.2663,1.2623,1.2371,1.269,1.2998,1.3253,1.3227,1.3227,1.3213,1.2918,1.2811,1.2851,1.3106,1.3013,1.2811,1.2811,1.2811,1.2811,1.2811,1.3012,1.3213,1.3227,1.3266,1.3306,1.3306,0.0,0.0,0.0,0.0,1.8463,0.0,0.0,0.0,0.0,0.0,0.0,0.0,0.0,0.0,0.0,0.0,0.0,0.0,0.0,0.0,0.0,0.0,1.7077,1.791,1.7194,1.7096,0.0,0.0,1.8398,1.9258,1.9297,1.9744,2.0605,2.0605,2.0605,2.0605,2.0605,2.0625,2.0644,2.0644,2.0859,2.1249,2.1249,2.1543,2.1973,2.2383,2.2539,2.2578,2.2945,2.3101,2.312,2.312,2.3437,2.3828,0.5022,0.6123,0.69,0.0,0.6665,0.695,0.0,0.0,0.0,0.0,0.9347,0.9998,1.0914,1.2409,1.3161,1.2556,1.4007,0.0,0.0,0.0,0.0,1.4871,1.5794,1.6059,1.5391,1.4816,0.0,1.3789,0.0,0.0,1.2663,1.2368,1.2225,1.2305,0.0,0.0,1.2318,1.2663,1.2878,1.2986,1.3053,1.34,0.0,0.0,1.348,1.3801,1.328,1.3093,1.3106,1.3186,1.316,1.3093,1.3093,1.3093,1.3093,1.3093,1.3146,1.3253,1.3427,1.4112,1.4739,1.4739,1.6341,1.7787,0.0,0.0,0.0,0.0,0.0,0.0,0.0,0.0,0.0,0.0,0.0,0.0,0.0,0.0,0.0,0.0,0.0,0.0,0.0,0.0,1.7305,1.7519,1.7344,1.7441,1.7988,0.0,0.0,1.9258,1.9297,1.9744,2.0605,2.0605,2.0605,2.0605,2.0605,2.0781,2.1055,2.1055,2.1465,2.2187,2.2187,2.2379,2.2789,2.2886,2.2945,2.2945,2.3062,2.3296,2.3633,2.3633,2.3887,2.4297,0.5866,0.0,0.0,0.7361,0.0,0.0,0.7611,0.0,0.0,0.8629,0.9598,0.0,1.0995,1.2775,1.3739,1.3333,1.5545,0.0,0.0,0.0,0.0,1.6389,1.6951,1.6887,1.6046,1.5418,0.0,1.3895,0.0,0.0,1.2583,1.2385,1.2305,1.2305,0.0,1.2371,0.0,1.2864,1.312,1.336,1.336,0.0,0.0,1.3721,1.3801,1.4041,1.3707,1.3507,1.3387,1.3547,1.3507,1.336,1.336,1.336,1.336,1.336,1.3494,1.3627,1.3788,1.4283,1.4803,1.4803,1.654,1.8157,1.7722,1.9195,2.0468,0.0,0.0,0.0,0.0,0.0,0.0,0.0,0.0,0.0,0.0,0.0,0.0,0.0,0.0,0.0,0.0,1.75,1.7461,1.7637,1.7656,1.7754,0.0,0.0,0.0,1.9258,1.9473,1.9883,2.0605,2.0997,2.1094,2.0859,2.1055,2.1269,2.1523,2.1523,2.1875,2.2519,2.2519,2.2711,2.3101,2.3101,2.3101,2.3101,2.3101,2.3471,2.4062,2.4062,2.4336,2.4727,0.0,0.0,0.0,0.0,0.0,0.0,0.0,0.8669,0.0,0.811,0.0,1.0846,1.0731,1.2155,1.3303,1.3792,0.0,1.8414,1.7327,1.9095,1.9479,1.7769,1.7862,1.7448,1.6402,1.5925,0.0,0.0,0.0,0.0,1.2358,1.2318,1.2305,1.2305,0.0,0.0,0.0,1.3093,1.336,1.3666,1.3666,1.3854,1.4082,1.4082,1.4082,1.4082,1.4082,1.3921,1.3693,1.4001,1.3921,1.3666,1.3666,1.3666,1.3666,1.3666,1.3881,1.4082,1.4082,1.4292,1.4531,1.4531,1.6124,1.7738,1.7738,1.9234,2.0605,2.0605,2.0273,2.0,0.0,0.0,0.0,0.0,0.0,0.0,0.0,0.0,0.0,0.0,0.0,0.0,0.0,0.0,1.7676,1.7988,1.8008,1.8008,0.0,0.0,0.0,1.9277,1.9687,2.0156,2.0683,0.0,2.1641,2.1288,2.1699,2.1914,2.1973,2.1973,2.2207,2.2598,2.2598,2.2769,2.3101,2.3101,2.3101,2.3101,2.3159,2.3666,2.4414,2.4473,2.4785,2.5156,0.0,0.0,0.0,0.0,0.0,0.7921,0.7934,0.9336,0.9876,0.8204,0.8325,0.9094,1.0568,1.1003,1.2708,1.6496,1.9152,0.0,0.0,0.0,0.0,1.8384,1.7903,1.7341,1.6647,1.5631,1.487,0.0,0.0,0.0,1.2703,1.2412,1.2305,1.2305,0.0,0.0,1.3133,1.3186,0.0,1.4015,1.4015,1.4041,1.4082,1.4082,1.4082,1.4082,1.4082,1.4055,1.4015,1.4068,1.4055,1.4015,1.4015,1.4015,1.4015,1.4015,1.4041,1.4082,1.4082,1.5394,1.6723,1.6723,1.8381,2.004,2.004,2.0313,2.0605,2.0605,2.0546,2.0488,2.0488,0.0,0.0,0.0,0.0,0.0,0.0,0.0,0.0,0.0,0.0,0.0,0.0,0.0,0.0,0.0,0.0,0.0,0.0,0.0,0.0,0.0,1.9687,0.0,0.0,0.0,2.1484,2.1777,2.1855,2.207,2.2402,2.2402,2.2637,2.2984,2.2984,2.3023,2.3101,2.3101,2.3101,2.314,2.3535,2.3984,2.4453,2.4824,2.5234,2.5577,0.0,0.0,0.0,0.0,0.0,0.0,0.0,1.0161,0.0,0.9544,0.9429,0.9761,1.0622,1.2281,1.4549,1.7334,1.9562,2.0641,2.0254,2.0094,1.9626,1.8758,1.829,0.0,1.7005,1.5939,1.5044,1.4295,0.0,0.0,0.0,0.0,0.0,1.2318,0.0,1.2933,0.0,0.0,0.0,1.4082,1.4082,1.4082,1.4082,1.4082,1.4082,1.4082,1.4082,1.4082,1.4082,1.4082,1.4082,1.4082,1.4082,1.4082,1.4082,1.4082,1.4082,1.4082,1.4082,1.5269,1.6525,1.6739,1.8279,1.9822,2.0029,2.0502,2.0918,2.0918,2.1094,2.1191,2.0957,2.0918,0.0,0.0,0.0,0.0,0.0,0.0,0.0,0.0,0.0,0.0,0.0,0.0,0.0,0.0,0.0,0.0,0.0,0.0,0.0,0.0,0.0,0.0,0.0,0.0,0.0,2.2207,2.2441,2.2594,2.2789,2.2789,2.2906,2.3101,2.3101,2.3101,2.312,2.3379,2.3477,2.3516,2.3945,2.4375,2.4785,2.5047,2.5352,2.5693,0.0,0.8137,0.0,0.0,0.8696,0.0,1.0751,1.0907,1.0867,1.0738,1.2025,1.2931,1.2931,1.5329,1.7301,1.8082,1.9548,2.0313,2.0147,1.992,1.9506,1.8865,1.849,1.7903,1.7125,1.6126,1.5164,0.0,0.0,0.0,0.0,0.0,0.0,0.0,0.0,0.0,0.0,0.0,1.4028,1.4082,1.4082,1.4082,1.4082,1.4082,1.4082,1.4082,1.4082,1.4082,1.4082,1.4082,1.4082,1.4082,1.4082,1.4082,1.4082,1.4082,1.4082,1.4124,1.4377,1.5213,1.6185,1.6844,1.8223,1.9552,1.9997,2.074,2.1327,2.1327,2.1641,2.1777,2.1445,2.166,0.0,0.0,0.0,0.0,0.0,0.0,0.0,0.0,0.0,0.0,0.0,0.0,0.0,0.0,0.0,0.0,0.0,0.0,0.0,0.0,0.0,2.0918,2.1327,0.0,2.2559,2.2656,2.2945,2.3101,2.3101,2.3101,2.3101,2.3101,2.3198,2.3276,2.3393,2.3789,2.3926,2.3965,2.4394,2.4766,2.5145,2.5321,2.5566,2.5849,0.0,0.0,0.0,0.0,0.0,0.0,1.1436,1.1538,1.1341,1.0792,1.6172,2.0132,2.0132,2.0386,2.0443,1.9981,2.0098,2.0134,1.9853,1.9813,1.9426,1.8571,1.7969,1.7382,1.6767,1.5631,1.4856,0.0,0.0,0.0,0.0,0.0,0.0,0.0,0.0,0.0,0.0,1.3626,1.3841,1.4082,1.4082,1.4082,1.4082,1.4082,1.4082,1.4082,1.4082,1.4082,1.4082,1.4082,1.4082,1.4082,1.4082,1.4082,1.4082,1.4082,1.4082,1.4334,1.5296,1.6314,1.7498,1.8936,2.0145,2.1128,2.1595,2.1775,2.1816,2.1816,2.1855,2.1875,2.1836,2.1855,2.1855,0.0,0.0,0.0,0.0,0.0,0.0,0.0,0.0,0.0,0.0,1.8848,0.0,0.0,0.0,0.0,0.0,0.0,0.0,1.9297,0.0,2.1387,2.1816,2.2285,2.2652,2.3042,2.3081,2.3101,2.3101,2.3101,2.3101,2.312,2.3555,2.3945,2.4297,2.4336,2.4355,2.4394,2.4844,2.5086,2.5223,2.5977,2.6289,2.6387,0.0,0.0,0.0,0.0,0.0,0.0,0.0,1.1077,1.0995,1.0751,1.6754,2.1109,2.1109,2.1109,2.1015,2.0775,2.012,1.976,1.988,1.9666,1.9305,1.8771,1.8183,1.7582,1.6981,1.5992,1.5164,0.0,0.0,0.0,0.0,0.0,0.0,0.0,0.0,1.3707,1.3626,1.3973,1.4135,1.4082,1.4082,1.4082,1.4082,1.4082,1.4202,1.4349,1.4349,1.4456,1.466,1.466,1.4376,1.4082,1.4082,1.4202,1.4349,1.4349,1.4469,1.4909,1.6036,1.7132,1.8372,1.9978,2.1033,2.1738,2.2168,2.2266,2.2266,2.2266,2.2461,2.2559,2.2305,2.2461,2.248,0.0,0.0,0.0,0.0,0.0,0.0,0.0,0.0,0.0,0.0,0.0,0.0,0.0,0.0,0.0,0.0,0.0,0.0,2.0077,0.0,2.1522,2.2246,2.2422,2.2672,2.3101,2.3101,2.3101,2.3101,2.3418,2.3672,2.3881,2.4082,2.4258,2.4434,2.4707,2.4961,2.5187,2.541,2.5781,2.625,2.6348,2.6543,2.6777,0.9245,0.0,1.0717,0.0,1.0717,1.1372,1.3456,1.2025,1.1439,1.3521,1.8052,2.1109,2.1109,2.1109,2.1042,2.0869,1.9947,1.9479,1.976,1.9439,1.9105,1.8811,1.8169,0.0,1.7085,1.6233,1.5438,1.4776,1.4402,0.0,0.0,0.0,0.0,0.0,1.4122,1.4229,1.4055,1.4469,1.4536,1.4349,1.4349,1.4349,1.4349,1.4349,1.4469,1.4656,1.4656,1.479,1.5008,1.5008,1.474,1.4349,1.4349,1.4482,1.4656,1.4656,1.4803,1.5308,1.6858,1.7802,1.8895,2.0893,2.1759,2.2187,2.2555,2.2695,2.2695,2.2695,2.2886,2.3003,2.2711,2.2906,2.2906,2.2363,0.0,0.0,0.0,0.0,0.0,0.0,0.0,1.998,1.9687,0.0,0.0,0.0,0.0,0.0,0.0,0.0,0.0,0.0,0.0,0.0,0.0,2.2637,2.2808,2.3101,2.3218,2.332,2.3296,2.3769,2.4199,2.4609,2.4609,2.4746,2.5019,2.5332,2.5723,2.6064,2.6064,2.6484,2.6992,2.6836,2.6953,2.7226,0.8999,0.9903,1.0717,1.0717,1.0717,1.2997,1.9941,1.5135,1.3193,2.0068,2.1046,2.1109,2.1109,2.1109,2.0882,2.0233,1.9706,1.943,1.943,1.9092,1.8798,0.0,0.0,1.7315,1.6727,1.6126,1.5685,1.5391,0.0,0.0,1.4082,0.0,1.4229,1.4522,1.4816,1.4995,1.4995,1.4995,1.4995,1.4995,1.4995,1.4995,1.4995,1.4995,1.4995,1.5008,1.5008,1.5008,1.5008,1.5008,1.5008,1.4995,1.4995,1.4995,1.5008,1.5008,1.5008,1.5486,1.7775,1.8364,1.9067,2.1788,2.2519,2.2617,2.2984,2.3081,2.3081,2.3081,2.3081,2.3101,2.3081,2.3081,2.3081,2.3081,0.0,0.0,0.0,0.0,0.0,0.0,2.082,2.0586,2.0586,0.0,0.0,0.0,0.0,0.0,0.0,0.0,0.0,2.0605,2.1816,0.0,2.2519,2.2886,2.3081,2.3101,2.3574,2.3789,2.3789,2.4219,2.4648,2.5106,2.5106,2.5595,2.6367,2.6367,2.6621,2.6992,2.6992,2.7012,2.707,2.75,2.7708,2.7767,1.0188,1.046,1.0717,1.0717,1.0717,1.1439,1.3643,1.2157,1.3193,2.0195,2.1109,2.1109,2.1109,2.1109,2.0708,0.0,1.9479,1.943,0.0,1.9279,1.9011,1.8517,1.8183,1.7595,1.6727,1.6326,1.5899,1.5391,0.0,0.0,0.0,1.4727,1.478,1.483,1.5124,1.515,1.5022,1.5223,1.5196,1.5008,1.5008,1.5008,1.5008,1.5008,1.5129,1.5257,1.5257,1.5391,1.5551,1.5551,1.5551,1.5551,1.5551,1.5418,1.5257,1.5257,1.6035,1.7187,1.8746,1.9775,2.0783,2.25,2.2906,2.2925,2.3062,2.3101,2.3101,2.3101,2.3101,2.3101,2.3101,2.3101,2.3101,2.3101,2.3101,0.0,0.0,0.0,0.0,0.0,2.1543,2.1505,0.0,2.1348,0.0,0.0,0.0,0.0,0.0,0.0,0.0,0.0,2.2305,0.0,2.3379,2.3516,2.373,2.4004,2.416,2.4375,2.4715,2.4805,2.5098,2.5547,2.584,2.6133,2.6406,2.6699,2.707,2.7422,2.7129,2.7363,2.7871,2.7767,2.7851,2.8105,1.0717,1.0717,1.0717,1.0717,1.0717,1.1563,1.4232,1.4623,1.6172,2.0526,2.1109,2.1109,2.1109,2.1109,0.0,1.9524,1.943,1.943,1.943,1.9265,1.8985,1.8517,1.8263,1.7742,1.6887,1.658,0.0,1.5725,1.5511,1.5244,1.5008,1.5115,1.5169,1.5137,1.5431,1.5458,1.5297,1.5484,1.5458,1.5284,1.5284,1.5284,1.5284,1.5284,1.5404,1.5565,1.5565,1.5671,1.5784,1.5784,1.5784,1.5784,1.5784,1.5712,1.5565,1.5565,1.656,1.7963,1.9177,2.0387,2.1569,2.2818,2.3101,2.3101,2.3101,2.3101,2.3101,2.3101,2.3101,2.3101,2.3101,2.3101,2.3101,2.3101,2.3101,2.3003,2.275,0.0,0.0,0.0,0.0,0.0,0.0,2.1894,2.1894,0.0,0.0,0.0,0.0,0.0,0.0,2.248,2.2832,0.0,2.3789,2.3945,2.416,2.4414,2.459,2.4883,2.5332,2.5488,2.5723,2.5996,2.6426,2.6719,2.6894,2.7148,2.7519,2.7871,2.7598,2.7812,2.8262,2.7988,2.8164,2.8535,1.0717,1.0717,1.0717,0.0,1.1108,0.0,2.0132,2.1109,2.1109,2.1109,2.1109,2.1109,2.1109,2.1109,2.0655,1.9533,0.0,0.0,0.0,1.9105,1.8811,1.8504,1.8223,1.7782,1.7219,1.6901,1.662,1.6348,1.5738,1.5324,1.5102,1.5311,1.5431,1.5444,1.5712,1.5784,1.5784,1.5784,1.5784,1.5784,1.5784,1.5784,1.5784,1.5784,1.5784,1.5784,1.5784,1.5784,1.5784,1.5784,1.5784,1.5784,1.5784,1.5784,1.5784,1.5784,1.6763,1.8041,1.9177,2.0432,2.1702,2.2818,2.3101,2.3101,2.3101,2.3101,2.3101,2.3101,2.3101,2.3101,2.3101,2.3101,2.3101,2.3101,2.3101,2.3101,2.3101,0.0,0.0,0.0,0.0,0.0,0.0,2.1973,2.1953,0.0,0.0,0.0,0.0,0.0,2.2598,2.2598,2.3398,2.3867,2.3926,2.4316,2.4531,2.4609,2.498,2.5391,2.5791,2.625,2.6426,2.6465,2.6875,2.7285,2.7728,2.7748,2.793,2.8301,2.8301,2.832,2.834,2.834,2.8594,2.8965,0.0,0.0,1.0717,1.0717,1.507,1.9215,2.0856,2.1109,2.1109,2.1109,2.1109,2.1109,2.1109,2.1109,2.0815,2.0094,1.9893,1.9679,1.9444,1.9305,1.9025,1.8517,1.8424,1.7996,1.7219,1.7301,1.7128,1.6607,1.6246,1.6032,1.6013,1.5805,1.5725,1.5725,1.5758,1.5784,1.5784,1.5784,1.5784,1.5784,1.5784,1.5784,1.5784,1.5784,1.5784,1.5784,1.5784,1.5784,1.5784,1.5784,1.5784,1.5784,1.5784,1.5784,1.5784,1.5784,1.7343,1.9131,1.9405,2.1033,2.2731,2.3038,2.3101,2.3101,2.3101,2.3101,2.3101,2.3101,2.3101,2.3101,2.3101,2.3101,2.3101,2.3101,2.3101,2.3101,2.3101,2.3003,0.0,0.0,2.2867,2.2808,2.2808,2.2808,2.2672,0.0,0.0,0.0,0.0,2.3125,2.3496,2.3496,2.3984,2.459,2.5226,2.5323,2.5762,2.6406,2.6172,2.6289,2.6719,2.6816,2.6875,2.6894,2.7324,2.763,2.7748,2.8008,2.8203,2.8301,2.8301,2.8496,2.8769,2.8769,2.9043,2.9414,1.0717,1.0717,1.0717,1.0717,1.6496,2.1109,2.1109,2.1109,2.1109,2.1109,2.1109,2.1109,2.1109,2.1109,2.0975,2.0655,2.0214,1.9773,1.9399,1.943,1.9172,1.8704,1.8557,1.8196,1.7569,1.7448,1.7154,1.67,1.642,1.6321,1.6308,1.5965,1.5784,1.5784,1.5784,1.5784,1.5784,1.5784,1.5784,1.5784,1.5784,1.5784,1.5784,1.5784,1.5784,1.5784,1.5784,1.5784,1.5784,1.5784,1.5784,1.5784,1.5784,1.6197,1.6697,1.6885,1.8148,1.9633,2.0161,2.1676,2.314,2.3379,2.353,2.3686,2.3686,2.3686,2.3686,2.3686,2.3686,2.3627,2.3477,2.3437,2.3379,2.312,2.3101,2.3101,2.3101,2.3101,0.0,2.3101,2.3276,2.3437,2.3437,2.3613,2.3555,2.3125,2.3496,0.0,2.3125,2.4102,2.4414,2.3809,2.459,2.5206,2.5693,2.6083,2.6512,2.7012,2.6777,2.6797,2.7031,2.7226,2.7305,2.7324,2.7773,2.7949,2.7969,2.8203,2.8398,2.8574,2.8574,2.8848,2.9219,2.9219,2.9492,2.9863,1.0717,1.0717,1.1049,1.2091,1.7152,2.1109,2.1109,2.1109,2.1109,2.1109,2.1109,2.1109,2.1109,2.1109,2.1109,2.1109,2.0494,1.9907,1.9457,1.943,1.9239,1.8931,1.8731,1.8464,1.8062,1.7569,1.7141,1.6834,1.6553,1.6429,1.6326,1.6032,1.5872,1.5784,1.5784,1.5784,1.5784,1.5784,1.5784,1.5784,1.5784,1.5784,1.5784,1.5784,1.5784,1.5784,1.5885,1.5899,1.5899,1.5904,1.5965,1.5965,1.5965,1.6809,1.7988,1.8497,1.9255,2.0212,2.1212,2.2351,2.3374,2.3789,2.416,2.4434,2.4492,2.4473,2.4434,2.4492,2.4473,2.4277,2.3867,2.3789,2.3652,2.3159,2.3101,2.3101,2.3101,0.0,2.3198,2.3198,2.3613,2.3887,2.3887,2.4199,2.4297,2.4004,2.4316,2.4394,2.4102,2.5195,2.5332,2.4219,2.5312,2.5908,2.5986,2.6758,2.7148,2.7207,2.7148,2.7148,2.7226,2.7598,2.7806,2.7793,2.8203,2.8359,2.8301,2.8437,2.8652,2.8926,2.8984,2.9277,2.9668,2.9668,2.9941,3.0293,1.0717,1.0717,1.2545,1.8448,2.0386,2.1109,2.1109,2.1109,2.1109,2.1109,2.1109,2.1109,2.1109,2.1109,2.1109,2.1109,2.1002,2.0481,1.9497,1.943,1.9239,1.8931,1.9118,1.8971,1.8437,1.8076,1.7756,1.7448,1.7206,1.6938,1.6633,1.6339,1.6072,1.5784,1.5784,1.5784,1.5784,1.5784,1.5784,1.5784,1.5784,1.5784,1.5784,1.5784,1.5784,1.5858,1.6112,1.6206,1.6246,1.6486,1.6567,1.6567,1.6567,1.7492,1.875,1.9894,2.1121,2.2171,2.2377,2.3279,2.4238,2.4297,2.4375,2.4512,2.4883,2.4687,2.4531,2.4883,2.4668,2.4277,2.3867,2.3789,2.3652,2.3159,2.3101,2.3101,2.3101,0.0,2.3691,2.3691,2.4062,2.4316,2.4316,2.4375,2.4551,2.4891,2.4969,2.5098,2.5362,2.5977,2.6191,2.5996,2.6523,2.6992,2.7415,2.75,2.7734,2.8086,2.7734,2.7754,2.8086,2.8164,2.8203,2.8223,2.8633,2.8613,2.8359,2.9062,2.9199,2.8945,2.9336,2.9726,3.0098,3.0098,3.0391,3.0781,1.0717,1.0717,1.1696,1.4939,1.8576,2.1109,2.1109,2.1109,2.1109,2.1109,2.1109,2.1109,2.1109,2.1109,2.1109,2.1109,2.1109,2.0615,1.9439,1.943,1.9305,1.9172,1.9145,1.8851,1.8263,1.8062,1.7889,1.7582,1.734,1.7125,1.6941,1.6647,1.6353,1.6072,1.6233,1.6219,1.6072,1.6072,1.6072,1.6059,1.5885,1.5925,1.6072,1.6072,1.6166,1.6313,1.646,1.6513,1.6526,1.666,1.67,1.67,1.67,1.8114,1.9893,2.0703,2.2178,2.356,2.356,2.4151,2.4824,2.5059,2.5312,2.5586,2.6016,2.5957,2.5879,2.6074,2.5957,2.5625,2.4961,2.4648,2.4336,2.3906,2.3393,0.0,0.0,2.4004,2.4219,2.4453,2.5078,2.5488,2.5488,2.5684,2.5801,2.5781,2.5996,2.6113,2.6094,2.6719,2.707,2.707,2.7266,2.7578,2.8008,2.8008,2.8105,2.8301,2.8105,2.8105,2.8301,2.8301,2.8418,2.8633,2.8828,2.8945,2.9004,2.9414,2.959,2.9629,2.9824,3.0176,3.0566,3.0566,3.0703,3.0898,1.0717,1.0717,1.124,1.28,1.7538,2.1109,2.1109,2.1109,2.1109,2.1109,2.1109,2.1109,2.1109,2.1109,2.1109,2.1109,2.1109,2.0735,1.9826,1.9773,1.9653,1.943,1.9145,1.8758,1.8102,1.8102,1.7969,1.7582,1.7407,1.7259,1.7192,1.6914,1.6647,1.638,1.6607,1.658,1.638,1.638,1.638,1.6353,1.6126,1.6166,1.638,1.638,1.6513,1.6714,1.678,1.6807,1.682,1.6887,1.6914,1.6965,1.7387,1.9135,2.1114,2.1877,2.3481,2.4961,2.4648,2.5039,2.5586,2.582,2.6211,2.6641,2.707,2.709,2.7051,2.7148,2.709,2.6777,2.5986,2.5605,2.5195,2.4648,0.0,0.0,0.0,2.4746,2.5,2.5332,2.6055,2.6543,2.6543,2.6836,2.6934,2.6699,2.707,2.7168,2.6855,2.7539,2.7963,2.7812,2.7812,2.7969,2.8281,2.8301,2.8301,2.8301,2.8301,2.834,2.8437,2.8437,2.8672,2.9082,2.918,2.9355,2.9646,2.9785,3.0,3.0215,3.0312,3.0586,3.0898,3.0898,3.0898,3.0898,1.0717,1.0717,1.2742,1.9228,2.0779,2.1109,2.1109,2.1109,2.1109,2.1109,2.1109,2.1109,2.1109,2.1109,2.1109,2.1109,2.1109,2.1069,2.0989,2.0975,2.0494,1.947,1.9403,1.9065,1.8477,1.8464,1.817,1.7582,1.7555,1.746,1.7206,1.7179,1.7005,1.6673,1.67,1.67,1.6673,1.6673,1.6673,1.6673,1.6647,1.666,1.6673,1.6673,1.6687,1.674,1.7072,1.7166,1.7206,1.7422,1.7515,1.7818,1.9506,2.0998,2.2517,2.4189,2.5727,2.6562,2.5352,2.5918,2.6777,2.6426,2.666,2.709,2.7519,2.7305,2.7129,2.7539,2.7305,2.6875,2.6426,2.6309,2.6016,2.5204,0.0,0.0,2.5078,2.5723,2.625,2.6289,2.6699,2.6973,2.6973,2.6992,2.7168,2.7591,2.7969,2.8184,2.8144,2.8574,2.8652,2.8262,2.8242,2.8262,2.8301,2.8301,2.8301,2.8301,2.8301,2.8496,2.8867,2.8867,2.9101,2.9551,2.9941,2.9902,2.9629,3.0449,3.0566,3.0234,3.0664,3.0859,3.0898,3.0898,3.0898,3.0898,1.0717,1.4166,1.7988,2.0652,2.1109,2.1109,2.1109,2.1109,2.1109,2.1109,2.1109,2.1109,2.1109,2.1109,2.1109,2.1109,2.1109,2.1109,2.1109,2.0428,1.9826,1.9444,1.943,1.9172,1.8771,1.8758,1.8464,1.7876,1.7876,1.7716,1.7474,1.7474,1.7313,1.7045,1.7168,1.7154,1.7032,1.7032,1.7032,1.7018,1.678,1.682,1.7032,1.7032,1.7088,1.7261,1.7382,1.7474,1.7514,1.7769,1.7876,1.8184,2.0008,2.149,2.3041,2.553,2.6827,2.7246,2.6484,2.6641,2.7031,2.7148,2.7305,2.7598,2.8281,2.832,2.832,2.875,2.8711,2.8476,2.8027,2.7734,2.7383,2.6828,0.0,2.6269,2.6691,2.7024,2.7285,2.7539,2.8184,2.8496,2.8223,2.8437,2.8672,2.8828,2.9004,2.9082,2.9082,2.9238,2.9238,2.9082,2.9082,2.8945,2.8691,2.8418,2.8555,2.9082,2.8809,2.8906,2.9316,2.9316,2.9551,2.9961,3.0137,3.0273,3.041,3.0762,3.0781,3.0644,3.082,3.0898,3.0898,3.0898,3.0898,3.0898,1.085,1.6302,2.1109,2.1109,2.1109,2.1109,2.1109,2.1109,2.1109,2.1109,2.1109,2.1109,2.1109,2.1109,2.1109,2.1109,2.1109,2.1109,2.1109,2.0013,1.943,1.943,1.943,1.9225,1.8931,1.8918,1.8677,1.8129,1.8129,1.8023,1.7729,1.7729,1.7569,1.734,1.7541,1.7527,1.734,1.734,1.7393,1.7408,1.7101,1.7168,1.7422,1.738,1.7475,1.7729,1.7729,1.7782,1.7903,1.8116,1.8442,1.9175,2.0985,2.2889,2.4898,2.6984,2.7812,2.8027,2.7871,2.7812,2.7832,2.7851,2.8119,2.8418,2.8984,2.9121,2.9199,2.9512,2.9626,2.9473,2.918,2.8887,2.8555,2.8125,2.7676,2.7539,2.7988,2.8184,2.8432,2.8652,2.9274,2.9453,2.9141,2.9394,2.9626,2.9626,2.9744,2.9766,2.9766,2.9648,2.9626,2.9626,2.9626,2.9492,2.9316,2.8906,2.8984,2.9626,2.9258,2.9355,2.9766,2.9766,3.0,3.041,3.041,3.0586,3.0898,3.0898,3.0898,3.0898,3.0898,3.0898,3.0898,3.0898,3.0898,3.0898,1.124,1.6366,2.1109,2.1109,2.1109,2.1109,2.1109,2.1109,2.1109,2.1109,2.1109,2.1109,2.1109,2.1109,2.1109,2.1109,2.1109,2.1109,2.1109,2.0027,1.943,1.943,1.943,1.9225,1.8931,1.8931,1.8784,1.849,1.849,1.8343,1.7995,1.7995,1.7889,1.7595,1.7595,1.7595,1.7595,1.7595,1.7769,1.7969,1.7716,1.7769,1.7969,1.7702,1.7782,1.7995,1.7995,1.8237,1.849,1.849,1.9497,2.0985,2.2852,2.5631,2.8379,2.8789,2.8926,2.9023,2.9453,2.9626,2.9375,2.8516,2.8945,2.9626,2.957,2.957,2.9626,2.9646,2.9646,2.9646,2.9646,2.9646,2.9434,2.9004,2.9297,2.9414,2.8984,2.9297,2.957,2.957,2.9626,2.9646,2.9626,2.9626,2.9646,2.9646,2.9961,3.0195,3.0195,2.9805,2.9646,2.9646,2.9646,2.9785,3.0195,2.9785,2.957,2.9646,2.9626,2.9805,3.0195,3.0195,3.0449,3.0898,3.0898,3.0898,3.0898,3.0898,3.0898,3.0898,3.0898,3.0898,3.0898,3.0898,3.0898,3.0898,1.7667,1.9674,2.1109,2.1109,2.1109,2.1109,2.1109,2.1109,2.1109,2.1109,2.1109,2.1109,2.1109,2.1109,2.1109,2.1109,2.1109,2.1109,2.1109,2.0401,1.992,1.9773,1.9506,1.9332,1.9239,1.9239,1.9092,1.8798,1.8798,1.8651,1.8357,1.8357,1.8303,1.8223,1.8223,1.8223,1.8223,1.8223,1.8277,1.8343,1.8263,1.8277,1.8343,1.825,1.8277,1.8357,1.8357,1.8424,1.8517,1.8731,1.9066,1.9934,2.2783,2.5989,2.875,2.8887,2.9141,2.9394,2.9531,2.9785,2.9883,2.9316,2.943,2.9648,2.9941,3.0,3.0098,3.043,3.0488,3.0488,3.0488,3.0488,3.0351,2.9883,2.9922,2.9961,2.9824,2.9922,3.0,3.0,3.0293,3.0371,3.0039,3.0312,3.0488,3.0488,3.0605,3.0684,3.0684,3.0566,3.0488,3.0488,3.0488,3.0566,3.0684,2.9941,2.9939,3.0488,3.0156,3.0254,3.0684,3.0684,3.0762,3.0898,3.0898,3.0898,3.0898,3.0898,3.0898,3.0898,3.0898,3.0898,3.0898,3.0898,3.0898,3.0898,1.8768,2.0132,2.1109,2.1109,2.1109,2.1109,2.1109,2.1109,2.1109,2.1109,2.1109,2.1109,2.1109,2.1109,2.1109,2.1109,2.1109,2.1109,2.1109,2.0775,2.0454,2.0127,1.988,1.9599,1.943,1.943,1.9279,1.9092,1.9092,1.8945,1.8664,1.8664,1.8597,1.849,1.849,1.849,1.849,1.849,1.8557,1.8651,1.8544,1.8557,1.8651,1.8531,1.8557,1.8664,1.8664,1.8731,1.8878,1.9172,2.0127,2.1835,2.5086,2.753,2.9199,2.9375,2.9609,2.9863,3.0039,3.0273,3.041,3.0156,3.0098,3.0156,3.041,3.0469,3.0547,3.084,3.0898,3.0898,3.0898,3.0898,3.0801,3.0508,3.0469,3.0469,3.0469,3.0469,3.0469,3.0469,3.0723,3.0781,3.0488,3.0723,3.0898,3.0898,3.0898,3.0898,3.0898,3.0898,3.0898,3.0898,3.0898,3.0898,3.0898,3.0371,3.0371,3.0879,3.0605,3.0625,3.0898,3.0898,3.0898,3.0898,3.0898,3.0898,3.0898,3.0898,3.0898,3.0898,3.0898,3.0898,3.0898,3.0898,3.0898,3.0898,1.6625,1.8896,2.1109,2.1109,2.1109,2.1109,2.1109,2.1109,2.1109,2.1109,2.1109,2.1109,2.1109,2.1109,2.1109,2.1109,2.1109,2.1109,2.1109,2.1109,2.0935,2.0548,2.0286,1.9987,1.9452,1.9439,1.9439,1.9439,1.947,1.9265,1.8998,1.8971,1.8824,1.8571,1.8571,1.8571,1.8571,1.8571,1.8731,1.8971,1.8691,1.8744,1.8971,1.8677,1.8744,1.8998,1.8998,1.9199,1.9537,1.9924,2.2333,2.5608,2.8521,2.9534,2.9707,3.0078,3.0234,3.0351,3.0781,3.0898,3.0898,3.0898,3.0918,3.0937,3.0898,3.0898,3.0898,3.0898,3.0898,3.0898,3.0937,3.0937,3.0937,3.0937,3.0937,3.0937,3.0898,3.0898,3.0898,3.0898,3.0898,3.0898,3.0898,3.0898,3.0898,3.0898,3.0898,3.0898,3.0898,3.0898,3.0898,3.0898,3.0898,3.0898,3.0898,3.0898,3.0898,3.0898,3.0898,3.0898,3.0898,3.0898,3.0898,3.0898,3.0898,3.0898,3.0898,3.0898,3.0898,3.0898,3.0898,3.0898,3.0898,3.0898,3.0918,3.0957,1.9801,2.0589,2.1109,2.1109,2.1109,2.1109,2.1109,2.1109,2.1109,2.1109,2.1109,2.1109,2.1109,2.1109,2.1109,2.1109,2.1109,2.1109,2.1109,2.1109,2.0975,2.0655,2.0374,2.0174,2.0054,2.004,2.004,2.004,1.9813,1.9679,1.9613,1.9372,1.9239,1.9172,1.9172,1.9172,1.9172,1.9172,1.9345,1.9586,1.9292,1.9345,1.9573,1.9292,1.9359,1.9613,1.9613,1.98,2.0234,2.1577,2.4146,2.6893,2.7578,2.8861,3.0078,3.0176,3.0449,3.0762,3.0859,3.0898,3.0898,3.0898,3.1133,3.1289,3.0957,3.0898,3.0898,3.0898,3.0898,3.0996,3.1328,3.1387,3.1387,3.1387,3.1387,3.1269,3.0937,3.0898,3.0898,3.0898,3.0898,3.0898,3.0898,3.0898,3.0898,3.0898,3.0898,3.0898,3.0898,3.0898,3.0898,3.0898,3.0898,3.0898,3.0898,3.0898,3.0898,3.0898,3.0898,3.0898,3.0898,3.0898,3.0898,3.0898,3.0898,3.0898,3.0898,3.0898,3.0898,3.0898,3.0898,3.0898,3.0898,3.0898,3.1094,3.1426,2.0919,2.1109,2.1109,2.1109,2.1109,2.1109,2.1109,2.1109,2.1109,2.1109,2.1109,2.1109,2.1109,2.1109,2.1109,2.1109,2.1109,2.1109,2.1109,2.1109,2.1042,2.0895,2.0735,2.0655,2.0655,2.0655,2.0508,2.0167,2.008,2.0,2.0,1.9853,1.9773,1.9773,1.9639,1.9653,1.9773,1.9639,1.9746,2.0,1.984,1.9867,1.9987,1.984,1.988,2.0,2.0,2.0657,2.1997,2.4407,2.641,2.7988,2.876,2.9699,3.0527,3.0527,3.0703,3.0937,3.1133,3.1191,3.125,3.1445,3.166,3.1719,3.1289,3.1348,3.1504,3.1504,3.1504,3.1562,3.1797,3.1816,3.1816,3.1816,3.1816,3.1758,3.1523,3.1328,3.1191,3.1191,3.1016,3.0898,3.0898,3.0898,3.0898,3.0898,3.1074,3.1191,3.1191,3.1191,3.1289,3.1484,3.1113,3.1094,3.1504,3.1289,3.1289,3.1504,3.1094,3.0898,3.0898,3.0898,3.0898,3.0898,3.0898,3.0898,3.0898,3.0898,3.0898,3.0898,3.0898,3.1016,3.1172,3.0957,3.1152,3.1562,2.1109,2.1109,2.1109,2.1109,2.1109,2.1109,2.1109,2.1109,2.1109,2.1109,2.1109,2.1109,2.1109,2.1109,2.1109,2.1109,2.1109,2.1109,2.1109,2.1109,2.1109,2.1109,2.1109,2.1109,2.1109,2.1109,2.0869,2.0326,2.0334,2.0307,2.0307,2.0254,2.0167,2.0167,1.9987,2.0013,2.0214,1.9973,2.004,2.0307,2.0193,2.0207,2.0307,2.0193,2.0267,2.0307,2.0598,2.21,2.4414,2.7158,2.8392,2.9098,3.045,3.0898,3.0898,3.0898,3.0898,3.0976,3.1406,3.1523,3.1621,3.207,3.2226,3.2187,3.1816,3.1953,3.2229,3.2229,3.2229,3.2187,3.2266,3.2285,3.2285,3.2285,3.2285,3.2307,3.2187,3.1855,3.1621,3.1621,3.1328,3.1113,3.1113,3.1113,3.1113,3.1113,3.1426,3.1621,3.1621,3.1621,3.1797,3.2209,3.1484,3.1445,3.2168,3.1816,3.1816,3.2168,3.1445,3.1113,3.1113,3.0957,3.0937,3.0996,3.0918,3.0898,3.0898,3.0976,3.0996,3.0996,3.1074,3.1328,3.1601,3.1309,3.1445,3.1738,2.1109,2.1109,2.1109,2.1109,2.1109,2.1109,2.1109,2.1109,2.1109,2.1109,2.1109,2.1109,2.1109,2.1109,2.1109,2.1109,2.1109,2.1109,2.1109,2.1109,2.1109,2.1109,2.1109,2.1109,2.1109,2.1109,2.1069,2.0989,2.0735,2.0615,2.0615,2.0361,2.0167,2.0167,2.0127,2.0201,2.0227,2.0187,2.0347,2.0601,2.0334,2.0388,2.0588,2.0334,2.0388,2.08,2.223,2.4839,2.7741,2.8217,2.9297,3.0587,3.082,3.0898,3.0898,3.0898,3.0898,3.0976,3.1406,3.1523,3.1621,3.207,3.2441,3.2695,3.2637,3.2383,3.2229,3.2229,3.2229,3.2346,3.2637,3.2715,3.2715,3.2715,3.2715,3.2578,3.2226,3.217,3.209,3.209,3.2031,3.1992,3.1992,3.1992,3.1992,3.1992,3.2051,3.209,3.209,3.209,3.2109,3.2229,3.2111,3.2051,3.2229,3.2109,3.2109,3.2229,3.2051,3.1992,3.1973,3.123,3.1094,3.1406,3.1055,3.0898,3.0918,3.1289,3.1426,3.1465,3.1855,3.2031,3.2129,3.2422,3.2578,3.2676,2.1109,2.1109,2.1109,2.1109,2.1109,2.1216,2.155,2.1323,2.1189,2.1403,2.1243,2.1109,2.1109,2.1109,2.1109,2.1109,2.1109,2.1109,2.1109,2.1109,2.1109,2.1109,2.1109,2.1109,2.1109,2.1109,2.1109,2.1109,2.0975,2.0922,2.0909,2.0788,2.0722,2.0722,2.0548,2.0575,2.0708,2.0548,2.0655,2.0909,2.0775,2.0802,2.0909,2.0775,2.1348,2.2624,2.5149,2.7073,2.8545,2.9471,3.0274,3.0937,3.1172,3.1074,3.0976,3.1465,3.1426,3.1387,3.2051,3.2226,3.2344,3.2754,3.3008,3.3144,3.3144,3.3008,3.2871,3.2871,3.2871,3.293,3.3105,3.3144,3.3144,3.3144,3.3144,3.3086,3.2891,3.2656,3.2422,3.2268,3.2229,3.2229,3.2229,3.2229,3.2229,3.2229,3.2383,3.2519,3.2519,3.2519,3.2617,3.2871,3.2422,3.2402,3.2871,3.2637,3.2637,3.2871,3.2637,3.2402,3.2209,3.1777,3.1699,3.1875,3.168,3.1601,3.1621,3.1797,3.1875,3.1894,3.209,3.2229,3.2226,3.2637,3.2793,3.2832]},{"header":{"parameterUnit":"m.s-1","parameterCategory":1,"la1":30.6,"la2":28.766,"lo1":-90.7593,"lo2":-88.6598,"dy":0.0162,"dx":0.0183,"nx":116,"ny":114,"refTime":"2023-11-02T18:00:00:Z","depth":0,"parameterNumber":3,"parameterNumberName":"V-component_of_WINDS"},"data":[0.0,0.0,0.0,0.0,0.0,0.0,0.0,0.0,0.0,0.0,0.0,0.0,0.0,0.0,0.0,0.0,0.0,0.0,0.0,0.0,0.0,0.0,0.0,0.0,0.0,0.0,0.0,0.0,0.0,0.0,0.0,0.0,0.0,0.0,0.0,0.0,0.0,0.0,0.0,0.0,0.0,0.0,0.0,0.0,0.0,0.0,0.0,0.0,0.0,0.0,0.0,0.0,0.0,0.0,0.0,0.0,0.0,0.0,0.0,0.0,0.0,0.0,0.0,0.0,0.0,0.0,0.0,0.0,0.0,0.0,0.0,0.0,0.0,0.0,0.0,0.0,0.0,0.0,0.0,0.0,0.0,0.0,0.0,0.0,0.0,0.0,0.0,0.0,0.0,0.0,0.0,0.0,0.0,0.0,0.0,0.0,0.0,0.0,0.0,0.0,0.0,0.0,0.0,0.0,0.0,0.0,0.0,0.0,0.0,0.0,0.0,0.0,0.0,0.0,0.0,0.0,0.0,0.0,0.0,0.0,0.0,0.0,0.0,0.0,0.0,0.0,0.0,0.0,0.0,0.0,0.0,0.0,0.0,0.0,0.0,0.0,0.0,0.0,0.0,0.0,0.0,0.0,0.0,0.0,0.0,0.0,0.0,0.0,0.0,0.0,0.0,0.0,0.0,0.0,0.0,0.0,0.0,0.0,0.0,0.0,0.0,0.0,0.0,0.0,0.0,0.0,0.0,0.0,0.0,0.0,0.0,0.0,0.0,0.0,0.0,0.0,0.0,0.0,0.0,0.0,0.0,0.0,0.0,0.0,0.0,0.0,0.0,0.0,0.0,0.0,0.0,0.0,0.0,0.0,0.0,0.0,0.0,0.0,0.0,0.0,0.0,0.0,0.0,0.0,0.0,0.0,0.0,0.0,0.0,0.0,0.0,0.0,0.0,0.0,0.0,0.0,0.0,0.0,0.0,0.0,0.0,0.0,0.0,0.0,0.0,0.0,0.0,0.0,0.0,0.0,0.0,0.0,0.0,0.0,0.0,0.0,0.0,0.0,0.0,0.0,0.0,0.0,0.0,0.0,0.0,0.0,0.0,0.0,0.0,0.0,0.0,0.0,0.0,0.0,0.0,0.0,0.0,0.0,0.0,0.0,0.0,0.0,0.0,0.0,0.0,0.0,0.0,0.0,0.0,0.0,0.0,0.0,0.0,0.0,0.0,0.0,0.0,0.0,0.0,0.0,0.0,0.0,0.0,0.0,0.0,0.0,0.0,0.0,0.0,0.0,0.0,0.0,0.0,0.0,0.0,0.0,0.0,0.0,0.0,0.0,0.0,0.0,0.0,0.0,0.0,0.0,0.0,0.0,0.0,0.0,0.0,0.0,0.0,0.0,0.0,0.0,0.0,0.0,0.0,0.0,0.0,0.0,0.0,0.0,0.0,0.0,0.0,0.0,0.0,0.0,0.0,0.0,0.0,0.0,0.0,0.0,0.0,0.0,0.0,0.0,0.0,0.0,0.0,0.0,0.0,0.0,0.0,0.0,0.0,0.0,0.0,0.0,0.0,0.0,0.0,0.0,0.0,0.0,0.0,0.0,0.0,0.0,0.0,0.0,0.0,0.0,0.0,0.0,0.0,0.0,0.0,0.0,0.0,0.0,0.0,0.0,0.0,0.0,0.0,0.0,0.0,0.0,0.0,0.0,0.0,0.0,0.0,0.0,0.0,0.0,0.0,0.0,0.0,0.0,0.0,0.0,0.0,0.0,0.0,0.0,0.0,0.0,0.0,0.0,0.0,0.0,0.0,0.0,0.0,0.0,0.0,0.0,0.0,0.0,0.0,0.0,0.0,0.0,0.0,0.0,0.0,0.0,0.0,0.0,0.0,0.0,0.0,0.0,0.0,0.0,0.0,0.0,0.0,0.0,0.0,0.0,0.0,0.0,0.0,0.0,0.0,0.0,0.0,0.0,0.0,0.0,0.0,0.0,0.0,0.0,0.0,0.0,0.0,0.0,0.0,0.0,0.0,0.0,0.0,0.0,0.0,0.0,0.0,0.0,0.0,0.0,0.0,0.0,0.0,0.0,0.0,0.0,0.0,0.0,0.0,0.0,0.0,0.0,0.0,0.0,0.0,0.0,0.0,0.0,0.0,0.0,0.0,0.0,0.0,0.0,0.0,0.0,0.0,0.0,0.0,0.0,0.0,0.0,0.0,0.0,0.0,0.0,0.0,0.0,0.0,0.0,0.0,0.0,0.0,0.0,0.0,0.0,0.0,0.0,0.0,0.0,0.0,0.0,0.0,0.0,0.0,0.0,0.0,0.0,0.0,0.0,0.0,0.0,0.0,0.0,0.0,0.0,0.0,0.0,0.0,0.0,0.0,0.0,0.0,0.0,0.0,0.0,0.0,0.0,0.0,0.0,0.0,0.0,0.0,0.0,0.0,0.0,0.0,0.0,0.0,0.0,0.0,0.0,0.0,0.0,0.0,0.0,0.0,0.0,0.0,0.0,0.0,0.0,0.0,0.0,0.0,0.0,0.0,0.0,0.0,0.0,0.0,0.0,0.0,0.0,0.0,0.0,0.0,0.0,0.0,0.0,0.0,0.0,0.0,0.0,0.0,0.0,0.0,0.0,0.0,0.0,0.0,0.0,0.0,0.0,0.0,0.0,0.0,0.0,0.0,0.0,0.0,0.0,0.0,0.0,0.0,0.0,0.0,0.0,0.0,0.0,0.0,0.0,0.0,0.0,0.0,0.0,0.0,0.0,0.0,0.0,0.0,0.0,0.0,0.0,0.0,0.0,0.0,0.0,0.0,0.0,0.0,0.0,0.0,0.0,0.0,0.0,0.0,0.0,0.0,0.0,0.0,0.0,0.0,0.0,0.0,0.0,0.0,0.0,0.0,0.0,0.0,0.0,0.0,0.0,0.0,0.0,0.0,0.0,0.0,0.0,0.0,0.0,0.0,0.0,0.0,0.0,0.0,0.0,0.0,0.0,0.0,0.0,0.0,0.0,0.0,0.0,0.0,0.0,0.0,0.0,0.0,0.0,0.0,0.0,0.0,0.0,0.0,0.0,0.0,0.0,0.0,0.0,0.0,0.0,0.0,0.0,0.0,0.0,0.0,0.0,0.0,0.0,0.0,0.0,0.0,0.0,0.0,0.0,0.0,0.0,0.0,0.0,0.0,0.0,0.0,0.0,0.0,0.0,0.0,0.0,0.0,0.0,0.0,0.0,0.0,0.0,0.0,0.0,0.0,0.0,0.0,0.0,0.0,0.0,0.0,0.0,0.0,0.0,0.0,0.0,0.0,0.0,0.0,0.0,0.0,0.0,0.0,0.0,0.0,0.0,0.0,0.0,0.0,0.0,0.0,0.0,0.0,0.0,0.0,0.0,0.0,0.0,0.0,0.0,0.0,0.0,0.0,0.0,0.0,0.0,0.0,0.0,0.0,0.0,0.0,0.0,0.0,0.0,0.0,0.0,0.0,0.0,0.0,0.0,0.0,0.0,0.0,0.0,0.0,0.0,0.0,0.0,0.0,0.0,0.0,0.0,0.0,0.0,0.0,0.0,0.0,0.0,0.0,0.0,0.0,0.0,0.0,0.0,0.0,0.0,0.0,0.0,0.0,0.0,0.0,0.0,0.0,0.0,0.0,0.0,0.0,0.0,0.0,0.0,0.0,0.0,0.0,0.0,0.0,0.0,0.0,0.0,0.0,0.0,0.0,0.0,0.0,0.0,0.0,0.0,0.0,0.0,0.0,0.0,0.0,0.0,0.0,0.0,0.0,0.0,0.0,0.0,0.0,0.0,0.0,0.0,0.0,0.0,0.0,0.0,0.0,0.0,0.0,0.0,0.0,0.0,0.0,0.0,0.0,0.0,0.0,0.0,0.0,0.0,0.0,0.0,0.0,0.0,0.0,0.0,0.0,0.0,0.0,0.0,0.0,0.0,0.0,0.0,0.0,0.0,0.0,0.0,0.0,0.0,0.0,0.0,0.0,0.0,0.0,0.0,0.0,0.0,0.0,0.0,0.0,0.0,0.0,0.0,0.0,0.0,0.0,0.0,0.0,0.0,0.0,0.0,0.0,0.0,0.0,0.0,0.0,0.0,0.0,0.0,0.0,0.0,0.0,0.0,0.0,0.0,0.0,0.0,0.0,0.0,0.0,0.0,0.0,0.0,0.0,0.0,0.0,0.0,0.0,0.0,0.0,0.0,0.0,0.0,0.0,0.0,0.0,0.0,0.0,0.0,0.0,0.0,0.0,0.0,0.0,0.0,0.0,0.0,0.0,0.0,0.0,0.0,0.0,0.0,0.0,0.0,0.0,0.0,0.0,0.0,0.0,0.0,0.0,0.0,0.0,0.0,0.0,0.0,0.0,0.0,0.0,0.0,0.0,0.0,0.0,0.0,0.0,0.0,0.0,0.0,0.0,0.0,0.0,0.0,0.0,0.0,0.0,0.0,0.0,0.0,0.0,0.0,0.0,0.0,0.0,0.0,0.0,0.0,0.0,0.0,0.0,0.0,0.0,0.0,0.0,0.0,0.0,0.0,0.0,0.0,0.0,0.0,0.0,0.0,0.0,0.0,0.0,0.0,0.0,0.0,0.0,0.0,0.0,0.0,0.0,0.0,0.0,0.0,0.0,0.0,0.0,0.0,0.0,0.0,0.0,0.0,0.0,0.0,0.0,0.0,0.0,0.0,0.0,0.0,0.0,0.0,0.0,0.0,0.0,0.0,0.0,0.0,0.0,0.0,0.0,0.0,0.0,0.0,0.0,0.0,0.0,0.0,0.0,0.0,0.0,0.0,0.0,0.0,0.0,0.0,0.0,0.0,0.0,0.0,0.0,0.0,0.0,0.0,0.0,0.0,0.0,0.0,0.0,0.0,0.0,0.0,0.0,0.0,0.0,0.0,0.0,0.0,0.0,0.0,0.0,0.0,0.0,0.0,0.0,0.0,0.0,0.0,0.0,0.0,0.0,0.0,0.0,0.0,0.0,0.0,0.0,0.0,0.0,0.0,0.0,0.0,0.0,0.0,0.0,0.0,0.0,0.0,0.0,0.0,0.0,0.0,0.0,0.0,0.0,0.0,0.0,0.0,0.0,0.0,0.0,0.0,0.0,0.0,0.0,0.0,0.0,0.0,0.0,0.0,0.0,0.0,0.0,0.0,0.0,0.0,0.0,0.0,0.0,0.0,0.0,0.0,0.0,0.0,0.0,0.0,0.0,0.0,0.0,0.0,0.0,0.0,0.0,0.0,0.0,0.0,0.0,0.0,0.0,0.0,0.0,0.0,0.0,0.0,0.0,0.0,0.0,0.0,0.0,0.0,0.0,0.0,0.0,0.0,0.0,0.0,0.0,0.0,0.0,0.0,0.0,0.0,0.0,0.0,0.0,0.0,0.0,0.0,0.0,0.0,0.0,0.0,0.0,0.0,0.0,0.0,0.0,0.0,0.0,0.0,0.0,0.0,0.0,0.0,0.0,0.0,0.0,0.0,0.0,0.0,0.0,0.0,0.0,0.0,0.0,0.0,0.0,0.0,0.0,0.0,0.0,0.0,0.0,0.0,0.0,0.0,0.0,0.0,0.0,0.0,0.0,0.0,0.0,0.0,0.0,0.0,0.0,0.0,0.0,0.0,0.0,0.0,0.0,0.0,0.0,0.0,0.0,0.0,0.0,0.0,0.0,0.0,0.0,0.0,0.0,0.0,0.0,0.0,0.0,0.0,0.0,0.0,0.0,0.0,0.0,0.0,0.0,0.0,0.0,0.0,0.0,0.0,0.0,0.0,0.0,0.0,0.0,0.0,0.0,0.0,0.0,0.0,0.0,0.0,0.0,0.0,0.0,0.0,0.0,0.0,0.0,0.0,0.0,0.0,0.0,0.0,0.0,0.0,0.0,0.0,0.0,0.0,0.0,0.0,0.0,0.0,0.0,0.0,0.0,0.0,0.0,0.0,0.0,0.0,0.0,0.0,0.0,0.0,0.0,0.0,0.0,0.0,0.0,0.0,0.0,0.0,0.0,0.0,0.0,0.0,0.0,0.0,0.0,0.0,0.0,0.0,0.0,0.0,0.0,0.0,0.0,0.0,0.0,0.0,0.0,0.0,2.275,0.0,0.0,0.0,0.0,0.0,0.0,0.0,0.0,0.0,0.0,0.0,0.0,0.0,0.0,0.0,0.0,0.0,0.0,0.0,0.0,0.0,0.0,0.0,0.0,0.0,0.0,0.0,0.0,0.0,0.0,0.0,0.0,0.0,0.0,0.0,0.0,0.0,0.0,1.7699,1.8027,1.9031,2.0666,2.0996,2.0636,1.9708,0.0,0.0,0.0,0.0,0.0,0.0,0.0,0.0,0.0,0.0,0.0,0.0,0.0,0.0,0.0,0.0,0.0,0.0,0.0,0.0,0.0,0.0,0.0,0.0,0.0,0.0,0.0,0.0,0.0,0.0,0.0,0.0,0.0,0.0,0.0,0.0,0.0,0.0,0.0,0.0,0.0,0.0,0.0,0.0,0.0,0.0,0.0,0.0,0.0,0.0,0.0,0.0,0.0,0.0,0.0,0.0,0.0,0.0,0.0,0.0,0.0,0.0,0.0,0.0,0.0,0.0,0.0,0.0,0.0,0.0,0.0,2.3962,0.0,0.0,0.0,0.0,0.0,0.0,0.0,0.0,0.0,0.0,0.0,0.0,0.0,0.0,0.0,0.0,0.0,0.0,0.0,0.0,0.0,0.0,0.0,2.2124,2.1921,2.1427,2.1156,2.0703,0.0,0.0,0.0,0.0,0.0,0.0,0.0,1.6622,1.7301,1.8057,1.9181,2.0647,2.2383,2.3062,2.2493,2.0876,2.0307,0.0,0.0,0.0,0.0,0.0,0.0,0.0,0.0,0.0,0.0,0.0,0.0,0.0,0.0,0.0,0.0,0.0,0.0,0.0,0.0,0.0,0.0,0.0,0.0,0.0,0.0,0.0,0.0,0.0,0.0,0.0,0.0,0.0,0.0,0.0,0.0,0.0,0.0,0.0,0.0,0.0,0.0,0.0,0.0,0.0,0.0,0.0,0.0,0.0,0.0,0.0,0.0,0.0,0.0,0.0,0.0,0.0,0.0,0.0,0.0,0.0,0.0,0.0,3.0125,3.0,3.0701,3.1273,3.1372,3.0944,2.8604,2.7171,2.6357,0.0,0.0,0.0,0.0,0.0,0.0,0.0,0.0,0.0,0.0,0.0,0.0,0.0,0.0,0.0,0.0,0.0,0.0,0.0,0.0,0.0,0.0,2.136,2.1563,2.2124,2.0927,2.0103,2.0002,0.0,0.0,0.0,0.0,0.0,1.7097,1.7515,1.8297,1.9438,2.2362,2.4246,2.5106,2.5764,2.5944,2.5578,2.2712,2.2383,2.3767,0.0,0.0,0.0,0.0,0.0,0.0,0.0,0.0,0.0,0.0,0.0,0.0,0.0,0.0,0.0,0.0,0.0,0.0,0.0,0.0,0.0,0.0,0.0,0.0,0.0,0.0,0.0,0.0,0.0,0.0,0.0,0.0,0.0,0.0,0.0,0.0,0.0,0.0,0.0,0.0,0.0,2.3004,2.2381,0.0,0.0,0.0,0.0,0.0,0.0,0.0,0.0,0.0,0.0,0.0,0.0,0.0,3.044,3.1795,3.3903,3.464,3.4081,3.6249,3.6755,3.5804,3.5154,3.5057,3.5415,3.5511,0.0,2.8117,2.7426,0.0,0.0,0.0,0.0,0.0,0.0,0.0,0.0,0.0,0.0,0.0,0.0,0.0,0.0,0.0,0.0,0.0,0.0,0.0,0.0,0.0,2.268,2.3308,2.2381,2.3564,2.3158,2.0204,1.991,0.0,0.0,0.0,1.7495,1.7616,1.9007,2.0974,2.3595,2.6161,2.7769,2.8468,2.869,2.8996,2.9238,2.7081,2.5345,2.3939,2.2143,0.0,0.0,0.0,0.0,0.0,0.0,0.0,0.0,0.0,0.0,0.0,0.0,0.0,0.0,0.0,0.0,0.0,0.0,0.0,0.0,0.0,0.0,0.0,0.0,0.0,0.0,0.0,0.0,0.0,0.0,0.0,0.0,0.0,0.0,0.0,0.0,0.0,0.0,0.0,2.3274,2.3594,2.2462,2.3308,2.3594,0.0,0.0,0.0,0.0,0.0,0.0,0.0,0.0,0.0,3.1279,3.2751,3.3927,3.4796,3.6994,3.8005,3.7807,3.9632,4.0516,4.0513,3.9234,3.9276,4.0263,3.9621,3.8114,3.5725,3.1836,2.9368,2.7863,0.0,0.0,0.0,0.0,2.5841,2.6172,0.0,0.0,0.0,0.0,0.0,0.0,0.0,0.0,0.0,0.0,0.0,0.0,2.1935,2.4154,2.5169,2.412,2.5998,2.5491,2.14,2.1094,2.007,1.7804,1.7802,1.7993,1.8289,2.1021,2.4123,2.7537,2.9815,3.13,3.2017,3.2067,3.2407,3.2778,3.1483,2.8936,2.5525,2.3879,2.2712,2.1824,0.0,0.0,0.0,0.0,0.0,0.0,0.0,0.0,0.0,0.0,0.0,0.0,0.0,0.0,0.0,0.0,0.0,0.0,0.0,0.0,0.0,0.0,0.0,0.0,0.0,0.0,0.0,0.0,0.0,0.0,0.0,0.0,0.0,0.0,0.0,0.0,0.0,2.3883,2.4372,2.2516,2.4271,2.4961,0.0,0.0,0.0,0.0,0.0,0.0,3.1275,3.2271,3.3409,3.4867,3.6375,3.7463,3.8138,3.99,4.0928,4.1148,4.1936,4.2743,4.3478,4.2249,4.2359,4.3441,4.2249,4.1699,4.1295,3.6024,3.2789,3.0956,2.9235,2.887,2.9219,2.8338,2.8338,2.8532,0.0,0.0,0.0,0.0,0.0,0.0,0.0,0.0,0.0,0.0,0.0,2.0378,2.3932,2.5101,2.642,2.8468,2.686,2.5304,2.4338,2.1008,1.8988,1.8831,1.8166,1.8279,1.929,2.3802,2.7445,3.0124,3.3105,3.4888,3.5567,3.619,3.6514,3.6486,3.5055,3.3198,3.0823,2.6368,2.4844,2.5076,2.1914,0.0,0.0,0.0,0.0,0.0,0.0,0.0,0.0,0.0,0.0,0.0,0.0,0.0,0.0,0.0,0.0,0.0,0.0,0.0,0.0,0.0,0.0,0.0,0.0,0.0,0.0,0.0,0.0,0.0,0.0,0.0,0.0,0.0,0.0,0.0,0.0,0.0,0.0,2.2617,2.6116,0.0,0.0,0.0,0.0,3.0196,3.1678,3.2945,3.3772,3.495,3.6644,3.893,4.0198,4.1572,4.3111,4.3258,4.3331,4.3331,4.3404,4.3441,4.3515,4.3441,4.3441,4.3515,4.3404,4.2543,4.0985,3.915,3.6509,3.3513,3.2399,3.2596,3.3366,3.2302,3.1604,3.0834,0.0,0.0,0.0,0.0,0.0,0.0,0.0,0.0,2.0696,1.935,2.1421,2.3727,2.5585,2.9295,3.1462,3.0957,3.1542,3.0193,2.6183,2.3763,2.207,2.1143,2.0365,2.1481,2.4759,2.7885,3.089,3.3694,3.5753,3.7084,3.7769,3.7564,3.7466,3.7406,3.6924,3.6032,3.4585,2.9833,2.6983,2.5465,2.2979,2.1335,0.0,0.0,0.0,0.0,0.0,0.0,0.0,0.0,0.0,0.0,0.0,0.0,0.0,0.0,0.0,0.0,0.0,0.0,0.0,0.0,0.0,0.0,0.0,0.0,0.0,0.0,0.0,0.0,0.0,0.0,0.0,0.0,0.0,0.0,0.0,0.0,0.0,2.6792,3.0053,0.0,2.9756,3.0575,3.1978,3.3764,3.4909,3.6633,3.921,4.0255,4.1601,4.3486,4.3959,4.4232,4.4268,4.4268,4.4011,4.3515,4.3515,4.3515,4.3515,4.3515,4.3515,4.3515,4.3515,4.3167,4.2616,4.2029,3.9863,3.6772,3.5005,3.4436,3.4421,3.3078,3.2747,3.2757,0.0,0.0,0.0,0.0,0.0,0.0,0.0,0.0,2.151,2.0381,2.3513,2.6513,2.8367,3.2885,3.535,3.4266,3.4692,3.2951,2.8032,2.5465,2.3492,2.1989,2.2172,2.4271,2.8466,3.1021,3.366,3.6377,3.7861,3.8823,3.9289,3.8805,3.8585,3.8585,3.8274,3.794,3.7318,3.3603,3.0227,2.7226,2.5207,2.3595,2.2213,0.0,0.0,0.0,0.0,0.0,0.0,0.0,0.0,0.0,0.0,0.0,0.0,0.0,0.0,0.0,0.0,0.0,0.0,0.0,0.0,0.0,0.0,0.0,0.0,0.0,0.0,0.0,0.0,0.0,0.0,0.0,0.0,0.0,0.0,0.0,3.0472,3.0069,3.3222,3.485,3.3404,3.4482,3.5987,3.7826,3.9239,4.1039,4.337,4.4011,4.4672,4.548,4.5516,4.5112,4.4305,4.4305,4.4011,4.3515,4.3515,4.3515,4.3515,4.3515,4.3515,4.3515,4.3515,4.3515,4.3441,4.2323,4.1258,4.0079,3.7544,3.6593,3.6534,3.5408,3.4953,3.4736,0.0,0.0,0.0,0.0,0.0,0.0,0.0,2.1557,2.2479,2.2145,2.4991,2.8463,3.2259,3.5474,3.768,3.8419,3.5897,3.2997,2.9965,2.5766,2.2762,2.142,2.3507,2.6437,3.0176,3.3085,3.569,3.7922,3.9402,4.0113,4.0113,4.0113,4.0113,4.0087,3.9289,3.8975,3.8931,3.7508,3.4595,3.0742,2.8748,2.7041,2.5445,0.0,0.0,0.0,0.0,0.0,0.0,0.0,0.0,0.0,0.0,0.0,0.0,0.0,0.0,0.0,0.0,0.0,0.0,0.0,0.0,0.0,0.0,0.0,0.0,0.0,0.0,0.0,0.0,0.0,0.0,0.0,0.0,0.0,2.6995,3.0116,3.2442,3.2264,3.5501,3.733,3.6166,3.9476,4.1887,4.2362,4.4562,4.592,4.5957,4.592,4.5553,4.4838,4.4764,4.4378,4.3551,4.3551,4.3551,4.3515,4.3515,4.3515,4.3515,4.3515,4.3515,4.3515,4.3515,4.3441,4.3111,4.0021,4.0604,4.3105,4.0021,3.9245,3.9851,3.9476,3.8411,3.6793,0.0,0.0,0.0,0.0,0.0,0.0,0.0,2.1614,2.2489,2.2406,2.6729,3.0892,3.3728,3.7132,3.9346,3.9751,3.5981,3.2814,3.0975,2.6107,2.3702,2.4726,2.7726,3.0581,3.322,3.5204,3.6998,3.87,3.9639,4.0113,4.0113,4.0113,4.0113,4.0113,3.9876,3.98,3.9783,3.936,3.7937,3.5668,3.2096,2.9818,2.8421,0.0,0.0,0.0,0.0,0.0,0.0,0.0,0.0,0.0,0.0,0.0,0.0,0.0,0.0,0.0,0.0,0.0,0.0,0.0,0.0,0.0,0.0,0.0,0.0,0.0,0.0,0.0,0.0,0.0,0.0,0.0,0.0,3.1308,3.141,3.4376,3.6809,3.7437,3.9763,4.1378,4.1667,4.2662,4.3721,4.482,4.5516,4.614,4.6746,4.6214,4.6324,4.7278,4.6581,4.5663,4.4672,4.4672,4.4268,4.3515,4.3515,4.3515,4.3515,4.3515,4.3515,4.3515,4.3515,4.2176,4.0031,3.9992,4.0528,4.1314,4.1217,4.0578,3.9705,4.0043,3.9141,3.7428,0.0,0.0,0.0,0.0,0.0,0.0,0.0,2.1648,2.2884,2.3198,2.813,3.2429,3.4557,3.7534,3.9182,3.8667,3.5344,3.222,2.9776,2.6543,2.5946,2.8743,3.1179,3.3645,3.6212,3.7239,3.8294,3.9469,3.991,4.0113,4.0113,4.0113,4.0113,4.0113,4.0392,4.0383,4.0113,4.0451,3.9884,3.8646,3.5852,3.3761,3.2063,2.9707,2.8984,2.8898,2.6419,2.6212,2.6581,2.3469,0.0,0.0,0.0,0.0,0.0,0.0,0.0,0.0,0.0,0.0,0.0,0.0,0.0,0.0,0.0,0.0,0.0,0.0,0.0,0.0,0.0,0.0,0.0,0.0,3.285,3.5018,3.6487,3.7882,3.9444,4.1193,4.2485,4.3621,4.465,4.5033,4.5548,4.6342,4.6728,4.7131,4.759,4.7168,4.7168,4.7792,4.6654,4.5663,4.4929,4.4599,4.4139,4.3515,4.3693,4.3775,4.371,4.3546,4.3614,0.0,4.358,4.245,4.0799,4.21,4.1785,0.0,0.0,0.0,0.0,0.0,3.99,3.8762,0.0,0.0,0.0,0.0,0.0,0.0,0.0,2.1608,2.3359,2.4036,2.8872,3.2818,3.4348,3.6597,3.7514,3.6266,3.4062,3.1265,2.784,2.7492,2.9091,3.2977,3.4213,3.6107,3.8877,3.9191,3.9657,4.0303,4.0229,4.0179,4.0179,4.0138,4.0146,4.0248,4.0899,4.0865,4.0383,4.0967,4.0832,4.018,3.9436,3.7918,3.5893,3.338,3.281,3.2982,3.0294,2.9074,2.8445,2.6516,0.0,0.0,0.0,0.0,0.0,0.0,0.0,0.0,0.0,0.0,0.0,0.0,0.0,0.0,0.0,0.0,0.0,0.0,0.0,0.0,0.0,0.0,0.0,0.0,3.6542,3.8456,4.1343,4.0754,4.1014,4.3654,4.4002,4.4539,4.592,4.6672,4.7149,4.7223,4.7883,4.8306,4.8306,0.0,0.0,0.0,0.0,4.5144,4.4716,4.416,4.3775,4.3631,4.4035,4.4132,4.4013,4.3818,4.3865,4.4102,4.3833,4.3742,4.3818,4.4669,4.3247,4.0516,4.0516,4.0516,4.0516,4.0516,4.0516,4.0208,0.0,0.0,0.0,0.0,0.0,0.0,0.0,2.1299,2.2745,2.3529,2.7326,3.0313,3.1276,3.2821,3.416,3.5188,3.1931,2.9771,2.9661,3.0496,3.2463,3.5794,3.7644,3.9095,4.0312,4.0918,4.1345,4.1464,4.099,4.0733,4.0733,4.0294,4.0417,4.1001,4.1136,4.1441,4.1813,4.1407,4.1136,4.0933,4.0155,3.9286,3.8187,3.6491,3.5944,3.5742,3.3357,3.3614,3.4376,3.0087,2.9556,3.0127,2.6465,2.473,0.0,0.0,0.0,0.0,0.0,0.0,0.0,0.0,0.0,0.0,0.0,0.0,0.0,0.0,0.0,0.0,0.0,0.0,0.0,3.7107,3.9114,4.0939,4.2844,4.292,4.3177,4.4419,4.4565,4.5151,4.6709,4.7003,4.7369,4.7993,4.8233,4.8306,4.8306,4.7663,4.7352,4.7334,4.7138,4.636,4.4865,4.5609,4.5442,4.4397,0.0,0.0,4.419,4.4881,4.46,4.3677,4.475,4.5184,4.5003,4.2518,4.1093,4.0516,4.0516,4.0516,4.0516,4.0516,4.0516,4.0246,0.0,0.0,0.0,0.0,0.0,0.0,0.0,2.1318,2.2678,2.3417,2.6626,2.8998,2.9352,2.9975,3.0349,3.0314,2.8393,2.8374,3.1237,3.2716,3.5117,3.872,3.9932,4.087,4.1694,4.1745,4.181,4.181,4.1881,4.1748,4.1353,4.1609,4.1669,4.1688,4.2113,4.2117,4.1779,4.2151,4.1677,4.0629,4.0629,4.0189,3.9469,3.8725,3.8454,3.8217,3.6332,3.6129,3.6265,3.2618,3.1571,3.1272,2.8434,2.6404,2.4914,0.0,0.0,0.0,0.0,0.0,0.0,0.0,0.0,0.0,0.0,0.0,0.0,0.0,0.0,3.1254,0.0,0.0,3.7113,4.0328,4.1652,4.2727,4.3938,4.4085,4.4415,4.5186,4.5296,4.592,4.7516,4.8122,4.8343,4.8306,4.871,4.8862,4.8623,4.8268,4.8211,4.8438,4.7561,4.6717,4.5975,4.5735,4.5269,4.4612,4.4574,4.4536,4.4562,4.5283,4.5243,4.4575,4.5303,4.5594,4.5325,4.1901,4.0516,4.0516,4.0516,4.0516,4.0516,4.0516,4.0516,4.0131,0.0,0.0,0.0,0.0,0.0,0.0,0.0,2.1349,2.2517,2.3032,2.5665,2.742,2.7198,2.7165,2.6693,2.5476,2.6002,2.8272,3.2766,3.4747,3.7463,4.1405,4.174,4.2158,4.2846,4.2402,4.2144,4.2144,4.2703,4.2676,4.2207,4.2928,4.3043,4.2728,4.3486,4.3184,4.2262,4.3355,4.2638,4.0895,4.1257,4.0934,4.022,3.9993,3.9808,3.9503,3.8159,3.7009,3.5847,3.3863,3.2205,3.0751,2.9416,2.7537,2.5642,2.4745,2.3545,0.0,0.0,0.0,0.0,0.0,0.0,0.0,0.0,0.0,2.8939,3.1258,3.2762,3.4484,3.7082,3.8037,3.9549,4.2964,4.3625,4.3901,4.4415,4.4599,4.4966,4.559,4.581,4.6471,4.7939,4.882,4.9098,4.8439,4.9084,4.9344,4.9015,4.9123,4.9235,4.9363,4.7834,4.701,4.6986,4.5672,4.4964,4.4812,4.4977,4.5055,4.5066,4.5438,4.5594,4.5594,4.5594,4.5594,4.5402,4.2632,4.1093,4.0516,4.0516,4.0516,4.0516,4.0516,4.0516,4.0031,0.0,0.0,0.0,0.0,0.0,0.0,0.0,0.0,2.1628,2.1692,2.316,2.3942,2.3232,2.3627,2.4075,2.45,2.7776,3.1246,3.4541,3.6949,3.9753,4.3094,4.3243,4.3318,4.3391,4.3339,4.3321,4.3321,4.2899,4.3048,4.368,4.323,4.3713,4.4928,4.5035,4.5376,4.581,4.5305,4.453,4.3545,4.2508,4.1577,4.0687,3.953,3.8734,3.8058,3.7235,3.5554,3.366,3.2733,3.1427,3.0074,2.9281,2.7893,2.6285,2.4914,0.0,2.3139,2.2482,2.3042,0.0,2.6725,2.7577,2.887,0.0,0.0,3.4175,3.576,3.766,3.9171,3.9502,4.0765,4.2139,4.3331,4.4085,4.4342,4.3718,4.4268,4.4728,4.4819,4.548,4.625,4.7149,4.7957,4.8569,4.8813,4.8922,4.9106,4.9416,4.9445,4.9277,4.8883,4.8653,4.8028,4.6916,4.6733,4.6234,4.5475,4.5494,4.5503,4.5503,4.5577,4.5594,4.5594,4.5594,4.5594,4.5556,4.521,4.3247,4.0516,4.0516,4.0516,4.0516,4.0516,4.0516,4.0065,0.0,0.0,0.0,0.0,0.0,0.0,0.0,0.0,0.0,2.1504,2.2484,2.2834,2.1996,2.2049,2.2458,2.3108,2.6918,3.0879,3.4568,3.7592,4.0817,4.4341,4.4473,4.4617,4.491,4.4892,4.4892,4.4892,4.5131,4.5184,4.5074,4.541,4.566,4.5831,4.5902,4.5846,4.5763,4.5882,4.4984,4.3439,4.3369,4.2284,4.0569,3.9077,3.7213,3.5275,3.4938,3.366,0.0,3.077,2.9668,2.8703,2.8416,2.6962,2.5286,2.4677,2.4145,0.0,2.4356,0.0,0.0,0.0,3.0523,3.2697,3.4923,3.5846,3.6873,3.8907,4.0374,4.1442,4.1919,4.2543,4.3424,0.0,4.5186,4.5296,4.4929,4.5186,4.4944,4.3726,4.4716,4.6029,4.7325,4.8176,4.8813,4.9218,4.97,4.9905,4.9846,4.9859,4.986,4.9914,4.8917,4.8125,4.7577,4.6624,4.597,4.5594,4.5594,4.5594,4.5594,4.5594,4.5594,4.5594,4.5594,4.5594,4.5594,4.5594,4.4748,4.3478,4.3478,4.2428,4.0909,4.0909,4.0909,4.0733,0.0,0.0,0.0,0.0,0.0,0.0,0.0,0.0,0.0,0.0,2.1713,2.185,2.1235,2.1081,2.1389,2.2294,2.5716,2.9586,3.3722,3.7294,4.0754,4.4169,4.5006,4.5568,4.6044,4.6044,4.6138,4.625,4.6599,4.6562,4.6232,4.7001,4.7109,4.6799,4.688,4.6489,4.5831,4.6597,4.5595,4.3504,4.4121,4.2803,4.0288,3.8318,3.561,3.2827,3.2475,3.1094,2.9306,2.8165,2.7232,2.6607,2.681,2.5859,2.4626,2.4656,2.4399,2.4462,2.5997,0.0,0.0,3.0929,3.362,3.6245,3.7088,3.8089,3.9386,4.1368,4.2066,4.247,4.3057,4.3167,4.3534,4.4709,4.5366,4.5638,4.5417,4.5466,4.4856,4.314,4.3743,4.5036,4.6817,4.7835,4.8618,4.9277,4.9858,5.0212,5.0268,5.0279,5.038,5.0702,4.924,4.8355,4.8086,4.6663,4.5825,4.5594,4.5594,4.5594,4.5594,4.5594,4.5688,4.5809,4.5809,4.5733,4.5594,4.5594,4.5696,4.5809,4.5809,4.4479,4.25,4.1562,4.1211,4.1211,0.0,0.0,0.0,0.0,0.0,0.0,0.0,0.0,0.0,0.0,0.0,0.0,0.0,2.0342,2.0902,2.237,2.4765,2.7895,3.1921,3.6034,3.946,4.1996,4.4459,4.5989,4.6355,4.6424,4.6672,4.7076,4.6324,4.6324,4.7076,4.7094,4.7497,4.8231,4.8231,4.7808,4.7112,4.7882,4.6855,4.4656,4.497,4.3126,3.9895,3.7035,3.4023,3.1102,3.0004,2.7709,2.5123,2.4766,2.4135,2.3646,2.4372,2.4784,0.0,2.5045,2.4747,2.4823,0.0,0.0,3.0539,3.3968,3.6729,3.9004,4.0581,4.1572,4.2396,4.324,4.2837,4.2323,4.2323,4.2323,4.2359,4.2396,4.3976,4.4935,4.4153,4.4336,4.4242,4.3378,4.2574,4.2899,0.0,4.6328,4.7562,4.8717,4.8855,4.9389,5.0606,5.0692,5.0702,5.0712,4.9817,4.8933,4.8125,4.7278,4.6432,4.5594,4.5594,4.5594,4.5594,4.5594,4.5842,4.6288,4.6288,4.602,4.5594,4.5594,4.5869,4.6288,4.6288,4.6211,4.5742,4.2422,4.1211,4.1211,0.0,0.0,0.0,0.0,0.0,0.0,0.0,0.0,0.0,0.0,0.0,0.0,0.0,0.0,0.0,0.0,2.5839,2.8332,3.0811,3.4893,3.828,4.0588,4.362,4.5483,4.5931,4.6509,4.6915,4.7025,4.6492,4.6675,4.749,4.7224,4.7516,4.8269,4.7736,4.7626,4.7846,4.7058,4.592,4.4618,4.3615,4.1608,3.8802,3.5121,3.2379,3.0166,0.0,2.5628,2.4432,2.385,2.3476,2.3314,2.3545,2.3727,2.4043,2.5381,2.6401,2.7655,3.0146,0.0,3.5432,3.7683,3.968,4.1368,4.2433,4.291,4.2873,4.2066,4.0855,3.9606,3.8505,3.8899,3.974,4.0881,4.3108,4.4857,4.5148,4.5283,4.4939,4.3771,4.3882,0.0,0.0,0.0,0.0,4.9005,4.9179,4.9652,5.0664,5.0712,5.0712,5.0712,4.9856,4.924,4.8971,4.8125,4.7278,4.6471,4.5974,4.5696,4.5594,4.5594,4.5673,4.5847,4.6145,4.62,4.6053,4.6053,4.6144,4.6055,4.3789,4.3398,4.3828,4.1914,4.1211,4.1211,0.0,0.0,0.0,0.0,0.0,0.0,0.0,0.0,0.0,0.0,0.0,0.0,0.0,0.0,0.0,0.0,0.0,2.6969,2.8929,3.2423,3.5352,3.736,4.0387,4.2231,4.2711,4.329,4.3655,4.3762,4.3876,4.4334,4.5155,4.5403,4.5952,4.6744,4.6085,4.5957,4.6104,4.5039,4.3644,4.2029,4.1001,3.8762,3.5752,3.2509,3.0308,0.0,2.5677,2.4479,2.4157,2.3437,2.32,2.32,2.32,2.3673,2.4551,2.6209,2.8046,3.017,3.313,3.5862,3.8358,4.0267,4.1735,4.28,4.302,4.2837,4.2103,4.0194,3.8505,3.6949,3.5642,3.6054,3.7018,3.8396,4.0741,4.2924,4.4398,4.4735,4.4733,4.4468,4.4919,0.0,0.0,0.0,0.0,4.8346,4.8779,4.9317,5.0212,5.0519,5.0712,5.0712,5.0173,4.9702,4.9394,4.8908,4.8097,4.7016,4.6148,4.5722,4.5708,4.5795,4.5847,4.5864,4.6186,4.6289,4.6289,4.6289,4.6289,4.6094,4.3867,4.2734,4.2187,4.1484,4.1211,4.1133,0.0,0.0,0.0,0.0,0.0,0.0,0.0,0.0,0.0,0.0,0.0,0.0,0.0,0.0,0.0,0.0,0.0,0.0,2.6366,2.8934,3.1044,3.2622,3.5199,3.6795,3.7233,3.7291,3.7509,3.7866,3.8739,3.9564,4.0403,4.1716,4.2791,4.3624,4.3258,4.267,4.2009,4.1882,4.0084,3.7309,3.7235,3.4848,3.1176,2.95,2.7923,2.6392,2.4777,2.419,2.4122,2.3513,2.3389,2.3496,2.3496,2.4837,2.6607,2.7757,2.9818,3.2425,3.5605,3.7698,3.9496,4.1772,4.291,4.3204,4.2433,4.1552,4.0246,3.7801,3.5928,3.4458,0.0,0.0,3.4411,3.5243,3.7424,3.99,4.2446,4.3129,4.397,0.0,0.0,0.0,0.0,0.0,0.0,4.6912,0.0,4.8548,4.9433,5.0298,5.077,5.0731,5.0702,5.0327,4.9509,4.9575,4.8825,4.7328,4.6264,4.5807,4.5931,4.6195,4.6289,4.6289,4.6289,4.6289,4.6289,4.6289,4.6289,4.6289,4.625,4.4258,4.1367,4.1289,4.125,4.1094,0.0,0.0,0.0,0.0,0.0,0.0,0.0,0.0,0.0,0.0,0.0,0.0,0.0,0.0,0.0,0.0,0.0,0.0,2.5634,2.8096,2.9679,3.005,3.3122,3.4896,3.5016,3.5668,3.6051,3.6154,3.6065,3.648,3.7303,3.7376,3.7841,3.8588,3.7765,3.7604,3.7886,3.6536,3.5495,3.4651,3.3453,3.1971,3.0246,2.8033,2.6969,2.6392,2.4777,2.419,2.428,2.4709,0.0,0.0,0.0,2.87,3.0344,3.1849,3.399,3.6391,3.8447,4.0598,4.2396,4.302,4.291,4.2396,4.1589,3.9967,3.7923,3.5486,3.2827,3.0557,0.0,0.0,0.0,3.5001,3.9544,0.0,4.6302,4.678,0.0,0.0,0.0,4.7702,4.8355,4.7855,0.0,0.0,4.8647,4.9433,5.0327,5.1224,5.147,5.0851,5.0952,5.09,5.0673,5.0059,4.9557,4.9123,4.8292,4.7264,4.6037,4.6202,4.6289,4.6289,4.6289,4.6289,4.6289,4.6289,4.6289,4.6211,4.5351,4.4609,4.3867,4.2578,4.2109,4.1875,0.0,0.0,0.0,0.0,0.0,0.0,0.0,0.0,0.0,0.0,0.0,0.0,0.0,0.0,0.0,0.0,0.0,0.0,0.0,2.6582,2.7544,2.7475,2.9317,3.0353,3.0353,3.0799,3.103,3.1086,3.1589,3.2248,3.3073,3.3507,3.4117,3.486,3.4188,3.4041,3.4303,3.2921,3.1888,0.0,0.0,2.8594,2.742,2.6062,2.5548,2.5438,2.452,2.4887,2.5952,0.0,0.0,2.9647,3.0344,3.1665,3.3293,3.4945,0.0,3.8934,4.0702,4.2395,4.3775,4.3927,4.3088,4.1757,4.0205,3.8059,3.5465,3.2269,2.9973,0.0,0.0,0.0,0.0,0.0,0.0,0.0,4.5932,4.7086,4.8355,0.0,5.0164,0.0,5.0049,4.9285,4.8988,0.0,4.9482,4.9713,5.0279,5.1185,5.1431,5.1004,5.1053,5.1117,5.1129,5.0669,5.0261,4.9984,4.9391,4.8343,4.693,4.6482,4.6289,4.6289,0.0,4.6289,4.6289,4.6289,4.6289,4.625,4.5586,4.5117,4.4726,4.3784,4.3233,4.2724,0.0,0.0,0.0,0.0,0.0,0.0,0.0,0.0,0.0,0.0,0.0,0.0,0.0,0.0,0.0,0.0,0.0,0.0,0.0,0.0,2.5473,2.5424,2.542,2.542,2.542,2.537,2.5365,2.5413,2.6853,2.7911,2.8621,2.9841,3.0822,3.1546,3.1222,3.0984,3.0762,3.0044,2.8851,2.7343,2.6643,2.5537,2.4294,0.0,2.4275,2.4237,2.4209,2.5642,2.7805,0.0,3.0698,3.1311,3.2913,3.4527,3.6142,3.7823,3.9338,4.0861,4.2783,4.3759,4.431,4.4683,4.329,4.118,3.8707,3.6034,3.2956,2.9077,0.0,2.6745,2.6042,0.0,2.974,3.2523,0.0,3.9008,4.4239,4.6278,4.8211,5.0914,5.1645,5.1729,5.1298,5.0467,5.0267,5.1069,5.0309,4.9858,4.997,5.0801,5.1239,5.1139,5.1139,5.1186,5.1215,5.1215,5.0921,5.0351,5.0078,4.9297,4.8086,4.7109,4.6523,4.6289,4.6289,0.0,4.6289,4.6289,4.6289,4.6289,4.6289,4.5663,4.4802,4.4809,4.4278,4.3451,0.0,0.0,0.0,0.0,0.0,0.0,0.0,0.0,0.0,0.0,2.3506,0.0,0.0,0.0,0.0,0.0,0.0,0.0,0.0,0.0,0.0,2.5476,2.5473,2.5473,2.5473,2.546,2.5428,2.5413,2.5693,2.5867,2.5962,2.6194,2.6403,2.6551,2.6314,2.6184,2.6143,2.5884,2.5611,2.5324,2.5174,2.4956,2.4693,2.4693,0.0,0.0,2.4266,2.5023,2.6627,3.0352,3.3241,3.5532,3.7147,3.8747,4.0361,4.1956,4.2876,4.3744,4.5407,4.5686,4.5512,4.558,4.3265,4.0363,3.7853,3.4443,0.0,0.0,0.0,2.5609,2.5461,2.7412,0.0,3.4344,0.0,0.0,0.0,0.0,5.0209,0.0,0.0,0.0,0.0,0.0,0.0,0.0,0.0,5.0903,5.0865,5.176,5.1984,5.136,5.1361,5.1363,5.1366,5.1366,5.1327,5.1172,5.1133,5.0273,4.875,4.8555,4.7656,4.6289,4.6289,0.0,4.6289,4.6289,4.6289,4.6289,4.6195,4.6025,4.5746,4.5007,4.4153,4.3413,0.0,0.0,0.0,0.0,0.0,0.0,0.0,0.0,0.0,0.0,2.7039,2.6385,0.0,0.0,0.0,0.0,0.0,0.0,0.0,0.0,0.0,0.0,2.5535,2.5535,2.5535,2.5507,2.5493,2.5496,0.0,2.5379,2.5361,2.5337,2.5308,2.5303,2.5203,2.5099,2.4985,2.4943,2.485,2.4804,2.4804,2.4804,2.4804,0.0,0.0,0.0,0.0,0.0,2.6892,2.9757,3.2515,3.5343,3.8731,4.1218,4.3073,4.3856,4.4512,4.5289,4.6687,4.6897,4.6668,4.6439,4.3486,3.9881,3.6927,0.0,0.0,0.0,2.5784,2.5308,2.5308,0.0,0.0,0.0,0.0,0.0,0.0,0.0,0.0,0.0,0.0,0.0,0.0,0.0,0.0,0.0,0.0,5.127,5.1245,5.1696,5.1751,5.1406,5.1406,5.1406,5.1406,5.1406,5.1406,5.1406,5.0976,5.0351,4.9531,4.8633,4.7773,4.6953,4.6484,0.0,4.6199,4.6199,4.6149,4.6082,4.6008,4.5992,4.5942,4.5439,4.4999,4.4561,0.0,0.0,0.0,0.0,0.0,0.0,0.0,2.5774,2.7544,2.9396,3.0237,2.9874,2.7795,2.6697,2.5967,0.0,0.0,0.0,0.0,0.0,0.0,0.0,0.0,0.0,0.0,0.0,0.0,2.5602,2.5486,0.0,0.0,0.0,0.0,0.0,2.5308,2.5214,2.5071,2.5071,2.4999,0.0,0.0,2.4915,0.0,0.0,0.0,0.0,0.0,0.0,2.6994,0.0,3.0873,3.3441,3.7764,4.1262,4.3793,4.378,4.4915,4.6455,4.7788,4.8044,4.7886,4.754,4.4085,3.9854,3.6308,3.2314,0.0,0.0,2.5308,2.5308,2.5308,0.0,0.0,0.0,0.0,0.0,0.0,0.0,0.0,0.0,0.0,0.0,0.0,0.0,0.0,0.0,0.0,0.0,5.1406,5.1406,5.1406,5.1406,5.1406,5.1406,5.1406,5.1406,5.1406,5.1406,5.0742,5.0234,4.9842,4.8475,4.7614,4.7218,4.6515,0.0,0.0,4.6069,4.5992,4.5918,4.5891,4.5881,4.5867,4.579,4.5645,4.5392,0.0,0.0,0.0,0.0,0.0,0.0,0.0,2.6659,2.8659,3.116,3.1545,3.1204,3.0183,2.8718,2.7161,0.0,0.0,0.0,0.0,0.0,0.0,0.0,0.0,0.0,0.0,0.0,0.0,2.5602,2.5595,0.0,0.0,0.0,0.0,0.0,0.0,2.5298,2.5288,2.5288,0.0,0.0,0.0,0.0,0.0,0.0,0.0,0.0,0.0,0.0,0.0,0.0,0.0,3.1015,3.2979,3.71,4.1155,4.108,0.0,0.0,4.9425,4.9554,4.9212,4.9202,4.5393,4.0615,3.6423,0.0,0.0,2.6,2.5308,2.5308,2.5308,2.6154,2.789,0.0,0.0,3.6318,0.0,0.0,0.0,0.0,0.0,0.0,0.0,0.0,0.0,0.0,0.0,0.0,5.1406,5.1406,5.1406,5.1406,5.1406,5.1406,5.1406,5.1406,5.1406,5.1406,5.1328,5.0425,4.8833,4.8677,4.7669,4.6068,4.5952,0.0,0.0,4.5935,4.5931,4.5909,4.5825,4.5803,4.5783,4.5665,4.512,4.4542,0.0,0.0,0.0,0.0,0.0,0.0,0.0,2.7121,2.9006,3.2045,3.2429,3.2275,3.1929,3.0431,2.8352,0.0,0.0,0.0,0.0,0.0,0.0,0.0,0.0,0.0,0.0,0.0,0.0,2.6442,2.6939,0.0,0.0,0.0,0.0,0.0,0.0,2.5308,2.5308,2.5308,0.0,0.0,0.0,0.0,0.0,0.0,0.0,0.0,0.0,0.0,0.0,0.0,0.0,0.0,2.8269,3.1555,0.0,0.0,4.2967,4.6215,4.8928,4.9931,4.9933,4.8894,4.4432,3.9469,3.6231,0.0,2.7577,2.5692,2.5308,2.5462,2.6,2.6774,2.7999,2.9892,3.1187,0.0,0.0,0.0,0.0,0.0,0.0,0.0,0.0,0.0,0.0,0.0,0.0,0.0,5.1406,5.1406,5.1406,5.1406,5.1406,5.1406,5.1406,5.132,5.1271,5.1271,5.124,5.0579,4.934,4.8833,4.7876,4.6666,4.6117,0.0,0.0,4.5836,4.5783,4.5715,4.5681,4.5688,4.5673,4.5629,4.5364,4.5133,0.0,0.0,0.0,0.0,0.0,0.0,2.6351,2.7351,2.8929,3.1775,3.216,3.2275,3.2506,3.0814,2.8692,2.6348,0.0,0.0,0.0,0.0,0.0,0.0,0.0,0.0,0.0,0.0,0.0,2.7383,2.8198,2.8306,0.0,0.0,2.6673,2.5789,0.0,0.0,0.0,0.0,0.0,0.0,0.0,0.0,0.0,0.0,0.0,0.0,0.0,0.0,0.0,0.0,0.0,0.0,0.0,2.7538,3.1198,0.0,4.0585,4.4201,4.7086,4.8894,4.9586,4.8125,4.347,3.8561,0.0,0.0,2.6684,2.5601,2.5378,2.561,2.6507,2.7352,2.8229,2.9125,3.0191,3.2085,3.5437,0.0,0.0,0.0,0.0,0.0,0.0,0.0,0.0,0.0,0.0,0.0,0.0,5.1324,5.1324,5.1324,5.1324,5.1204,5.0923,5.1079,5.0898,5.0394,5.0863,5.0379,4.8992,4.8593,4.7789,4.6707,4.6075,0.0,0.0,4.574,4.5696,4.5594,4.5594,4.5594,4.5594,4.5594,4.5594,4.5594,0.0,0.0,0.0,0.0,0.0,0.0,0.0,2.7351,2.8506,3.0192,3.0423,3.0731,3.1621,2.9467,2.7895,2.7895,0.0,0.0,0.0,0.0,0.0,0.0,0.0,0.0,0.0,0.0,0.0,2.8281,2.9141,2.9568,2.9433,2.8572,2.7667,2.666,0.0,0.0,0.0,0.0,0.0,0.0,0.0,0.0,0.0,0.0,0.0,0.0,0.0,0.0,0.0,0.0,0.0,0.0,0.0,2.5923,2.7313,3.0775,3.6546,4.22,4.3893,4.6201,4.7932,4.7115,4.3085,3.8428,0.0,3.1028,2.7513,2.5823,2.5489,2.5763,2.6627,2.7515,2.8365,2.9266,3.0817,3.2831,3.5518,0.0,0.0,0.0,0.0,0.0,0.0,0.0,0.0,0.0,0.0,0.0,0.0,5.1204,5.1204,5.1204,5.1204,5.0742,4.9828,5.0671,5.0247,4.8548,5.0281,4.9709,4.7159,4.792,4.731,0.0,0.0,0.0,0.0,4.5594,4.5594,4.5594,4.5594,4.5594,4.5594,4.5594,4.5594,4.5594,0.0,0.0,0.0,0.0,0.0,0.0,0.0,2.5962,2.6731,2.8467,2.8698,2.9236,3.0654,2.9083,2.7927,2.7971,0.0,0.0,0.0,0.0,0.0,0.0,0.0,0.0,0.0,0.0,0.0,0.0,0.0,3.1914,3.1326,3.1003,2.9422,2.6809,2.6447,0.0,0.0,0.0,0.0,0.0,0.0,0.0,0.0,0.0,0.0,0.0,0.0,0.0,0.0,0.0,0.0,0.0,0.0,0.0,0.0,2.7841,3.2287,3.699,3.8722,4.0633,4.1805,4.0423,3.7124,3.3819,3.2158,2.8929,2.616,2.5603,2.5491,2.5958,2.7437,2.7901,2.8578,3.0065,3.1748,3.317,0.0,0.0,0.0,0.0,0.0,0.0,0.0,0.0,0.0,0.0,0.0,0.0,0.0,4.9683,4.9913,5.1074,5.1109,5.0979,5.0709,5.0297,5.0086,5.0125,4.942,4.8615,4.7777,4.7469,4.6703,0.0,0.0,0.0,0.0,4.5594,4.5594,4.5594,4.5594,4.5594,4.5594,4.5594,4.5594,4.5594,0.0,0.0,0.0,0.0,0.0,0.0,0.0,2.5308,2.5808,2.7236,2.7121,2.7698,2.9698,2.8121,2.7305,2.8343,0.0,0.0,0.0,0.0,0.0,0.0,0.0,0.0,0.0,0.0,0.0,0.0,0.0,0.0,0.0,0.0,0.0,2.7868,2.7461,0.0,0.0,0.0,0.0,0.0,0.0,0.0,2.5368,0.0,0.0,0.0,0.0,0.0,0.0,0.0,0.0,0.0,0.0,0.0,0.0,0.0,2.8737,3.1927,3.4298,3.6438,3.7683,3.6318,3.367,0.0,0.0,2.7766,2.5529,2.5585,2.5588,2.6016,2.7418,2.7964,2.8637,3.0065,3.1748,3.3119,0.0,0.0,0.0,0.0,0.0,0.0,0.0,0.0,0.0,0.0,0.0,0.0,0.0,4.8738,4.8905,4.9957,5.0013,4.9864,4.9531,4.9219,4.9003,4.8887,4.8351,4.7778,4.7163,4.6971,4.6432,0.0,0.0,0.0,0.0,4.5594,4.5594,4.5594,4.5594,4.5594,4.5594,4.5594,4.5594,4.5594,0.0,0.0,0.0,0.0,0.0,0.0,0.0,0.0,0.0,0.0,2.5808,2.6192,2.8588,2.6774,2.6346,0.0,0.0,0.0,0.0,0.0,0.0,0.0,0.0,0.0,0.0,0.0,0.0,3.3398,3.4414,3.5312,3.6094,0.0,0.0,0.0,2.8847,0.0,0.0,0.0,0.0,0.0,0.0,0.0,0.0,0.0,0.0,0.0,0.0,0.0,0.0,0.0,0.0,0.0,0.0,0.0,0.0,0.0,0.0,0.0,0.0,3.3223,0.0,0.0,0.0,0.0,2.9316,2.7311,0.0,2.5703,2.5703,2.6016,2.6992,2.7812,2.8633,2.9609,3.125,0.0,0.0,0.0,0.0,0.0,0.0,0.0,0.0,0.0,0.0,0.0,0.0,0.0,0.0,4.8125,4.8037,4.7942,4.8029,4.7766,4.7009,4.7663,4.7278,4.5787,4.724,4.7124,4.571,4.6471,4.6355,0.0,0.0,0.0,0.0,4.5594,4.5594,4.5594,4.5594,4.5594,4.5594,4.5594,4.5594,4.5594,0.0,0.0,0.0,0.0,0.0,0.0,0.0,0.0,0.0,0.0,0.0,2.5538,2.6115,2.6231,0.0,0.0,0.0,0.0,0.0,0.0,0.0,0.0,0.0,0.0,0.0,0.0,0.0,3.3398,3.5625,3.6797,3.6992,3.7461,0.0,0.0,0.0,0.0,0.0,0.0,0.0,0.0,0.0,0.0,0.0,0.0,0.0,0.0,2.5491,2.5491,0.0,0.0,0.0,0.0,0.0,0.0,0.0,0.0,2.5814,2.6125,2.6943,0.0,2.8774,2.7948,2.7293,2.6788,0.0,2.6091,2.5663,2.5703,2.5703,2.6367,2.8594,2.8594,2.9023,3.1211,3.3008,0.0,0.0,0.0,0.0,0.0,0.0,0.0,0.0,0.0,0.0,0.0,0.0,0.0,4.7251,4.6596,4.6232,4.621,4.6224,4.6724,4.7817,4.7394,4.7278,4.7509,4.6624,4.6317,4.6586,4.6124,4.5787,0.0,0.0,0.0,4.5594,4.5594,4.5594,4.5594,4.5594,4.5594,4.5594,4.5594,4.5594,4.5594,0.0,0.0,0.0,0.0,0.0,0.0,0.0,0.0,0.0,0.0,0.0,0.0,0.0,0.0,0.0,0.0,0.0,0.0,0.0,0.0,0.0,0.0,0.0,0.0,0.0,0.0,0.0,0.0,0.0,3.7695,0.0,0.0,0.0,0.0,0.0,0.0,0.0,0.0,0.0,0.0,2.6536,0.0,0.0,0.0,0.0,0.0,2.5597,2.5597,0.0,2.6536,2.6546,2.6321,0.0,0.0,0.0,0.0,2.5703,2.5703,2.5703,2.6326,2.6829,2.6406,2.6289,2.6289,2.6289,2.5977,2.5703,2.5703,0.0,2.625,2.8042,2.8314,2.8974,3.1107,3.3214,0.0,0.0,0.0,0.0,0.0,0.0,0.0,0.0,0.0,0.0,0.0,0.0,4.674,4.6317,4.5864,4.5594,4.5594,4.5594,4.6056,4.6932,4.6509,4.6509,4.6932,4.6018,4.5864,4.6278,4.5825,4.5594,0.0,0.0,0.0,4.5594,4.5594,4.5523,4.539,4.555,4.5419,4.518,4.5303,4.5263,4.512,0.0,0.0,0.0,0.0,0.0,0.0,0.0,0.0,0.0,0.0,0.0,0.0,0.0,0.0,0.0,0.0,0.0,0.0,0.0,0.0,0.0,0.0,0.0,0.0,2.9961,0.0,0.0,0.0,0.0,0.0,0.0,0.0,3.7266,0.0,0.0,0.0,0.0,0.0,0.0,0.0,2.7383,0.0,0.0,0.0,0.0,0.0,0.0,0.0,0.0,2.7422,2.7422,2.6914,2.7656,0.0,0.0,0.0,0.0,0.0,2.5703,2.6523,2.7265,2.6914,2.6914,2.6953,2.6836,0.0,0.0,0.0,0.0,0.0,0.0,2.8005,0.0,0.0,0.0,0.0,0.0,0.0,0.0,0.0,0.0,0.0,0.0,0.0,0.0,0.0,0.0,4.6394,4.5633,4.5594,4.5594,4.5594,4.5594,4.5594,4.5594,4.5594,4.5594,4.5594,4.5594,4.5594,4.5594,4.5594,4.5594,4.5594,0.0,0.0,4.5594,4.5594,4.5429,4.5201,4.5429,4.5191,4.4714,4.4931,4.4849,4.4599,0.0,0.0,0.0,0.0,0.0,0.0,0.0,0.0,0.0,0.0,0.0,0.0,0.0,0.0,0.0,0.0,0.0,0.0,0.0,0.0,0.0,0.0,0.0,2.9414,3.1758,3.1914,0.0,0.0,0.0,0.0,3.9922,4.1211,3.9609,3.5508,0.0,0.0,0.0,0.0,0.0,0.0,0.0,0.0,0.0,0.0,0.0,0.0,0.0,0.0,0.0,2.6016,2.6016,2.5937,2.6055,0.0,0.0,0.0,0.0,0.0,2.5703,2.7336,2.8533,2.6405,2.6445,2.6797,2.6055,0.0,0.0,0.0,0.0,0.0,0.0,0.0,0.0,0.0,0.0,0.0,0.0,0.0,0.0,0.0,0.0,0.0,0.0,0.0,0.0,0.0,0.0,0.0,4.5594,4.5594,4.5594,4.5594,4.5594,4.5594,4.5594,4.5594,4.5594,4.5594,4.5594,4.5594,4.5594,4.5594,4.5594,4.5594,0.0,4.5594,4.5594,4.5594,4.5568,4.5485,4.5263,4.5126,4.4988,4.4776,4.465,4.4572,0.0,0.0,0.0,0.0,0.0,0.0,0.0,0.0,0.0,0.0,0.0,0.0,0.0,0.0,0.0,0.0,0.0,0.0,0.0,0.0,0.0,0.0,3.1914,3.2109,3.2812,3.4219,0.0,0.0,0.0,4.1484,4.1914,4.0859,3.8555,3.5234,0.0,0.0,0.0,0.0,0.0,0.0,0.0,0.0,0.0,0.0,0.0,0.0,0.0,0.0,0.0,0.0,2.6406,2.6406,2.6363,0.0,0.0,0.0,0.0,0.0,2.5657,2.7155,2.8407,2.7298,2.8315,2.929,2.7968,0.0,0.0,0.0,0.0,0.0,0.0,0.0,0.0,0.0,0.0,0.0,0.0,0.0,0.0,0.0,0.0,0.0,0.0,0.0,0.0,0.0,0.0,0.0,4.5594,4.5594,4.5594,4.5594,4.5594,4.5594,4.5594,4.5594,4.5594,4.5594,4.5594,4.5594,4.5594,4.5594,4.5594,4.5586,0.0,4.5351,4.5341,4.512,4.4916,4.4762,4.4825,4.4574,4.4204,4.4065,4.3989,4.3974,0.0,0.0,0.0,0.0,0.0,0.0,0.0,0.0,0.0,0.0,0.0,0.0,0.0,0.0,0.0,0.0,0.0,0.0,0.0,0.0,3.2461,3.3086,3.4336,3.4961,3.4922,3.668,3.8555,4.0508,4.1992,4.3047,4.3633,4.0391,3.75,0.0,0.0,0.0,0.0,0.0,0.0,0.0,0.0,0.0,0.0,0.0,0.0,0.0,0.0,0.0,0.0,0.0,0.0,0.0,0.0,0.0,0.0,2.5793,2.5588,2.5588,2.5588,2.6794,2.8022,2.7819,2.9386,3.0876,0.0,0.0,0.0,0.0,0.0,0.0,0.0,0.0,0.0,0.0,0.0,0.0,0.0,0.0,0.0,0.0,0.0,0.0,0.0,0.0,0.0,0.0,0.0,0.0,4.5594,4.5594,4.5594,4.5594,4.5594,4.5568,4.5466,4.5283,4.5349,4.5594,4.5532,4.5466,4.5466,4.541,4.5381,4.5333,4.5077,4.4977,4.4954,4.4714,4.4401,4.4161,4.4359,4.4065,4.3515,4.3515,4.3515,4.3515,0.0,0.0,0.0,0.0,0.0,0.0,0.0,0.0,0.0,0.0,0.0,0.0,0.0,0.0,0.0,0.0,0.0,0.0,0.0,0.0,3.2226,3.2266,3.4609,3.6992,3.9375,3.8828,3.9726,4.2226,4.3164,4.3633,4.3633,4.1016,3.8398,3.582,0.0,0.0,0.0,0.0,0.0,0.0,0.0,0.0,0.0,0.0,0.0,0.0,0.0,0.0,0.0,0.0,0.0,0.0,0.0,0.0,2.5583,2.5539,2.5498,2.5498,2.5498,2.6718,2.7803,2.6994,2.7608,2.9171,3.2166,3.1564,0.0,3.4432,0.0,0.0,0.0,0.0,0.0,0.0,0.0,0.0,0.0,0.0,0.0,0.0,0.0,0.0,0.0,0.0,0.0,0.0,0.0,0.0,4.5594,4.5594,4.5594,4.5594,4.5594,4.5448,4.5148,4.4416,4.4547,4.5586,4.5273,4.5148,4.5137,4.4825,4.4688,4.4688,4.4663,4.465,4.465,4.4624,4.4599,4.4508,4.4175,4.3802,4.3515,4.3515,4.3515,4.3515,0.0,0.0,0.0,0.0,0.0,0.0,0.0,0.0,0.0,0.0,0.0,0.0,0.0,0.0,0.0,0.0,0.0,0.0,0.0,0.0,3.3203,3.3711,3.5703,3.7539,3.9062,4.0312,4.1953,4.4023,4.4336,4.4219,4.3633,4.1094,0.0,0.0,0.0,0.0,0.0,0.0,0.0,0.0,0.0,0.0,0.0,0.0,0.0,0.0,0.0,0.0,0.0,0.0,2.5491,2.5484,2.5434,2.5454,2.5484,2.5437,2.5457,2.5454,2.5454,2.7043,2.8618,2.827,2.927,3.0801,0.0,3.3302,3.3999,3.5271,3.6773,0.0,0.0,0.0,0.0,0.0,0.0,0.0,0.0,0.0,0.0,0.0,0.0,0.0,0.0,0.0,0.0,0.0,0.0,0.0,0.0,4.4298,4.3934,4.345,4.3896,4.3878,4.3232,4.3421,4.3479,4.345,4.3809,4.3978,4.4004,4.4411,4.4612,4.4599,4.4332,4.4219,4.4204,4.4004,4.3934,4.3918,4.3742,4.3614,4.3515,4.3515,4.3515,4.3515,0.0,0.0,0.0,0.0,0.0,0.0,0.0,0.0,0.0,0.0,0.0,0.0,0.0,0.0,0.0,0.0,0.0,0.0,0.0,0.0,3.3398,3.4258,3.5703,3.7148,3.8555,4.0586,4.2461,4.418,4.4453,4.4023,4.2851,0.0,0.0,0.0,0.0,0.0,0.0,0.0,0.0,0.0,3.0106,2.8911,0.0,0.0,0.0,0.0,0.0,0.0,0.0,0.0,2.5457,2.5447,2.5376,2.5402,2.5444,2.5379,2.5356,2.539,2.539,2.68,2.8396,2.8665,3.039,3.2506,3.4122,3.543,3.6808,3.8692,3.9623,0.0,0.0,0.0,0.0,0.0,0.0,0.0,0.0,0.0,0.0,0.0,0.0,0.0,0.0,0.0,0.0,0.0,0.0,0.0,0.0,4.3059,4.2674,4.2119,4.2636,4.2624,4.1958,4.2246,4.2044,4.1413,4.2224,4.2803,4.3173,4.3915,4.427,4.4256,4.3958,4.3833,4.3818,4.3597,4.3515,4.3515,4.3515,4.3515,4.3515,4.3515,4.3515,4.3515,0.0,0.0,0.0,0.0,0.0,0.0,0.0,0.0,0.0,0.0,0.0,0.0,0.0,0.0,0.0,0.0,0.0,0.0,0.0,3.1169,3.2539,3.3359,3.4219,3.5898,3.8516,3.9414,4.0703,4.2383,4.3242,4.2812,4.1172,3.9414,0.0,0.0,0.0,0.0,0.0,0.0,0.0,0.0,3.003,2.8824,0.0,0.0,0.0,0.0,0.0,0.0,0.0,0.0,2.5308,2.5308,2.5308,2.5308,2.5308,2.5308,2.5308,2.5308,2.5308,2.5962,2.6813,2.7698,0.0,0.0,3.7238,3.8007,3.97,4.5663,4.4154,4.1808,4.1808,0.0,0.0,0.0,0.0,0.0,0.0,0.0,0.0,0.0,0.0,0.0,0.0,0.0,0.0,0.0,0.0,0.0,0.0,4.2069,4.2069,4.2069,4.2069,4.1907,4.1567,4.0784,4.0214,3.99,4.0691,4.1667,4.2805,4.3275,4.3515,4.3515,4.3515,4.3515,4.3515,4.3515,4.3515,4.3515,4.3515,4.3515,4.3515,4.3515,4.3515,4.3515,0.0,0.0,0.0,0.0,0.0,0.0,0.0,0.0,0.0,0.0,0.0,0.0,0.0,0.0,0.0,0.0,0.0,0.0,0.0,3.0271,3.168,3.2539,3.3945,3.5078,3.5859,3.7258,3.9445,4.2383,4.2611,4.2131,0.0,0.0,0.0,3.6495,0.0,0.0,0.0,0.0,0.0,0.0,3.1262,3.0169,0.0,0.0,0.0,0.0,0.0,0.0,0.0,0.0,0.0,0.0,2.5308,2.5731,2.6077,2.55,2.5731,2.6192,2.6192,2.6851,0.0,3.0044,0.0,0.0,0.0,3.9323,0.0,0.0,4.2931,4.2,0.0,0.0,0.0,0.0,0.0,0.0,0.0,0.0,0.0,0.0,0.0,0.0,0.0,0.0,0.0,0.0,0.0,0.0,0.0,4.0663,4.0281,3.974,4.0259,4.0237,3.9586,3.9881,3.9709,3.9056,3.9863,4.0735,4.1636,4.2316,4.2947,4.3478,4.291,4.2983,4.3515,4.3515,4.3515,4.3515,4.3515,4.3515,4.3515,4.3515,4.3515,4.3515,0.0,0.0,0.0,0.0,0.0,0.0,0.0,0.0,0.0,0.0,2.5348,2.5372,0.0,0.0,0.0,0.0,0.0,0.0,0.0,0.0,3.0898,3.2064,3.3079,3.4092,3.5096,3.6789,3.8354,0.0,0.0,0.0,0.0,0.0,0.0,3.7204,0.0,3.6939,0.0,0.0,3.26,3.2197,3.1878,3.0706,2.9088,0.0,0.0,0.0,0.0,0.0,0.0,0.0,0.0,0.0,2.5308,2.5654,2.5962,2.5462,2.5654,2.6154,2.6505,2.7736,0.0,3.2045,3.5122,3.82,4.0893,0.0,0.0,0.0,0.0,0.0,0.0,0.0,0.0,0.0,0.0,0.0,0.0,0.0,0.0,0.0,0.0,0.0,0.0,0.0,0.0,0.0,0.0,0.0,0.0,3.8951,3.8542,3.8689,3.8872,3.8872,3.8689,3.9166,3.9166,3.8726,3.9533,4.0157,4.0671,4.1479,4.2103,4.2543,4.2359,4.2763,4.3515,4.3515,4.3515,4.3515,4.3515,4.3515,4.3515,4.3515,4.3515,4.3515,0.0,0.0,0.0,0.0,0.0,0.0,0.0,0.0,0.0,0.0,2.5451,2.5491,0.0,0.0,0.0,0.0,0.0,0.0,0.0,0.0,3.019,3.1798,3.226,3.3519,3.5751,0.0,0.0,0.0,0.0,0.0,0.0,0.0,3.9413,3.9185,0.0,3.94,0.0,3.4853,3.3314,3.2391,3.1737,3.0467,2.8973,2.8973,0.0,0.0,0.0,0.0,0.0,0.0,0.0,0.0,2.5308,2.5346,2.5385,2.5308,2.5346,2.5615,2.6582,2.8577,3.1077,3.3853,3.7707,0.0,4.2906,4.5051,4.6482,0.0,0.0,0.0,0.0,0.0,0.0,0.0,0.0,0.0,0.0,0.0,0.0,0.0,0.0,0.0,0.0,0.0,0.0,0.0,0.0,0.0,0.0,3.7074,3.7,3.8542,3.7896,3.7896,3.8689,3.8615,3.8579,3.8615,3.9239,3.957,3.9606,4.0561,4.0985,4.1022,4.1919,4.2727,4.3387,4.3478,4.3515,4.3515,4.3515,4.3515,4.3515,4.3515,4.3515,4.3515,0.0,0.0,0.0,0.0,0.0,0.0,0.0,0.0,0.0,0.0,0.0,0.0,0.0,0.0,0.0,0.0,0.0,0.0,0.0,0.0,2.9234,3.0897,3.4166,3.6161,0.0,0.0,0.0,0.0,0.0,0.0,0.0,0.0,0.0,3.7364,0.0,3.7165,3.2968,3.1731,3.0352,2.9011,2.9473,2.905,2.8165,2.8165,2.739,0.0,0.0,0.0,0.0,0.0,0.0,0.0,2.5308,2.5769,2.6192,2.55,2.5769,2.6659,2.8159,2.9467,0.0,0.0,4.0354,4.3696,4.4488,4.5086,4.5148,0.0,0.0,0.0,0.0,0.0,0.0,0.0,0.0,0.0,0.0,0.0,0.0,0.0,0.0,0.0,0.0,0.0,0.0,0.0,0.0,0.0,3.6817,3.6486,3.6743,3.7749,3.7603,3.7896,3.8689,3.8065,3.7749,0.0,3.7294,3.7074,3.7147,3.9203,4.0157,4.023,4.1662,4.2396,4.2616,4.3258,4.3515,4.3515,4.3515,4.3515,4.3515,4.3515,4.3515,4.3515,0.0,0.0,0.0,0.0,0.0,0.0,0.0,0.0,0.0,0.0,0.0,0.0,0.0,0.0,0.0,0.0,0.0,0.0,0.0,0.0,0.0,0.0,3.4675,3.6063,0.0,0.0,0.0,0.0,0.0,0.0,0.0,0.0,0.0,3.6731,0.0,3.5892,3.2199,3.0923,2.966,2.8511,2.8934,2.8626,2.7895,2.7895,2.7082,2.5923,2.5462,0.0,0.0,0.0,0.0,0.0,0.0,0.0,2.5885,2.5423,2.5923,2.689,2.8165,3.0314,0.0,3.8827,0.0,4.4727,4.4817,4.4861,4.4528,0.0,0.0,0.0,0.0,0.0,0.0,0.0,0.0,0.0,0.0,0.0,0.0,0.0,0.0,0.0,0.0,0.0,0.0,0.0,0.0,3.5862,3.6266,3.5532,3.5642,3.6905,3.6942,3.7125,3.7551,3.7529,3.7309,3.6942,3.6486,3.6486,3.6942,3.819,3.9182,3.9937,4.0781,4.1368,4.1772,4.2176,4.258,4.291,4.291,4.3167,4.3515,4.3515,4.3515,4.3515,0.0,0.0,0.0,0.0,0.0,0.0,0.0,0.0,0.0,0.0,0.0,0.0,0.0,0.0,0.0,0.0,0.0,0.0,0.0,0.0,0.0,0.0,0.0,3.4853,0.0,0.0,0.0,0.0,0.0,0.0,0.0,0.0,0.0,3.65,0.0,3.5084,3.2583,3.0885,2.9583,2.8665,2.8665,2.8165,2.7467,0.0,0.0,2.5308,2.5308,2.5308,2.5308,2.5308,0.0,0.0,0.0,0.0,2.5234,2.5234,2.5777,2.6551,2.7588,3.1104,3.576,4.0978,4.3547,0.0,4.4523,4.4406,0.0,0.0,0.0,0.0,0.0,0.0,0.0,0.0,0.0,0.0,0.0,0.0,0.0,0.0,0.0,0.0,0.0,0.0,0.0,0.0,0.0,3.5114,3.5826,3.4541,3.4504,3.6046,3.6083,3.6156,3.6303,3.6831,3.6707,3.6083,3.5936,3.6376,3.7309,3.7309,3.819,3.968,3.9827,4.0267,4.0912,4.1022,4.1499,4.2103,4.2249,4.2727,4.3314,4.3441,4.3515,4.3515,0.0,0.0,0.0,0.0,0.0,0.0,0.0,0.0,0.0,0.0,2.5703,2.5703,0.0,0.0,0.0,0.0,0.0,0.0,0.0,0.0,0.0,0.0,0.0,0.0,0.0,0.0,0.0,0.0,0.0,0.0,0.0,0.0,0.0,3.5654,0.0,0.0,3.1737,3.0006,2.8352,2.6928,2.6928,2.6428,2.5654,0.0,0.0,0.0,0.0,2.5308,2.5308,2.5308,2.5192,0.0,0.0,0.0,2.5053,2.5053,2.5136,2.5556,2.7205,0.0,3.6663,0.0,4.2519,4.3655,0.0,0.0,0.0,0.0,0.0,0.0,0.0,0.0,0.0,0.0,0.0,0.0,0.0,0.0,0.0,0.0,0.0,0.0,0.0,0.0,0.0,0.0,3.4417,3.4027,3.4137,3.3917,3.4211,3.5151,3.5188,3.5518,3.6303,3.5665,3.5298,3.5188,3.4468,3.4945,3.645,3.645,3.7331,3.8909,3.9606,3.9974,4.012,4.0802,4.1168,4.1315,4.2029,4.2359,4.2543,4.3258,4.3515,4.3515,0.0,0.0,0.0,0.0,0.0,0.0,0.0,0.0,0.0,0.0,0.0,2.5703,0.0,0.0,0.0,0.0,0.0,0.0,0.0,0.0,0.0,0.0,0.0,0.0,0.0,0.0,0.0,0.0,0.0,0.0,0.0,3.5269,3.6269,0.0,0.0,0.0,0.0,0.0,2.7274,2.6544,2.6077,2.5654,0.0,0.0,0.0,0.0,0.0,0.0,0.0,0.0,2.5229,2.5133,2.5053,0.0,0.0,0.0,2.5225,2.625,2.9338,3.236,3.5491,0.0,4.123,4.2455,4.2934,0.0,0.0,0.0,0.0,0.0,0.0,0.0,0.0,0.0,0.0,0.0,0.0,0.0,0.0,0.0,0.0,0.0,0.0,0.0,0.0,0.0,3.399,3.3807,3.3807,3.3807,3.3954,3.4307,3.4747,3.4968,3.4908,3.4968,3.4784,3.4307,3.4908,3.5569,3.634,3.7221,3.8028,3.8726,3.9056,3.9239,3.9276,3.9606,4.0288,4.1132,4.1499,4.2176,4.302,4.3351,4.3515,4.3515,0.0,0.0,0.0,0.0,0.0,0.0,0.0,0.0,0.0,0.0,0.0,0.0,0.0,0.0,0.0,0.0,0.0,0.0,0.0,0.0,0.0,0.0,0.0,0.0,0.0,0.0,0.0,0.0,0.0,0.0,3.4853,3.5269,3.7084,0.0,3.5699,0.0,0.0,0.0,0.0,0.0,0.0,0.0,0.0,0.0,0.0,0.0,0.0,0.0,0.0,0.0,0.0,0.0,0.0,0.0,0.0,0.0,0.0,2.6357,0.0,0.0,3.3146,3.641,3.8765,4.0459,0.0,0.0,0.0,0.0,0.0,0.0,0.0,0.0,0.0,0.0,0.0,0.0,0.0,0.0,0.0,0.0,0.0,0.0,0.0,0.0,0.0,0.0,3.3917,3.3807,3.3807,3.3807,3.3807,3.3807,3.438,3.4417,3.3807,3.438,3.438,3.3807,3.5055,3.5752,3.6009,3.7441,3.8212,3.8395,3.8615,3.8689,3.8689,3.8689,3.9407,4.0508,4.0728,4.1662,4.291,4.313,4.3331,4.3515,0.0,0.0,0.0,0.0,0.0,0.0,0.0,0.0,0.0,0.0,0.0,0.0,0.0,0.0,0.0,2.5602,0.0,0.0,0.0,0.0,0.0,0.0,0.0,0.0,0.0,0.0,0.0,0.0,0.0,0.0,3.6538,3.5846,3.7692,4.15,3.8038,3.4731,3.1737,0.0,0.0,0.0,0.0,0.0,0.0,0.0,0.0,0.0,0.0,0.0,0.0,0.0,0.0,0.0,0.0,0.0,0.0,0.0,0.0,0.0,0.0,2.7618,0.0,3.1701,3.4387,0.0,0.0,0.0,0.0,0.0,0.0,0.0,0.0,0.0,0.0,0.0,0.0,0.0,0.0,0.0,0.0,0.0,0.0,0.0,0.0,0.0,0.0,0.0,3.4234,3.3807,3.3807,3.3807,3.3807,3.3807,3.3844,3.3844,3.3807,3.3844,3.3844,3.3807,3.388,3.4321,3.5114,3.6009,3.6817,3.7603,3.8358,3.8689,3.8689,3.8689,3.8762,3.8909,3.9643,4.0487,4.1315,4.2103,4.2837,4.3515,0.0,0.0,0.0,0.0,0.0,0.0,0.0,0.0,0.0,0.0,0.0,0.0,0.0,2.6115,2.6403,2.6416,2.684,0.0,0.0,0.0,0.0,0.0,0.0,0.0,0.0,0.0,0.0,0.0,0.0,3.1731,3.4276,3.4545,3.5161,3.6084,3.5962,3.5269,3.3962,3.1198,0.0,0.0,0.0,0.0,0.0,0.0,0.0,0.0,0.0,0.0,0.0,0.0,0.0,0.0,0.0,0.0,0.0,0.0,0.0,0.0,0.0,0.0,0.0,3.0867,3.3127,3.4981,3.6068,0.0,0.0,0.0,0.0,0.0,0.0,0.0,0.0,0.0,0.0,0.0,0.0,0.0,0.0,0.0,0.0,0.0,0.0,0.0,0.0,0.0,0.0,3.3807,3.3807,3.3807,3.3807,3.3807,3.3807,3.3807,3.3807,3.3807,3.3807,3.3807,3.4307,3.4711,3.5041,3.645,3.7235,3.7529,3.8358,3.8689,3.8689,3.8689,3.9019,3.9496,3.979,4.0708,4.1919,4.2176,4.28,4.3515,0.0,0.0,0.0,0.0,0.0,0.0,0.0,0.0,0.0,0.0,0.0,0.0,0.0,0.0,2.7234,2.7257,2.7711,2.8126,2.8361,2.8322,0.0,0.0,0.0,0.0,0.0,0.0,0.0,0.0,0.0,0.0,0.0,3.3506,3.3776,3.3814,3.4385,3.4462,0.0,0.0,0.0,2.9762,0.0,0.0,2.8601,0.0,0.0,0.0,0.0,0.0,0.0,0.0,0.0,0.0,0.0,0.0,0.0,0.0,0.0,0.0,2.5511,0.0,0.0,0.0,3.1201,3.2485,3.3537,0.0,0.0,0.0,0.0,0.0,0.0,0.0,0.0,0.0,0.0,0.0,0.0,0.0,0.0,0.0,0.0,0.0,0.0,0.0,0.0,0.0,0.0,0.0,3.3807,3.3807,3.3807,3.3807,3.3807,3.3807,3.3807,3.3807,3.3807,3.3807,3.4344,3.4601,3.4637,3.6046,3.6817,3.7125,3.7955,3.8469,3.8689,3.8689,3.9019,3.9496,3.9496,4.0487,4.1919,4.1919,4.258,4.3515,0.0,0.0,0.0,0.0,0.0,0.0,0.0,0.0,0.0,0.0,0.0,0.0,0.0,0.0,0.0,2.8104,2.8096,2.84,2.9094,2.9127,0.0,0.0,0.0,0.0,0.0,2.9967,0.0,0.0,0.0,0.0,0.0,0.0,3.3731,3.5262,3.3615,3.2378,3.168,0.0,3.221,3.1196,0.0,3.0354,3.0763,0.0,0.0,0.0,2.8522,2.786,0.0,0.0,0.0,0.0,0.0,0.0,0.0,0.0,0.0,0.0,0.0,0.0,0.0,0.0,0.0,0.0,3.0907,0.0,0.0,0.0,0.0,0.0,0.0,0.0,0.0,0.0,0.0,0.0,0.0,0.0,0.0,0.0,0.0,0.0,0.0,0.0,0.0,0.0,3.4234,3.3807,3.3807,3.3807,3.3807,3.3807,3.3807,3.3807,3.3807,3.3807,3.3807,3.3807,3.3807,3.3807,3.3844,3.4674,3.5481,3.634,3.7199,3.797,3.8689,3.8689,3.8689,3.8689,3.8689,3.9664,4.1095,4.1095,4.2139,4.3515,0.0,0.0,0.0,0.0,0.0,0.0,0.0,0.0,0.0,0.0,0.0,0.0,0.0,0.0,0.0,3.0645,3.0673,3.0502,3.0083,3.0038,3.0154,3.0385,3.0385,3.0308,3.0038,3.0269,3.0269,3.0038,3.0269,3.0654,3.1077,3.1077,0.0,0.0,3.1666,3.1203,3.0265,3.0646,0.0,0.0,2.9973,3.0001,0.0,0.0,0.0,0.0,0.0,2.9549,0.0,0.0,2.7787,2.6917,0.0,0.0,0.0,0.0,0.0,0.0,2.5768,0.0,0.0,0.0,0.0,0.0,2.8558,3.0467,3.1911,0.0,0.0,0.0,0.0,0.0,0.0,0.0,0.0,0.0,0.0,0.0,0.0,0.0,0.0,0.0,0.0,0.0,0.0,0.0,3.4234,3.3807,3.3807,3.3807,3.3807,3.3807,3.3807,3.3807,3.3807,3.3807,3.3807,3.3807,3.3807,3.3807,3.3844,3.5275,3.6083,3.6376,3.7771,3.8505,3.8689,3.8689,3.8689,3.8689,3.8689,3.9664,4.1095,4.1095,4.2139,4.3515,0.0,0.0,0.0,0.0,0.0,0.0,0.0,0.0,0.0,0.0,0.0,0.0,0.0,0.0,0.0,3.2166,3.1891,3.1468,3.0962,3.0615,3.0385,3.0385,3.0385,3.0385,3.0385,3.0385,3.0385,3.0385,3.0385,3.0349,3.0241,3.0241,0.0,0.0,0.0,0.0,0.0,0.0,0.0,0.0,2.963,0.0,0.0,3.0244,3.0723,0.0,0.0,0.0,3.1494,2.9977,2.8741,0.0,0.0,0.0,0.0,0.0,0.0,0.0,0.0,0.0,0.0,0.0,0.0,0.0,2.8117,2.9659,3.0687,0.0,0.0,0.0,0.0,0.0,0.0,0.0,0.0,0.0,0.0,0.0,0.0,0.0,0.0,0.0,0.0,3.5899,3.5789,3.4601,3.4064,3.3807,3.3807,3.3807,3.3807,3.3807,3.3807,3.3807,3.3807,3.3807,3.3739,3.355,3.3739,3.3606,3.3306,3.4987,3.5849,3.6082,3.7564,3.8395,3.8689,3.8689,3.8689,3.8726,3.9056,3.9974,4.1132,4.1462,4.2396,4.3515,0.0,0.0,0.0,0.0,0.0,0.0,0.0,0.0,0.0,0.0,0.0,0.0,0.0,0.0,0.0,0.0,3.2352,3.1814,3.1737,3.0885,0.0,0.0,3.0385,3.0385,3.0385,3.0385,3.0373,3.0355,3.0355,3.0235,2.9969,2.9969,2.9861,0.0,0.0,0.0,0.0,0.0,0.0,2.9492,2.9492,3.0257,0.0,0.0,3.2339,0.0,3.2779,3.3036,3.344,3.1127,2.9255,0.0,0.0,0.0,0.0,0.0,2.6722,0.0,0.0,0.0,0.0,0.0,0.0,0.0,2.8693,2.95,2.9867,2.9133,0.0,0.0,0.0,0.0,0.0,0.0,0.0,0.0,0.0,0.0,0.0,0.0,0.0,0.0,3.4064,3.5275,3.5532,3.4064,3.3844,3.3807,3.3807,3.3807,3.3793,3.3716,3.3753,3.3689,3.3648,3.3689,3.355,3.3181,3.3606,3.3386,3.2699,3.4222,3.5192,3.5747,3.6848,3.7811,3.8611,3.8564,3.8648,3.8909,3.9606,4.0451,4.1315,4.2029,4.28,4.3515,0.0,0.0,0.0,0.0,0.0,0.0,0.0,0.0,0.0,0.0,0.0,0.0,0.0,0.0,0.0,0.0,0.0,3.2468,0.0,0.0,3.0385,3.0385,3.0385,3.0385,3.0385,3.0385,3.0279,3.0095,3.0095,2.9962,2.9754,2.9754,2.9662,2.9464,0.0,0.0,0.0,0.0,0.0,3.0035,3.0035,0.0,3.1397,3.1397,3.2008,3.2729,3.1935,3.2559,3.3513,0.0,3.0099,2.862,0.0,0.0,0.0,0.0,0.0,0.0,0.0,0.0,0.0,0.0,0.0,0.0,2.8007,2.8656,2.9207,0.0,0.0,0.0,0.0,0.0,0.0,0.0,0.0,0.0,0.0,0.0,0.0,0.0,0.0,0.0,3.4784,3.5078,3.5114,3.4784,3.4174,3.3807,3.3807,3.3807,3.3634,3.335,3.3335,3.3136,3.2743,3.3121,3.3291,3.3181,3.3606,3.3689,3.3587,3.4228,3.5139,3.6171,3.6262,3.6948,3.8032,3.7632,3.8361,3.968,3.9827,4.0781,4.2103,4.2249,4.28,4.3515,0.0,0.0,0.0,0.0,0.0,0.0,0.0,0.0,0.0,0.0,0.0,0.0,0.0,0.0,0.0,0.0,0.0,0.0,0.0,0.0,0.0,3.1654,3.1654,3.1578,3.144,3.1064,3.0706,3.0444,3.0035,2.9738,2.9542,2.9542,2.9444,2.9211,0.0,0.0,0.0,0.0,2.9464,3.021,3.021,0.0,3.2008,3.2008,3.2485,3.3146,3.2742,3.2596,3.2522,3.2155,3.0638,0.0,0.0,2.8106,2.7886,0.0,2.8411,2.8473,0.0,0.0,0.0,2.8411,0.0,0.0,0.0,2.8693,2.9097,2.95,2.928,0.0,0.0,0.0,0.0,0.0,0.0,0.0,0.0,0.0,0.0,0.0,0.0,0.0,3.438,3.4747,3.4821,3.4417,3.3826,3.3508,3.3508,3.327,3.3166,3.3181,3.2968,3.2858,3.2858,3.2858,3.2711,3.25,3.3311,3.3295,3.2551,3.435,3.5165,3.5306,3.6203,3.695,3.756,3.7693,3.854,3.9698,3.9698,4.0401,4.152,4.188,4.2296,4.2657,0.0,0.0,0.0,0.0,0.0,0.0,0.0,0.0,0.0,0.0,0.0,0.0,0.0,0.0,0.0,0.0,0.0,0.0,0.0,0.0,0.0,0.0,3.2897,3.2725,3.2515,3.1797,3.1248,3.0838,3.017,2.9673,2.9301,2.9301,2.9222,0.0,0.0,0.0,0.0,0.0,0.0,3.065,0.0,3.1445,3.2619,3.2766,3.322,3.3807,3.3807,3.2852,3.1715,3.2362,0.0,2.9684,2.95,2.9354,0.0,0.0,0.0,0.0,0.0,0.0,0.0,0.0,0.0,2.9427,0.0,0.0,0.0,2.9879,0.0,0.0,0.0,0.0,0.0,0.0,0.0,0.0,0.0,0.0,0.0,0.0,0.0,0.0,0.0,3.4325,3.4365,3.3601,3.324,3.306,3.306,3.2715,3.2614,3.2937,3.2549,3.257,3.3025,3.2747,3.2406,3.2032,3.3231,3.3071,3.1758,3.4361,3.5177,3.4634,3.6034,3.6821,3.7091,3.7727,3.8459,3.9223,3.957,4.0161,4.0919,4.1541,4.181,4.181,3.4414,3.457,0.0,0.0,0.0,0.0,0.0,0.0,0.0,0.0,0.0,0.0,0.0,0.0,0.0,0.0,0.0,0.0,3.5346,0.0,0.0,0.0,0.0,0.0,3.2515,3.219,3.1543,3.0617,3.0543,2.9996,2.9033,2.9033,2.9021,0.0,2.8987,0.0,0.0,0.0,3.0944,0.0,3.2326,3.2436,0.0,3.3403,3.3733,3.3807,3.3807,3.322,3.2472,0.0,3.2399,3.2069,0.0,3.065,0.0,0.0,0.0,0.0,0.0,0.0,0.0,0.0,3.114,0.0,0.0,0.0,2.9867,2.9244,0.0,0.0,0.0,0.0,0.0,0.0,0.0,0.0,0.0,0.0,0.0,0.0,0.0,0.0,0.0,3.3553,3.3198,3.2699,3.2617,3.2601,3.2601,3.2551,3.2315,3.1969,3.1897,3.2044,3.2383,3.2769,3.2919,3.2882,3.4021,3.4147,3.3354,3.3988,3.4831,3.5678,3.5063,3.5441,3.6527,3.6862,3.7421,3.8229,3.9869,4.0954,4.1648,4.1775,4.181,4.181,3.4639,3.5066,0.0,0.0,0.0,0.0,0.0,0.0,0.0,0.0,0.0,0.0,0.0,0.0,0.0,0.0,0.0,4.0123,0.0,0.0,0.0,0.0,0.0,0.0,0.0,3.3189,3.2348,3.1751,3.084,3.0155,2.9684,2.9207,2.9244,0.0,2.9684,0.0,3.0907,0.0,0.0,0.0,0.0,0.0,0.0,3.366,3.3807,3.3807,3.3807,3.3293,3.2583,0.0,3.2302,0.0,0.0,0.0,0.0,0.0,0.0,0.0,0.0,0.0,0.0,0.0,0.0,0.0,0.0,0.0,3.0509,0.0,0.0,0.0,0.0,0.0,0.0,0.0,2.9116,0.0,0.0,0.0,0.0,0.0,0.0,0.0,0.0,0.0,0.0,0.0,3.2247,3.2092,3.2092,3.186,3.1751,3.1789,3.1994,3.231,3.2696,3.3043,3.3242,3.3242,3.4129,3.4194,3.3505,3.45,3.5021,3.5125,3.564,3.5858,3.6056,3.7498,3.799,3.8072,3.9684,4.0515,4.0814,4.0814,4.0814,4.0814,0.0,0.0,0.0,0.0,0.0,0.0,0.0,0.0,0.0,0.0,0.0,0.0,4.6479,4.7095,0.0,0.0,0.0,4.4393,0.0,0.0,3.7669,0.0,0.0,0.0,0.0,0.0,3.3241,3.2583,3.1408,3.076,3.0503,2.9721,2.9769,3.054,0.0,3.098,3.1751,0.0,0.0,3.2913,3.2913,3.3293,3.3807,3.3807,3.3807,3.3807,3.3807,3.344,3.2913,3.2913,3.2559,0.0,3.2045,0.0,0.0,0.0,0.0,0.0,3.0944,0.0,0.0,0.0,0.0,0.0,0.0,0.0,0.0,0.0,0.0,0.0,0.0,0.0,0.0,0.0,0.0,0.0,0.0,0.0,0.0,0.0,0.0,0.0,0.0,0.0,0.0,0.0,0.0,3.1416,3.1623,3.1351,3.1434,3.1932,3.2168,3.2678,3.3412,3.3611,3.3694,3.3728,3.4438,3.4404,3.3728,3.5025,3.5318,3.4878,3.5994,3.6129,3.5769,3.7855,3.8396,3.8058,3.9512,4.0113,4.0113,4.0113,4.0113,4.0113,3.5683,3.5788,0.0,0.0,0.0,0.0,0.0,0.0,0.0,0.0,0.0,0.0,0.0,0.0,0.0,0.0,0.0,4.6769,4.6615,0.0,3.8106,0.0,0.0,0.0,0.0,0.0,0.0,0.0,3.2546,3.2118,3.136,3.054,3.0577,3.136,3.136,3.1825,3.2619,3.3403,3.3733,3.377,3.377,3.377,3.3807,0.0,3.3807,3.3807,3.3807,0.0,0.0,3.377,3.3733,0.0,0.0,0.0,0.0,0.0,0.0,0.0,0.0,0.0,0.0,3.355,0.0,0.0,0.0,0.0,3.1672,0.0,0.0,0.0,0.0,0.0,0.0,0.0,0.0,0.0,0.0,0.0,0.0,0.0,0.0,0.0,0.0,0.0,0.0,0.0,0.0,0.0,3.1196,3.121,3.1515,3.2246,3.2293,3.297,3.4426,3.446,3.4438,3.4472,3.5216,3.5182,3.4472,3.5228,3.56,3.5566,3.5633,3.5633,3.5701,3.7313,3.7922,3.8058,3.9512,4.0113,4.0113,4.0113,4.0113,4.0113,0.0,0.0,0.0,0.0,0.0,0.0,0.0,4.0392,0.0,0.0,0.0,0.0,0.0,0.0,5.6896,0.0,0.0,5.0471,4.7855,4.4757,0.0,0.0,0.0,3.7654,0.0,0.0,0.0,0.0,0.0,3.2472,3.2192,3.1384,3.1421,3.2192,0.0,3.2632,0.0,0.0,0.0,0.0,0.0,3.4468,3.5312,0.0,0.0,3.3807,3.3807,3.3807,0.0,3.3807,3.3807,3.3807,3.3807,3.3623,3.3293,3.2766,3.2779,0.0,0.0,0.0,3.427,3.4527,0.0,0.0,0.0,0.0,0.0,0.0,0.0,0.0,0.0,0.0,0.0,0.0,0.0,0.0,0.0,0.0,0.0,0.0,0.0,0.0,0.0,0.0,0.0,0.0,3.0243,0.0,3.1157,3.119,3.1549,3.2293,3.2747,3.3491,3.4472,3.4979,3.525,3.5228,3.5464,3.5464,3.525,3.5498,3.587,3.64,3.6907,3.7121,3.7246,3.8734,3.9073,3.8734,3.9706,4.0113,4.0113,4.0113,4.0113,4.018,3.7355,0.0,0.0,0.0,0.0,0.0,0.0,0.0,0.0,0.0,4.9442,0.0,5.5857,0.0,5.9896,0.0,5.5489,5.3425,4.9102,4.7336,0.0,4.2044,4.0826,0.0,0.0,0.0,0.0,0.0,0.0,3.3623,3.3023,3.2192,3.2265,3.3036,0.0,3.333,3.3807,0.0,3.4064,0.0,0.0,3.5055,0.0,0.0,3.4688,3.4651,0.0,3.4234,3.4284,3.4578,3.4468,3.4234,3.4234,3.4234,3.4124,3.361,3.4064,3.4688,3.4688,3.5092,0.0,3.5445,3.5466,0.0,3.3846,0.0,0.0,0.0,0.0,0.0,0.0,0.0,0.0,0.0,0.0,0.0,0.0,2.9247,0.0,0.0,0.0,0.0,0.0,0.0,0.0,3.0446,3.0006,3.0142,0.0,0.0,3.1664,3.2666,3.3152,3.3897,3.4878,3.5363,3.56,3.56,3.56,3.56,3.56,3.56,3.6062,3.6829,3.728,3.7652,3.799,3.9208,3.9436,3.9073,3.9808,4.0113,4.0113,4.0113,4.0282,4.0561,0.0,0.0,0.0,0.0,3.7617,0.0,0.0,0.0,4.7394,0.0,5.3433,5.8511,5.7819,6.05,6.1296,5.8642,5.7901,0.0,5.0696,4.9559,0.0,0.0,4.2295,4.1368,3.8982,0.0,0.0,0.0,0.0,0.0,3.3844,3.3023,3.306,3.3807,3.3807,0.0,3.3844,3.4674,3.4564,3.399,3.4747,3.5591,3.6413,3.634,3.634,3.6303,3.5371,3.5078,3.5188,3.6009,3.5752,3.5078,3.5078,3.5078,3.5078,3.5078,3.5628,3.6303,3.634,3.6325,3.6311,3.6311,0.0,0.0,0.0,0.0,3.4999,0.0,0.0,0.0,0.0,0.0,0.0,0.0,0.0,0.0,0.0,0.0,0.0,0.0,0.0,0.0,0.0,0.0,2.9653,3.1021,2.9856,2.9687,0.0,0.0,3.1867,3.3355,3.3423,3.4112,3.56,3.56,3.56,3.56,3.56,3.5633,3.5667,3.5667,3.6129,3.6897,3.6897,3.7313,3.8058,3.8768,3.9039,3.9106,3.9842,4.0113,4.0146,4.0146,4.0595,4.1271,3.8147,3.8935,3.9638,0.0,3.9044,3.9669,0.0,0.0,0.0,0.0,5.301,5.6703,6.1897,6.1335,6.0299,5.971,5.8623,0.0,0.0,0.0,0.0,4.7164,4.5707,4.4121,4.2286,4.0708,0.0,3.7756,0.0,0.0,3.4674,3.3867,3.3587,3.3807,0.0,0.0,3.3844,3.4674,3.5261,3.5679,3.5862,3.6817,0.0,0.0,3.7037,3.7918,3.6486,3.5973,3.6009,3.6229,3.6156,3.5973,3.5973,3.5973,3.5973,3.5973,3.6119,3.6413,3.7015,3.6884,3.6596,3.6596,3.6381,3.5871,0.0,0.0,0.0,0.0,0.0,0.0,0.0,0.0,0.0,0.0,0.0,0.0,0.0,0.0,0.0,0.0,0.0,0.0,0.0,0.0,2.9973,3.0345,3.004,3.0209,3.1157,0.0,0.0,3.3355,3.3423,3.4112,3.56,3.56,3.56,3.56,3.56,3.5904,3.6468,3.6468,3.7178,3.843,3.843,3.886,3.9571,3.974,3.9842,3.9842,4.0045,4.0451,4.0933,4.0933,4.1373,4.2083,3.9251,0.0,0.0,4.2016,0.0,0.0,4.3162,0.0,0.0,4.925,5.4434,0.0,6.2358,6.142,6.041,6.0141,5.9043,0.0,0.0,0.0,0.0,4.8806,4.7868,4.6397,4.4085,4.2359,0.0,3.8175,0.0,0.0,3.4454,3.4027,3.3807,3.3807,0.0,3.399,0.0,3.5224,3.6046,3.6831,3.6831,0.0,0.0,3.7698,3.7918,3.8579,3.7661,3.711,3.6905,3.7221,3.711,3.6831,3.6831,3.6831,3.6831,3.6831,3.7074,3.7441,3.7881,3.7823,3.758,3.758,3.7148,3.6516,3.5642,3.5538,3.5363,0.0,0.0,0.0,0.0,0.0,0.0,0.0,0.0,0.0,0.0,0.0,0.0,0.0,0.0,0.0,0.0,3.0311,3.0243,3.0548,3.0581,3.0751,0.0,0.0,0.0,3.3355,3.3728,3.4438,3.56,3.6276,3.6445,3.6129,3.6468,3.684,3.728,3.728,3.7889,3.9005,3.9005,3.9436,4.0113,4.0113,4.0113,4.0113,4.0113,4.0756,4.1677,4.1677,4.2151,4.2828,0.0,0.0,0.0,0.0,0.0,0.0,0.0,4.9481,0.0,4.6287,0.0,6.1512,6.0858,6.1107,6.0948,6.0038,0.0,5.731,5.4335,5.5064,5.3518,4.882,4.9077,4.7939,4.4911,4.3754,0.0,0.0,0.0,0.0,3.3954,3.3844,3.3807,3.3807,0.0,0.0,0.0,3.5973,3.6831,3.7676,3.7676,3.8065,3.8689,3.8689,3.8689,3.8689,3.8689,3.8248,3.7749,3.8469,3.8248,3.7676,3.7676,3.7676,3.7676,3.7676,3.8138,3.8689,3.8689,3.8611,3.8481,3.8481,3.7756,3.6981,3.6981,3.627,3.56,3.56,3.5115,3.4641,0.0,0.0,0.0,0.0,0.0,0.0,0.0,0.0,0.0,0.0,0.0,0.0,0.0,0.0,3.0615,3.1157,3.119,3.119,0.0,0.0,0.0,3.3389,3.41,3.4912,3.5735,0.0,3.7483,3.6965,3.7584,3.7956,3.8058,3.8058,3.8464,3.914,3.914,3.9537,4.0113,4.0113,4.0113,4.0113,4.0214,4.1094,4.2286,4.2388,4.2929,4.3572,0.0,0.0,0.0,0.0,0.0,4.521,4.5287,5.329,5.6011,4.6826,4.7518,5.1905,5.9935,6.0849,6.0436,5.923,5.8508,0.0,0.0,0.0,0.0,5.0508,4.9187,4.7645,4.5736,4.2947,4.0855,0.0,0.0,0.0,3.4784,3.41,3.3807,3.3807,0.0,0.0,3.6083,3.6229,0.0,3.8505,3.8505,3.8579,3.8689,3.8689,3.8689,3.8689,3.8689,3.8615,3.8505,3.8652,3.8615,3.8505,3.8505,3.8505,3.8505,3.8505,3.8579,3.8689,3.8689,3.8101,3.7451,3.7451,3.6666,3.5876,3.5876,3.5722,3.56,3.56,3.5498,3.5397,3.5397,0.0,0.0,0.0,0.0,0.0,0.0,0.0,0.0,0.0,0.0,0.0,0.0,0.0,0.0,0.0,0.0,0.0,0.0,0.0,0.0,0.0,3.41,0.0,0.0,0.0,3.7212,3.7719,3.7855,3.8227,3.8802,3.8802,3.9208,3.991,3.991,3.9977,4.0113,4.0113,4.0113,4.018,4.0764,4.1542,4.2354,4.2997,4.3707,4.4412,0.0,0.0,0.0,0.0,0.0,0.0,0.0,5.7627,0.0,5.4126,5.3472,5.5357,6.0242,6.0365,5.9738,5.899,5.7836,5.6712,5.5647,5.5207,5.3922,5.1536,5.0251,0.0,4.6562,4.3791,4.1332,3.9276,0.0,0.0,0.0,0.0,0.0,3.3844,0.0,3.5532,0.0,0.0,0.0,3.8689,3.8689,3.8689,3.8689,3.8689,3.8689,3.8689,3.8689,3.8689,3.8689,3.8689,3.8689,3.8689,3.8689,3.8689,3.8689,3.8689,3.8689,3.8689,3.8689,3.8152,3.7667,3.8043,3.7066,3.6131,3.6507,3.6423,3.6231,3.6231,3.6535,3.6705,3.6299,3.6231,0.0,0.0,0.0,0.0,0.0,0.0,0.0,0.0,0.0,0.0,0.0,0.0,0.0,0.0,0.0,0.0,0.0,0.0,0.0,0.0,0.0,0.0,0.0,0.0,0.0,3.8464,3.887,3.9233,3.9571,3.9571,3.9774,4.0113,4.0113,4.0113,4.0146,4.0493,4.0663,4.073,4.1474,4.2219,4.2929,4.3274,4.391,4.4615,0.0,4.6441,0.0,0.0,4.9634,0.0,6.0973,6.1858,6.1627,6.0896,6.0456,6.0189,6.0189,5.9543,5.8878,5.8234,5.6974,5.6,5.5354,5.473,5.3592,5.183,5.0802,4.9187,4.6892,4.4305,4.1662,0.0,0.0,0.0,0.0,0.0,0.0,0.0,0.0,0.0,0.0,0.0,3.8542,3.8689,3.8689,3.8689,3.8689,3.8689,3.8689,3.8689,3.8689,3.8689,3.8689,3.8689,3.8689,3.8689,3.8689,3.8689,3.8689,3.8689,3.8689,3.8673,3.858,3.8132,3.79,3.8508,3.7571,3.6676,3.7413,3.7319,3.7032,3.7032,3.7483,3.7719,3.7144,3.7516,0.0,0.0,0.0,0.0,0.0,0.0,0.0,0.0,0.0,0.0,0.0,0.0,0.0,0.0,0.0,0.0,0.0,0.0,0.0,0.0,0.0,3.6231,3.7032,0.0,3.9073,3.9242,3.9842,4.0113,4.0113,4.0113,4.0113,4.0113,4.0282,4.0417,4.062,4.1204,4.1441,4.1508,4.2252,4.2895,4.3443,4.3747,4.4282,4.4886,0.0,0.0,0.0,0.0,0.0,0.0,6.4859,6.5436,6.432,6.1204,5.9319,5.826,5.826,5.8172,5.753,5.6036,5.5787,5.5317,5.4546,5.4436,5.3371,5.1022,4.937,4.7755,4.6067,4.2947,4.0818,0.0,0.0,0.0,0.0,0.0,0.0,0.0,0.0,0.0,0.0,3.7566,3.8028,3.8689,3.8689,3.8689,3.8689,3.8689,3.8689,3.8689,3.8689,3.8689,3.8689,3.8689,3.8689,3.8689,3.8689,3.8689,3.8689,3.8689,3.8689,3.8596,3.8099,3.7632,3.7312,3.7568,3.72,3.6966,3.7689,3.7811,3.7787,3.7787,3.7855,3.7889,3.7821,3.7855,3.7855,0.0,0.0,0.0,0.0,0.0,0.0,0.0,0.0,0.0,0.0,3.2645,0.0,0.0,0.0,0.0,0.0,0.0,0.0,3.3423,0.0,3.7043,3.7787,3.8599,3.9334,4.0011,4.0079,4.0113,4.0113,4.0113,4.0113,4.0146,4.0798,4.1474,4.2083,4.2151,4.2185,4.2252,4.3031,4.3341,4.3578,4.4993,4.5534,4.5703,0.0,0.0,0.0,0.0,0.0,0.0,0.0,6.282,6.2358,6.0973,5.9158,5.7997,5.7997,5.7997,5.774,5.7079,5.528,5.4289,5.462,5.4032,5.3041,5.1573,4.9958,4.8306,4.6654,4.3938,4.1662,0.0,0.0,0.0,0.0,0.0,0.0,0.0,0.0,3.7661,3.7566,3.8521,3.8836,3.8689,3.8689,3.8689,3.8689,3.8689,3.9019,3.9423,3.9423,3.9717,4.0141,4.0141,3.9496,3.8689,3.8689,3.9019,3.9423,3.9423,3.9753,4.0008,3.9443,3.8936,3.8627,3.879,3.814,3.7652,3.8396,3.8565,3.8565,3.8565,3.8903,3.9073,3.8633,3.8903,3.8937,0.0,0.0,0.0,0.0,0.0,0.0,0.0,0.0,0.0,0.0,0.0,0.0,0.0,0.0,0.0,0.0,0.0,0.0,3.4687,0.0,3.7371,3.8531,3.8836,3.9368,4.0113,4.0113,4.0113,4.0113,4.0561,4.1001,4.1467,4.1711,4.2016,4.232,4.2794,4.3234,4.3735,4.4012,4.4654,4.5466,4.5635,4.5974,4.638,5.2433,0.0,6.0781,0.0,6.0781,6.0622,6.0074,6.0456,6.061,6.0059,5.8815,5.7997,5.7997,5.7997,5.7813,5.7336,5.4803,5.3518,5.4289,5.3408,5.2491,5.1683,5.0088,0.0,4.6782,4.4599,4.256,4.0598,3.957,0.0,0.0,0.0,0.0,0.0,3.8799,3.9093,3.8615,3.9753,3.9937,3.9423,3.9423,3.9423,3.9423,3.9423,3.9753,4.0267,4.0267,4.0634,4.1095,4.1095,4.0361,3.9423,3.9423,3.979,4.0267,4.0267,4.0671,4.0943,4.0202,3.975,3.9503,3.9502,3.8853,3.843,3.9165,3.9309,3.9309,3.9309,3.974,3.9943,3.9436,3.9774,3.9774,3.8734,0.0,0.0,0.0,0.0,0.0,0.0,0.0,3.4607,3.41,0.0,0.0,0.0,0.0,0.0,0.0,0.0,0.0,0.0,0.0,0.0,0.0,3.9208,3.9605,4.0113,4.0316,4.0392,4.0451,4.117,4.1914,4.2625,4.2625,4.2861,4.3335,4.3876,4.4553,4.5258,4.5258,4.5872,4.6752,4.6481,4.6684,4.7158,5.1366,5.6165,6.0781,6.0781,6.0781,6.0175,5.8326,5.9592,6.0132,5.8282,5.802,5.7997,5.7997,5.7997,5.7373,5.578,5.4142,5.3203,5.3203,5.2454,5.1646,0.0,0.0,4.7572,4.5957,4.4305,4.3094,4.2286,0.0,0.0,3.8689,0.0,3.9093,3.99,4.0708,4.1058,4.1058,4.1058,4.1058,4.1058,4.1058,4.1058,4.1058,4.1058,4.1058,4.1095,4.1095,4.1095,4.1095,4.1095,4.1095,4.1058,4.1058,4.1058,4.1095,4.1095,4.1095,4.0876,3.9805,3.9494,3.942,3.9105,3.9005,3.9174,3.991,4.0079,4.0079,4.0079,4.0079,4.0113,4.0079,4.0079,4.0079,4.0079,0.0,0.0,0.0,0.0,0.0,0.0,3.6062,3.5566,3.5566,0.0,0.0,0.0,0.0,0.0,0.0,0.0,0.0,3.56,3.7787,0.0,3.9005,3.974,4.0079,4.0113,4.0832,4.1204,4.1204,4.1948,4.2692,4.3375,4.3375,4.422,4.5669,4.5669,4.6109,4.6752,4.6752,4.6786,4.6887,4.7631,4.7872,4.7973,5.778,5.9319,6.0781,6.0781,6.0781,6.061,5.9991,6.043,6.0132,5.8238,5.7997,5.7997,5.7997,5.7997,5.6895,0.0,5.3518,5.3203,0.0,5.2968,5.2234,5.0875,4.9958,4.8343,4.5957,4.4856,4.3681,4.2286,0.0,0.0,0.0,4.0325,4.0471,4.0744,4.1552,4.1625,4.1132,4.1682,4.1609,4.1095,4.1095,4.1095,4.1095,4.1095,4.1425,4.1919,4.1919,4.2286,4.2727,4.2727,4.2727,4.2727,4.2727,4.2359,4.1919,4.1919,4.2046,4.2011,4.1253,4.077,4.0353,3.987,3.9774,3.9808,4.0045,4.0113,4.0113,4.0113,4.0113,4.0113,4.0113,4.0113,4.0113,4.0113,4.0113,0.0,0.0,0.0,0.0,0.0,3.7313,3.7155,0.0,3.6975,0.0,0.0,0.0,0.0,0.0,0.0,0.0,0.0,3.8633,0.0,4.0493,4.073,4.1102,4.1576,4.1847,4.2219,4.2699,4.2963,4.347,4.4248,4.4756,4.5263,4.5737,4.6244,4.6887,4.7496,4.6989,4.7394,4.8274,4.7973,4.824,4.868,6.0781,6.0781,6.0781,6.0781,6.0781,6.0546,5.9855,5.976,5.9319,5.8164,5.7997,5.7997,5.7997,5.7997,0.0,5.346,5.3203,5.3203,5.3203,5.2931,5.216,5.0875,5.0178,4.8746,4.6397,4.5553,0.0,4.3204,4.2616,4.1882,4.1095,4.1389,4.1535,4.1589,4.2396,4.247,4.2029,4.2543,4.247,4.1992,4.1992,4.1992,4.1992,4.1992,4.2323,4.2763,4.2763,4.3057,4.3515,4.3515,4.3515,4.3515,4.3515,4.3167,4.2763,4.2763,4.2723,4.2577,4.1958,4.134,4.078,4.0229,4.0113,4.0113,4.0113,4.0113,4.0113,4.0113,4.0113,4.0113,4.0113,4.0113,4.0113,4.0113,4.0113,3.9943,3.9503,0.0,0.0,0.0,0.0,0.0,0.0,3.7922,3.7922,0.0,0.0,0.0,0.0,0.0,0.0,3.8937,3.9546,0.0,4.1204,4.1474,4.1847,4.2286,4.2591,4.3098,4.3876,4.4147,4.4553,4.5026,4.5771,4.6278,4.6583,4.7022,4.7665,4.8274,4.78,4.8173,4.8951,4.8477,4.8781,4.9424,6.0781,6.0781,6.0781,0.0,6.0671,0.0,5.826,5.7997,5.7997,5.7997,5.7997,5.7997,5.7997,5.7997,5.6748,5.3665,0.0,0.0,0.0,5.2491,5.1683,5.0839,5.0068,4.8857,4.7149,4.6434,4.5663,4.4764,4.324,4.2103,4.1352,4.2066,4.2396,4.2433,4.3167,4.3515,4.3515,4.3515,4.3515,4.3515,4.3515,4.3515,4.3515,4.3515,4.3515,4.3515,4.3515,4.3515,4.3515,4.3515,4.3515,4.3515,4.3515,4.3515,4.3515,4.3515,4.3105,4.2501,4.1958,4.1318,4.0709,4.0229,4.0113,4.0113,4.0113,4.0113,4.0113,4.0113,4.0113,4.0113,4.0113,4.0113,4.0113,4.0113,4.0113,4.0113,4.0113,0.0,0.0,0.0,0.0,0.0,0.0,3.8058,3.8024,0.0,0.0,0.0,0.0,0.0,3.914,3.914,4.0527,4.1339,4.1441,4.2117,4.2489,4.2625,4.3267,4.3978,4.4784,4.5466,4.5771,4.5838,4.6549,4.7259,4.7906,4.7939,4.8376,4.9018,4.9018,4.9052,4.9086,4.9086,4.9526,5.0168,0.0,0.0,6.0781,6.0781,5.9609,5.8487,5.8088,5.7997,5.7997,5.7997,5.7997,5.7997,5.7997,5.7997,5.7189,5.5207,5.4656,5.4069,5.324,5.3041,5.227,5.0875,5.0618,4.9444,4.7149,4.7535,4.7058,4.5626,4.4635,4.4048,4.3847,4.3424,4.3204,4.3204,4.3441,4.3515,4.3515,4.3515,4.3515,4.3515,4.3515,4.3515,4.3515,4.3515,4.3515,4.3515,4.3515,4.3515,4.3515,4.3515,4.3515,4.3515,4.3515,4.3515,4.3515,4.3515,4.2791,4.1979,4.1853,4.1059,4.0279,4.0104,4.0113,4.0113,4.0113,4.0113,4.0113,4.0113,4.0113,4.0113,4.0113,4.0113,4.0113,4.0113,4.0113,4.0113,4.0113,3.9943,0.0,0.0,3.9706,3.9605,3.9605,3.9605,3.9368,0.0,0.0,0.0,0.0,4.0054,4.0696,4.0696,4.1542,4.2591,4.3802,4.3972,4.4621,4.5737,4.5331,4.5534,4.6278,4.6447,4.6549,4.6583,4.7327,4.7736,4.7939,4.8511,4.8849,4.9018,4.9018,4.9357,4.983,4.983,5.0304,5.0947,6.0781,6.0781,6.0781,6.0781,5.923,5.7997,5.7997,5.7997,5.7997,5.7997,5.7997,5.7997,5.7997,5.7997,5.7629,5.6748,5.5537,5.4326,5.3298,5.3203,5.2674,5.1389,5.0986,4.9994,4.8269,4.7939,4.7131,4.5883,4.5112,4.4691,4.4654,4.3864,4.3515,4.3515,4.3515,4.3515,4.3515,4.3515,4.3515,4.3515,4.3515,4.3515,4.3515,4.3515,4.3515,4.3515,4.3515,4.3515,4.3515,4.3515,4.3515,4.3515,4.3515,4.3321,4.3215,4.3561,4.2753,4.1746,4.1451,4.0767,4.018,4.0493,4.0857,4.1128,4.1128,4.1128,4.1128,4.1128,4.1128,4.1027,4.0663,4.0595,4.0493,4.0146,4.0113,4.0113,4.0113,4.0113,0.0,4.0113,4.0417,4.0595,4.0595,4.0899,4.0798,4.0054,4.0696,0.0,4.0054,4.1745,4.2286,4.1238,4.2591,4.3768,4.4615,4.5292,4.6036,4.6786,4.638,4.6413,4.6819,4.7158,4.7293,4.7327,4.8105,4.8409,4.8443,4.8849,4.9187,4.9492,4.9492,4.9965,5.0608,5.0608,5.1082,5.1725,6.0781,6.0781,6.0722,6.0443,5.9084,5.7997,5.7997,5.7997,5.7997,5.7997,5.7997,5.7997,5.7997,5.7997,5.7997,5.7997,5.6308,5.4693,5.3277,5.3203,5.2858,5.2013,5.1463,5.0729,4.9794,4.8269,4.7095,4.625,4.548,4.4984,4.4856,4.4048,4.3608,4.3515,4.3515,4.3515,4.3515,4.3515,4.3515,4.3515,4.3515,4.3515,4.3515,4.3515,4.3515,4.3515,4.3644,4.3681,4.3681,4.3845,4.3864,4.3864,4.3864,4.3506,4.3159,4.3708,4.2995,4.1903,4.1406,4.0847,4.0587,4.1204,4.1847,4.232,4.2422,4.2388,4.232,4.2422,4.2388,4.2049,4.1339,4.1204,4.0967,4.0214,4.0113,4.0113,4.0113,0.0,4.0282,4.0282,4.0899,4.1373,4.1373,4.1914,4.2083,4.1576,4.2117,4.2252,4.1745,4.3639,4.3876,4.1948,4.3842,4.4987,4.5122,4.6346,4.7022,4.7124,4.7022,4.7022,4.7158,4.78,4.8041,4.8139,4.8849,4.912,4.9018,4.9255,4.9627,5.0101,5.0202,5.071,5.1386,5.1386,5.186,5.2469,6.0781,6.0781,6.0311,5.8733,5.8172,5.7997,5.7997,5.7997,5.7997,5.7997,5.7997,5.7997,5.7997,5.7997,5.7997,5.7997,5.7703,5.6271,5.3387,5.3203,5.2858,5.2013,5.2527,5.2123,5.0655,4.9664,4.8783,4.7939,4.7113,4.6379,4.57,4.4892,4.4158,4.3515,4.3515,4.3515,4.3515,4.3515,4.3515,4.3515,4.3515,4.3515,4.3515,4.3515,4.3515,4.3571,4.4268,4.4525,4.4635,4.5296,4.5516,4.5516,4.5516,4.5127,4.4577,4.4163,4.3546,4.2933,4.2871,4.2432,4.1982,4.2083,4.2219,4.2455,4.3098,4.276,4.2489,4.3098,4.2726,4.2049,4.1339,4.1204,4.0967,4.0214,4.0113,4.0113,4.0113,0.0,4.1035,4.1035,4.1677,4.2117,4.2117,4.2219,4.2523,4.3003,4.3139,4.347,4.4039,4.4993,4.5365,4.5026,4.594,4.6752,4.7365,4.7631,4.8037,4.8646,4.8037,4.8071,4.8646,4.8781,4.8849,4.8883,4.9593,4.956,4.912,5.0338,5.0574,5.0135,5.0811,5.1488,5.2131,5.2131,5.2638,5.3315,6.0781,6.0781,6.0521,5.9642,5.8693,5.7997,5.7997,5.7997,5.7997,5.7997,5.7997,5.7997,5.7997,5.7997,5.7997,5.7997,5.7997,5.6638,5.3408,5.3203,5.3041,5.2674,5.2601,5.1793,5.0178,4.9794,4.915,4.8306,4.748,4.6892,4.6544,4.5736,4.4929,4.4158,4.4599,4.4562,4.4158,4.4158,4.4158,4.4121,4.3644,4.3754,4.4158,4.4158,4.4415,4.4819,4.5223,4.5369,4.5406,4.5773,4.5883,4.5883,4.5883,4.526,4.4549,4.4653,4.3763,4.2723,4.2723,4.2796,4.2997,4.3403,4.3842,4.4316,4.506,4.4959,4.4823,4.5162,4.4959,4.4384,4.3234,4.2692,4.2151,4.1407,4.062,0.0,0.0,4.1576,4.1948,4.2354,4.3436,4.4147,4.4147,4.4485,4.4688,4.4654,4.5026,4.5229,4.5196,4.6278,4.6887,4.6887,4.7225,4.7767,4.8511,4.8511,4.868,4.9018,4.868,4.868,4.9018,4.9018,4.9221,4.9593,4.9932,5.0135,5.0236,5.0947,5.1251,5.1319,5.1657,5.2266,5.2942,5.2942,5.3179,5.3518,6.0781,6.0781,6.0647,6.0217,5.8971,5.7997,5.7997,5.7997,5.7997,5.7997,5.7997,5.7997,5.7997,5.7997,5.7997,5.7997,5.7997,5.6969,5.4473,5.4326,5.3995,5.3203,5.2601,5.1536,4.9904,4.9904,4.937,4.8306,4.7663,4.7259,4.7076,4.6471,4.5736,4.5002,4.5626,4.5553,4.5002,4.5002,4.5002,4.4929,4.4305,4.4415,4.5002,4.5002,4.5369,4.592,4.6104,4.6177,4.6214,4.6397,4.6471,4.6452,4.6504,4.5771,4.5022,4.561,4.463,4.3234,4.2692,4.3369,4.4316,4.4722,4.5399,4.6143,4.6887,4.6921,4.6853,4.7022,4.6921,4.638,4.5122,4.435,4.3639,4.2692,0.0,0.0,0.0,4.2861,4.3301,4.3876,4.5128,4.5974,4.5974,4.6481,4.665,4.6244,4.6887,4.7056,4.6515,4.7699,4.8311,4.8173,4.8173,4.8443,4.8984,4.9018,4.9018,4.9018,4.9018,4.9086,4.9255,4.9255,4.9661,5.0371,5.0541,5.0845,5.1219,5.1589,5.1961,5.2334,5.2503,5.2976,5.3518,5.3518,5.3518,5.3518,6.0781,6.0781,6.0269,5.8524,5.8074,5.7997,5.7997,5.7997,5.7997,5.7997,5.7997,5.7997,5.7997,5.7997,5.7997,5.7997,5.7997,5.7886,5.7666,5.7629,5.6308,5.3314,5.313,5.238,5.0765,5.0729,4.9921,4.8306,4.8233,4.781,4.7113,4.7039,4.6562,4.581,4.5883,4.5883,4.581,4.581,4.581,4.581,4.5736,4.5773,4.581,4.581,4.5847,4.5993,4.6746,4.7003,4.7113,4.7865,4.8122,4.8136,4.8279,4.7862,4.734,4.7474,4.7015,4.6007,4.391,4.4891,4.638,4.5771,4.6177,4.6921,4.7665,4.7293,4.6989,4.7699,4.7293,4.6549,4.5771,4.5568,4.506,4.3544,0.0,0.0,4.3436,4.4553,4.5466,4.5534,4.6244,4.6718,4.6718,4.6752,4.7056,4.7669,4.8443,4.8815,4.8748,4.9492,4.9627,4.8951,4.8917,4.8951,4.9018,4.9018,4.9018,4.9018,4.9018,4.9357,4.9999,4.9999,5.0405,5.1183,5.186,5.1792,5.1319,5.2739,5.2942,5.2367,5.3112,5.345,5.3518,5.3518,5.3518,5.3518,6.0781,5.987,5.8835,5.8119,5.7997,5.7997,5.7997,5.7997,5.7997,5.7997,5.7997,5.7997,5.7997,5.7997,5.7997,5.7997,5.7997,5.7997,5.7997,5.6124,5.4473,5.324,5.3203,5.2674,5.1573,5.1536,5.0729,4.9114,4.9114,4.8673,4.7846,4.7846,4.7406,4.6672,4.7168,4.7131,4.6636,4.6636,4.6636,4.6599,4.6104,4.6214,4.6636,4.6636,4.6948,4.7425,4.7755,4.7846,4.7957,4.882,4.9114,4.9125,4.9213,4.884,4.8171,4.7389,4.7296,4.7192,4.5872,4.6143,4.6819,4.7022,4.7293,4.78,4.8984,4.9052,4.9052,4.9796,4.9729,4.9323,4.8545,4.8037,4.7428,4.635,0.0,4.55,4.6114,4.6688,4.7259,4.7699,4.8815,4.9357,4.8883,4.9255,4.9661,4.9932,5.0236,5.0371,5.0371,5.0642,5.0642,5.0371,5.0371,5.0135,4.9695,4.9221,4.9458,5.0371,4.9898,5.0067,5.0777,5.0777,5.1183,5.1894,5.2198,5.2435,5.2672,5.3281,5.3315,5.3078,5.3382,5.3518,5.3518,5.3518,5.3518,5.3518,6.0757,5.9284,5.7997,5.7997,5.7997,5.7997,5.7997,5.7997,5.7997,5.7997,5.7997,5.7997,5.7997,5.7997,5.7997,5.7997,5.7997,5.7997,5.7997,5.4987,5.3203,5.3203,5.3203,5.2821,5.2013,5.1977,5.1316,4.9978,4.9978,4.9517,4.871,4.871,4.8269,4.748,4.803,4.7993,4.748,4.748,4.7626,4.7829,4.6985,4.7168,4.7865,4.759,4.8012,4.871,4.871,4.8857,4.9187,4.9774,4.9821,4.9628,4.9739,4.9366,4.8734,4.806,4.8173,4.8545,4.8274,4.8173,4.8206,4.824,4.8582,4.9221,5.0202,5.0439,5.0574,5.1116,5.1185,5.1048,5.0541,5.0033,4.9458,4.8714,4.7936,4.7699,4.8477,4.8815,4.9123,4.9627,5.0576,5.1014,5.0473,5.0913,5.1185,5.1185,5.1388,5.1555,5.1555,5.1352,5.1185,5.1185,5.1185,5.1082,5.0777,5.0067,5.0202,5.1185,5.0676,5.0845,5.1555,5.1555,5.1961,5.2672,5.2672,5.2976,5.3518,5.3518,5.3518,5.3518,5.3518,5.3518,5.3518,5.3518,5.3518,5.3518,6.0647,5.9266,5.7997,5.7997,5.7997,5.7997,5.7997,5.7997,5.7997,5.7997,5.7997,5.7997,5.7997,5.7997,5.7997,5.7997,5.7997,5.7997,5.7997,5.5023,5.3203,5.3203,5.3203,5.2821,5.2013,5.2013,5.161,5.0802,5.0802,5.0398,4.961,4.961,4.915,4.8343,4.8343,4.8343,4.8343,4.8343,4.882,4.9537,4.8673,4.882,4.9537,4.8636,4.8857,4.961,4.961,5.0105,5.0802,5.0802,5.0299,4.9739,4.9856,4.95,4.9154,4.9864,5.0101,5.027,5.1014,5.1185,5.0879,4.939,5.0135,5.1185,5.1217,5.1217,5.1185,5.1219,5.1219,5.1219,5.1219,5.1219,5.098,5.0236,5.0744,5.0947,5.0202,5.0744,5.1217,5.1217,5.1185,5.1219,5.1185,5.1185,5.1219,5.1219,5.1894,5.23,5.23,5.1623,5.1219,5.1219,5.1219,5.1589,5.23,5.1589,5.1217,5.1219,5.1185,5.1623,5.23,5.23,5.2739,5.3518,5.3518,5.3518,5.3518,5.3518,5.3518,5.3518,5.3518,5.3518,5.3518,5.3518,5.3518,5.3518,5.8932,5.8375,5.7997,5.7997,5.7997,5.7997,5.7997,5.7997,5.7997,5.7997,5.7997,5.7997,5.7997,5.7997,5.7997,5.7997,5.7997,5.7997,5.7997,5.6051,5.473,5.4326,5.3592,5.3115,5.2858,5.2858,5.2454,5.1646,5.1646,5.1242,5.0435,5.0435,5.0288,5.0068,5.0068,5.0068,5.0068,5.0068,5.0215,5.0398,5.0178,5.0215,5.0398,5.0141,5.0215,5.0435,5.0435,5.0618,5.0875,5.1463,5.1506,5.126,5.0873,5.0326,4.9796,5.0033,5.0473,5.0913,5.115,5.1589,5.1758,5.0777,5.0847,5.1352,5.186,5.1961,5.2131,5.2706,5.2807,5.2807,5.2807,5.2807,5.257,5.1758,5.1826,5.1894,5.1657,5.1826,5.1961,5.1961,5.2469,5.2604,5.2029,5.2503,5.2807,5.2807,5.301,5.3145,5.3145,5.2942,5.2807,5.2807,5.2807,5.2942,5.3145,5.186,5.1726,5.2807,5.2232,5.2401,5.3145,5.3145,5.3281,5.3518,5.3518,5.3518,5.3518,5.3518,5.3518,5.3518,5.3518,5.3518,5.3518,5.3518,5.3518,5.3518,5.8632,5.826,5.7997,5.7997,5.7997,5.7997,5.7997,5.7997,5.7997,5.7997,5.7997,5.7997,5.7997,5.7997,5.7997,5.7997,5.7997,5.7997,5.7997,5.7079,5.6198,5.5486,5.462,5.3849,5.3203,5.3203,5.2968,5.2454,5.2454,5.205,5.1279,5.1279,5.1096,5.0802,5.0802,5.0802,5.0802,5.0802,5.0986,5.1242,5.0949,5.0986,5.1242,5.0912,5.0986,5.1279,5.1279,5.1463,5.1867,5.2674,5.2777,5.239,5.1435,5.0837,5.0574,5.0879,5.1285,5.1725,5.2029,5.2435,5.2672,5.2232,5.2131,5.2232,5.2672,5.2773,5.2909,5.3416,5.3518,5.3518,5.3518,5.3518,5.3348,5.2841,5.2773,5.2773,5.2773,5.2773,5.2773,5.2773,5.3213,5.3315,5.2807,5.3213,5.3518,5.3518,5.3518,5.3518,5.3518,5.3518,5.3518,5.3518,5.3518,5.3518,5.3518,5.2604,5.2604,5.3484,5.301,5.3044,5.3518,5.3518,5.3518,5.3518,5.3518,5.3518,5.3518,5.3518,5.3518,5.3518,5.3518,5.3518,5.3518,5.3518,5.3518,5.3518,5.9194,5.8591,5.7997,5.7997,5.7997,5.7997,5.7997,5.7997,5.7997,5.7997,5.7997,5.7997,5.7997,5.7997,5.7997,5.7997,5.7997,5.7997,5.7997,5.7997,5.7519,5.6455,5.5926,5.4913,5.3445,5.3408,5.3408,5.3408,5.3314,5.2931,5.2197,5.2123,5.172,5.1022,5.1022,5.1022,5.1022,5.1022,5.1463,5.2123,5.1353,5.1499,5.2123,5.1316,5.1499,5.2197,5.2197,5.2747,5.3497,5.4188,5.3917,5.3092,5.1719,5.1283,5.1454,5.2097,5.2367,5.257,5.3315,5.3518,5.3518,5.3518,5.3551,5.3585,5.3518,5.3518,5.3518,5.3518,5.3518,5.3518,5.3585,5.3585,5.3585,5.3585,5.3585,5.3585,5.3518,5.3518,5.3518,5.3518,5.3518,5.3518,5.3518,5.3518,5.3518,5.3518,5.3518,5.3518,5.3518,5.3518,5.3518,5.3518,5.3518,5.3518,5.3518,5.3518,5.3518,5.3518,5.3518,5.3518,5.3518,5.3518,5.3518,5.3518,5.3518,5.3518,5.3518,5.3518,5.3518,5.3518,5.3518,5.3518,5.3518,5.3518,5.3551,5.3619,5.8332,5.8142,5.7997,5.7997,5.7997,5.7997,5.7997,5.7997,5.7997,5.7997,5.7997,5.7997,5.7997,5.7997,5.7997,5.7997,5.7997,5.7997,5.7997,5.7997,5.7629,5.6748,5.5978,5.5427,5.5097,5.506,5.506,5.506,5.4436,5.4069,5.3885,5.3225,5.2858,5.2674,5.2674,5.2674,5.2674,5.2674,5.3151,5.3812,5.3004,5.3151,5.3775,5.3004,5.3188,5.3885,5.3885,5.4399,5.5031,5.4602,5.3602,5.2497,5.214,5.2067,5.2097,5.2266,5.2739,5.3281,5.345,5.3518,5.3518,5.3518,5.3923,5.4194,5.3619,5.3518,5.3518,5.3518,5.3518,5.3687,5.4262,5.4363,5.4363,5.4363,5.4363,5.416,5.3585,5.3518,5.3518,5.3518,5.3518,5.3518,5.3518,5.3518,5.3518,5.3518,5.3518,5.3518,5.3518,5.3518,5.3518,5.3518,5.3518,5.3518,5.3518,5.3518,5.3518,5.3518,5.3518,5.3518,5.3518,5.3518,5.3518,5.3518,5.3518,5.3518,5.3518,5.3518,5.3518,5.3518,5.3518,5.3518,5.3518,5.3518,5.3856,5.4431,5.8065,5.7997,5.7997,5.7997,5.7997,5.7997,5.7997,5.7997,5.7997,5.7997,5.7997,5.7997,5.7997,5.7997,5.7997,5.7997,5.7997,5.7997,5.7997,5.7997,5.7813,5.7409,5.6969,5.6748,5.6748,5.6748,5.6345,5.5596,5.517,5.495,5.495,5.4546,5.4326,5.4326,5.3959,5.3995,5.4326,5.3959,5.4252,5.495,5.4509,5.4583,5.4913,5.4509,5.462,5.495,5.495,5.5249,5.5486,5.434,5.3701,5.3337,5.2969,5.2897,5.2875,5.2875,5.3179,5.3585,5.3923,5.4025,5.4126,5.4465,5.4837,5.4938,5.4194,5.4296,5.4566,5.4566,5.4566,5.4668,5.5074,5.5108,5.5108,5.5108,5.5108,5.5006,5.46,5.4262,5.4025,5.4025,5.3721,5.3518,5.3518,5.3518,5.3518,5.3518,5.3822,5.4025,5.4025,5.4025,5.4194,5.4532,5.389,5.3856,5.4566,5.4194,5.4194,5.4566,5.3856,5.3518,5.3518,5.3518,5.3518,5.3518,5.3518,5.3518,5.3518,5.3518,5.3518,5.3518,5.3518,5.3721,5.3991,5.3619,5.3957,5.4668,5.7997,5.7997,5.7997,5.7997,5.7997,5.7997,5.7997,5.7997,5.7997,5.7997,5.7997,5.7997,5.7997,5.7997,5.7997,5.7997,5.7997,5.7997,5.7997,5.7997,5.7997,5.7997,5.7997,5.7997,5.7997,5.7997,5.7336,5.6037,5.5868,5.5794,5.5794,5.5647,5.5596,5.5596,5.4913,5.4987,5.5537,5.4876,5.506,5.5794,5.5669,5.5706,5.5794,5.5669,5.5684,5.5794,5.5646,5.5571,5.5321,5.4027,5.3963,5.4296,5.3684,5.3518,5.3518,5.3518,5.3518,5.3653,5.4397,5.46,5.4769,5.5547,5.5818,5.575,5.5108,5.5344,5.5681,5.5681,5.5681,5.575,5.5886,5.5919,5.5919,5.5919,5.5919,5.5817,5.575,5.5175,5.4769,5.4769,5.4262,5.389,5.389,5.389,5.389,5.389,5.4431,5.4769,5.4769,5.4769,5.5074,5.5647,5.4532,5.4465,5.5716,5.5108,5.5108,5.5716,5.4465,5.389,5.389,5.3619,5.3585,5.3687,5.3551,5.3518,5.3518,5.3653,5.3687,5.3687,5.3822,5.4262,5.4735,5.4228,5.4465,5.4972,5.7997,5.7997,5.7997,5.7997,5.7997,5.7997,5.7997,5.7997,5.7997,5.7997,5.7997,5.7997,5.7997,5.7997,5.7997,5.7997,5.7997,5.7997,5.7997,5.7997,5.7997,5.7997,5.7997,5.7997,5.7997,5.7997,5.7886,5.7666,5.6969,5.6638,5.6638,5.5941,5.5596,5.5596,5.5486,5.55,5.5574,5.5464,5.5904,5.6602,5.5868,5.6014,5.6565,5.5868,5.6014,5.6571,5.5898,5.5303,5.4739,5.4495,5.41,5.3651,5.3517,5.3518,5.3518,5.3518,5.3518,5.3653,5.4397,5.46,5.4769,5.5547,5.619,5.663,5.6528,5.6089,5.5681,5.5681,5.5681,5.5884,5.6528,5.6664,5.6664,5.6664,5.6664,5.6427,5.5818,5.558,5.5581,5.5581,5.548,5.5412,5.5412,5.5412,5.5412,5.5412,5.5513,5.5581,5.5581,5.5581,5.5615,5.5681,5.5478,5.5513,5.5681,5.5615,5.5615,5.5681,5.5513,5.5412,5.5378,5.4093,5.3856,5.4397,5.3788,5.3518,5.3551,5.4194,5.4431,5.4499,5.5175,5.548,5.5649,5.6156,5.6427,5.6596,5.7997,5.7997,5.7997,5.7997,5.7997,5.829,5.9208,5.8584,5.8217,5.8804,5.8364,5.7997,5.7997,5.7997,5.7997,5.7997,5.7997,5.7997,5.7997,5.7997,5.7997,5.7997,5.7997,5.7997,5.7997,5.7997,5.7997,5.7997,5.7629,5.7483,5.7446,5.7116,5.6932,5.6932,5.6455,5.6528,5.6895,5.6455,5.6748,5.7446,5.7079,5.7152,5.7446,5.7079,5.6909,5.6708,5.5506,5.4898,5.4544,5.4139,5.3783,5.3585,5.3991,5.3822,5.3653,5.4499,5.4431,5.4363,5.5513,5.5818,5.6021,5.6731,5.7171,5.7408,5.7408,5.7171,5.6934,5.6934,5.6934,5.7036,5.734,5.7408,5.7408,5.7408,5.7408,5.7306,5.6968,5.6562,5.6156,5.5749,5.5681,5.5681,5.5681,5.5681,5.5681,5.5681,5.6089,5.6325,5.6325,5.6325,5.6494,5.6934,5.6156,5.6122,5.6934,5.6528,5.6528,5.6934,5.6528,5.6122,5.5647,5.504,5.4905,5.5209,5.4871,5.4735,5.4769,5.5074,5.5209,5.5243,5.5581,5.5681,5.5818,5.6528,5.6799,5.6867]}]]